[[{"header":{"parameterUnit":"m.s-1","parameterCategory":1,"la1":30.6,"la2":29.2853,"lo1":-89.7004,"lo2":-87.6739,"dy":0.0162,"dx":0.0183,"nx":112,"ny":82,"refTime":"2023-11-21T18:00:00:Z","depth":0,"parameterNumber":2,"parameterNumberName":"U-component_of_WINDS"},"data":[0.0,0.0,0.0,0.0,0.0,0.0,0.0,0.0,0.0,0.0,0.0,0.0,0.0,0.0,0.0,0.0,0.0,0.0,0.0,0.0,0.0,0.0,0.0,0.0,0.0,0.0,0.0,0.0,0.0,0.0,0.0,0.0,0.0,0.0,0.0,0.0,0.0,0.0,0.0,0.0,0.0,0.0,0.0,0.0,0.0,0.0,0.0,0.0,0.0,0.0,0.0,0.0,0.0,0.0,0.0,0.0,0.0,0.0,0.0,0.0,0.0,0.0,0.0,0.0,0.0,0.0,0.0,0.0,0.0,0.0,0.0,0.0,0.0,0.0,0.0,0.0,0.0,0.0,0.0,0.0,0.0,0.0,0.0,0.0,0.0,0.0,0.0,0.0,0.0,0.0,0.0,5.2996,5.8553,6.2089,6.2089,6.2589,6.0104,5.3524,0.0,0.0,0.0,0.0,0.0,0.0,0.0,0.0,0.0,0.0,0.0,0.0,0.0,0.0,0.0,0.0,0.0,0.0,0.0,0.0,0.0,0.0,0.0,0.0,0.0,0.0,0.0,0.0,0.0,0.0,0.0,0.0,0.0,0.0,0.0,0.0,0.0,0.0,0.0,0.0,0.0,0.0,0.0,0.0,0.0,0.0,0.0,0.0,0.0,0.0,0.0,0.0,0.0,0.0,0.0,0.0,0.0,0.0,0.0,0.0,0.0,0.0,0.0,0.0,0.0,0.0,0.0,0.0,0.0,0.0,0.0,0.0,0.0,0.0,0.0,0.0,0.0,0.0,0.0,0.0,0.0,0.0,0.0,0.0,0.0,0.0,0.0,0.0,0.0,0.0,0.0,0.0,0.0,0.0,0.0,0.0,0.0,0.0,0.0,0.0,0.0,0.0,0.0,0.0,5.1431,5.7263,6.0418,6.2089,6.2089,6.1512,5.8765,5.3121,0.0,0.0,0.0,0.0,0.0,0.0,0.0,0.0,0.0,0.0,0.0,0.0,0.0,0.0,0.0,0.0,0.0,0.0,0.0,0.0,0.0,0.0,0.0,0.0,0.0,0.0,0.0,0.0,0.0,0.0,0.0,0.0,0.0,0.0,0.0,0.0,0.0,0.0,0.0,0.0,0.0,0.0,0.0,0.0,0.0,0.0,0.0,0.0,0.0,0.0,0.0,0.0,0.0,0.0,0.0,0.0,0.0,0.0,0.0,0.0,0.0,0.0,0.0,0.0,0.0,0.0,0.0,0.0,0.0,0.0,0.0,0.0,0.0,0.0,0.0,0.0,0.0,0.0,0.0,0.0,0.0,0.0,0.0,0.0,0.0,0.0,0.0,0.0,0.0,0.0,0.0,0.0,0.0,0.0,0.0,0.0,0.0,0.0,0.0,0.0,0.0,0.0,0.0,4.9834,5.2702,5.8004,6.0287,6.1396,6.1396,6.1012,5.8543,5.3322,5.2829,0.0,0.0,0.0,0.0,0.0,0.0,0.0,0.0,0.0,0.0,0.0,0.0,0.0,0.0,0.0,0.0,0.0,0.0,0.0,0.0,0.0,0.0,0.0,0.0,0.0,0.0,0.0,0.0,0.0,0.0,0.0,0.0,0.0,0.0,0.0,0.0,0.0,0.0,0.0,0.0,0.0,0.0,0.0,0.0,0.0,0.0,0.0,0.0,0.0,0.0,0.0,0.0,0.0,0.0,0.0,0.0,0.0,0.0,0.0,0.0,0.0,0.0,0.0,0.0,0.0,0.0,0.0,0.0,0.0,0.0,0.0,0.0,0.0,0.0,0.0,0.0,0.0,0.0,0.0,0.0,0.0,0.0,0.0,0.0,0.0,0.0,0.0,0.0,0.0,0.0,0.0,0.0,0.0,0.0,0.0,0.0,0.0,0.0,0.0,0.0,0.0,0.0,5.2303,5.421,5.8158,5.9896,6.0781,6.0781,6.0242,5.7973,5.3472,5.2081,0.0,0.0,0.0,0.0,0.0,0.0,0.0,0.0,0.0,0.0,0.0,0.0,0.0,0.0,0.0,0.0,0.0,0.0,0.0,0.0,0.0,0.0,0.0,0.0,0.0,0.0,0.0,0.0,0.0,0.0,0.0,0.0,0.0,0.0,0.0,0.0,0.0,0.0,0.0,0.0,0.0,0.0,0.0,0.0,0.0,0.0,0.0,0.0,0.0,0.0,0.0,0.0,0.0,0.0,0.0,0.0,0.0,0.0,0.0,0.0,0.0,0.0,0.0,0.0,0.0,0.0,0.0,0.0,0.0,0.0,0.0,0.0,0.0,0.0,0.0,0.0,0.0,0.0,0.0,0.0,0.0,0.0,0.0,0.0,0.0,0.0,0.0,0.0,0.0,0.0,0.0,0.0,0.0,0.0,0.0,0.0,0.0,0.0,0.0,0.0,0.0,0.0,5.2983,5.5712,5.9057,6.0242,6.0781,6.0781,5.8627,5.6088,5.3356,5.0642,0.0,0.0,0.0,0.0,0.0,0.0,0.0,0.0,0.0,0.0,0.0,0.0,0.0,0.0,0.0,0.0,0.0,0.0,0.0,0.0,0.0,0.0,0.0,0.0,0.0,0.0,0.0,0.0,0.0,0.0,0.0,0.0,0.0,0.0,0.0,0.0,0.0,0.0,0.0,0.0,0.0,0.0,0.0,0.0,0.0,0.0,0.0,0.0,0.0,0.0,0.0,0.0,0.0,0.0,0.0,0.0,0.0,0.0,0.0,0.0,0.0,0.0,0.0,0.0,0.0,0.0,0.0,0.0,0.0,0.0,0.0,0.0,0.0,0.0,0.0,0.0,0.0,0.0,0.0,0.0,0.0,0.0,0.0,0.0,0.0,0.0,0.0,0.0,0.0,0.0,0.0,0.0,0.0,0.0,0.0,0.0,0.0,0.0,0.0,0.0,0.0,0.0,5.2265,5.5095,0.0,5.9973,6.0781,6.0781,5.9435,5.7049,5.3433,0.0,0.0,0.0,0.0,0.0,0.0,0.0,0.0,0.0,0.0,0.0,0.0,0.0,0.0,0.0,0.0,0.0,0.0,0.0,0.0,0.0,0.0,0.0,0.0,0.0,0.0,0.0,0.0,0.0,0.0,0.0,0.0,0.0,0.0,0.0,0.0,0.0,0.0,0.0,0.0,0.0,0.0,0.0,0.0,0.0,0.0,0.0,0.0,0.0,0.0,0.0,0.0,0.0,0.0,0.0,0.0,0.0,0.0,0.0,0.0,0.0,0.0,0.0,0.0,0.0,0.0,0.0,0.0,0.0,0.0,0.0,0.0,0.0,0.0,0.0,0.0,0.0,0.0,0.0,0.0,0.0,0.0,0.0,0.0,0.0,0.0,0.0,0.0,0.0,0.0,0.0,0.0,0.0,0.0,0.0,0.0,0.0,0.0,0.0,0.0,0.0,0.0,4.923,5.2038,5.4943,0.0,5.9781,6.0781,6.0781,5.9011,5.6549,5.3395,0.0,0.0,0.0,0.0,0.0,0.0,0.0,0.0,0.0,0.0,0.0,0.0,0.0,0.0,0.0,0.0,0.0,0.0,0.0,0.0,0.0,0.0,0.0,0.0,0.0,0.0,0.0,0.0,0.0,0.0,0.0,0.0,0.0,0.0,0.0,0.0,0.0,0.0,0.0,0.0,0.0,0.0,0.0,0.0,0.0,0.0,0.0,0.0,0.0,0.0,0.0,0.0,0.0,0.0,0.0,0.0,0.0,0.0,0.0,0.0,0.0,0.0,0.0,0.0,0.0,0.0,0.0,0.0,0.0,0.0,0.0,0.0,0.0,0.0,0.0,0.0,0.0,0.0,0.0,0.0,0.0,0.0,0.0,0.0,0.0,0.0,0.0,0.0,0.0,0.0,0.0,0.0,0.0,0.0,0.0,0.0,0.0,0.0,0.0,0.0,0.0,0.0,4.9277,5.2529,5.556,5.802,5.9819,6.0781,6.0781,5.6934,5.4126,0.0,0.0,0.0,0.0,0.0,0.0,0.0,0.0,0.0,0.0,0.0,0.0,0.0,0.0,0.0,0.0,0.0,0.0,0.0,0.0,0.0,0.0,0.0,0.0,0.0,0.0,0.0,0.0,0.0,0.0,0.0,0.0,0.0,0.0,0.0,0.0,0.0,0.0,0.0,0.0,0.0,0.0,0.0,0.0,0.0,0.0,0.0,0.0,0.0,0.0,0.0,0.0,0.0,0.0,0.0,0.0,0.0,0.0,0.0,0.0,0.0,0.0,0.0,0.0,0.0,0.0,0.0,0.0,0.0,0.0,0.0,0.0,0.0,0.0,0.0,0.0,0.0,0.0,0.0,0.0,0.0,0.0,0.0,0.0,0.0,0.0,0.0,0.0,0.0,0.0,0.0,0.0,0.0,0.0,0.0,0.0,0.0,0.0,0.0,0.0,0.0,0.0,0.0,4.8888,5.2347,5.5405,5.7607,5.9624,6.055,5.9935,5.7665,5.5126,5.2472,0.0,0.0,0.0,0.0,0.0,0.0,0.0,0.0,0.0,0.0,0.0,0.0,0.0,0.0,0.0,0.0,0.0,0.0,0.0,0.0,0.0,0.0,0.0,0.0,0.0,0.0,0.0,0.0,0.0,0.0,0.0,0.0,0.0,0.0,0.0,0.0,0.0,0.0,0.0,0.0,0.0,0.0,0.0,0.0,0.0,0.0,0.0,0.0,0.0,0.0,0.0,0.0,0.0,0.0,0.0,0.0,0.0,0.0,0.0,0.0,0.0,0.0,0.0,0.0,0.0,0.0,0.0,0.0,0.0,0.0,0.0,0.0,0.0,0.0,0.0,0.0,0.0,0.0,0.0,0.0,0.0,0.0,0.0,0.0,0.0,0.0,0.0,0.0,0.0,0.0,0.0,0.0,0.0,0.0,0.0,0.0,0.0,0.0,0.0,0.0,0.0,0.0,4.8692,5.1688,5.4503,5.6872,5.9037,5.9935,5.9088,5.7473,5.5164,5.2087,0.0,0.0,0.0,0.0,0.0,0.0,0.0,0.0,0.0,0.0,0.0,0.0,0.0,0.0,0.0,0.0,0.0,0.0,0.0,0.0,0.0,0.0,0.0,0.0,0.0,0.0,0.0,0.0,0.0,0.0,0.0,0.0,0.0,0.0,0.0,0.0,0.0,0.0,0.0,0.0,0.0,0.0,0.0,0.0,0.0,0.0,0.0,0.0,0.0,0.0,0.0,0.0,0.0,0.0,0.0,0.0,0.0,0.0,0.0,0.0,0.0,0.0,0.0,0.0,0.0,0.0,0.0,0.0,0.0,0.0,0.0,0.0,0.0,0.0,0.0,0.0,0.0,0.0,0.0,0.0,0.0,0.0,0.0,0.0,0.0,0.0,0.0,0.0,0.0,0.0,0.0,0.0,0.0,0.0,0.0,0.0,0.0,0.0,0.0,0.0,0.0,0.0,4.8584,5.0898,5.3319,5.6044,5.8169,5.9088,5.8357,5.6703,5.4626,5.2049,0.0,0.0,0.0,0.0,0.0,0.0,0.0,0.0,0.0,0.0,0.0,0.0,0.0,0.0,0.0,0.0,0.0,0.0,0.0,0.0,0.0,0.0,0.0,0.0,0.0,0.0,0.0,0.0,0.0,0.0,0.0,0.0,0.0,0.0,0.0,0.0,0.0,0.0,0.0,0.0,0.0,0.0,0.0,0.0,0.0,0.0,0.0,0.0,0.0,0.0,0.0,0.0,0.0,0.0,0.0,0.0,0.0,0.0,0.0,0.0,5.1813,0.0,0.0,0.0,0.0,0.0,0.0,0.0,0.0,0.0,0.0,0.0,0.0,0.0,0.0,0.0,0.0,0.0,0.0,0.0,0.0,0.0,0.0,0.0,0.0,0.0,0.0,0.0,0.0,0.0,0.0,0.0,0.0,0.0,0.0,0.0,0.0,0.0,0.0,0.0,0.0,0.0,4.8274,5.1381,5.4106,5.5693,5.7481,5.8511,5.8319,5.6703,5.4626,5.2049,5.0164,0.0,0.0,0.0,0.0,0.0,0.0,0.0,0.0,0.0,0.0,0.0,0.0,0.0,0.0,0.0,0.0,0.0,0.0,0.0,0.0,0.0,0.0,0.0,0.0,0.0,0.0,0.0,0.0,0.0,0.0,0.0,0.0,0.0,0.0,0.0,0.0,0.0,0.0,0.0,0.0,0.0,0.0,0.0,0.0,0.0,0.0,0.0,0.0,0.0,0.0,0.0,0.0,0.0,0.0,0.0,0.0,0.0,0.0,0.0,0.0,5.3075,0.0,0.0,0.0,0.0,0.0,0.0,0.0,0.0,0.0,0.0,0.0,0.0,0.0,0.0,0.0,0.0,0.0,0.0,0.0,0.0,0.0,0.0,0.0,0.0,0.0,0.0,0.0,0.0,0.0,0.0,0.0,0.0,0.0,0.0,0.0,0.0,0.0,0.0,0.0,0.0,4.8621,5.1121,5.3403,5.5236,5.6767,5.7665,5.7665,5.6472,5.4972,5.328,5.0779,0.0,0.0,0.0,0.0,0.0,0.0,0.0,0.0,0.0,0.0,0.0,0.0,0.0,0.0,0.0,0.0,0.0,0.0,0.0,0.0,0.0,0.0,0.0,0.0,0.0,0.0,0.0,0.0,0.0,0.0,0.0,0.0,0.0,0.0,0.0,0.0,0.0,0.0,0.0,0.0,0.0,0.0,0.0,0.0,0.0,0.0,0.0,0.0,0.0,0.0,0.0,0.0,0.0,5.7698,5.8827,5.9627,5.9627,5.9627,5.955,5.8088,5.6511,5.4895,5.4318,0.0,0.0,0.0,0.0,0.0,0.0,0.0,0.0,0.0,0.0,0.0,0.0,0.0,0.0,0.0,0.0,0.0,0.0,0.0,0.0,0.0,0.0,0.0,0.0,5.2895,5.2423,4.7985,0.0,0.0,0.0,0.0,0.0,0.0,0.0,0.0,0.0,0.0,0.0,4.9144,5.0734,5.2526,5.484,5.6098,5.6819,5.6973,5.6319,5.5511,5.4549,5.1856,4.9702,0.0,0.0,0.0,0.0,0.0,0.0,0.0,0.0,0.0,0.0,0.0,0.0,0.0,0.0,0.0,0.0,0.0,0.0,0.0,0.0,0.0,0.0,0.0,0.0,0.0,0.0,0.0,0.0,0.0,0.0,0.0,0.0,4.8526,4.9994,0.0,0.0,0.0,0.0,0.0,0.0,0.0,0.0,0.0,0.0,0.0,0.0,0.0,5.3012,5.4853,5.6952,5.899,6.1004,6.3029,6.4269,6.4897,6.4897,6.4897,6.4897,6.4666,0.0,5.6703,5.7357,0.0,0.0,0.0,0.0,0.0,0.0,0.0,0.0,0.0,0.0,0.0,0.0,0.0,0.0,0.0,0.0,0.0,0.0,0.0,0.0,0.0,0.0,5.4549,5.3318,5.4241,5.4715,0.0,5.0822,4.9372,4.7486,4.6506,0.0,0.0,0.0,0.0,0.0,0.0,0.0,4.9219,5.1228,5.3112,5.4917,5.5562,5.6165,5.6934,5.6896,5.6165,5.4587,5.4087,5.2433,4.9356,4.8163,0.0,0.0,0.0,0.0,0.0,0.0,0.0,0.0,0.0,0.0,0.0,0.0,0.0,0.0,0.0,0.0,0.0,0.0,0.0,0.0,0.0,0.0,0.0,0.0,0.0,0.0,0.0,0.0,0.0,4.7755,4.893,4.8746,4.86,4.7609,0.0,0.0,0.0,0.0,0.0,0.0,0.0,0.0,0.0,5.6329,5.7418,5.869,6.0129,6.1793,6.3501,6.5389,6.6577,6.7454,6.8052,6.8513,6.8205,6.7321,6.7821,6.6013,6.2551,6.105,5.9204,5.7126,0.0,0.0,0.0,0.0,5.3741,5.4203,5.528,5.5357,5.4891,5.4407,0.0,0.0,0.0,0.0,0.0,0.0,0.0,0.0,0.0,0.0,5.6472,5.6703,5.7665,5.8066,5.6222,5.4856,5.2924,0.0,4.8996,4.8609,4.6616,0.0,0.0,0.0,0.0,4.7401,4.9234,5.1305,5.3148,5.4618,5.533,5.6242,5.7627,5.728,5.7088,5.728,5.5549,5.3818,5.2318,5.0048,4.824,0.0,0.0,0.0,0.0,0.0,0.0,0.0,0.0,0.0,0.0,0.0,0.0,0.0,0.0,0.0,0.0,0.0,0.0,0.0,0.0,0.0,0.0,0.0,0.0,0.0,0.0,0.0,0.0,4.9334,5.0215,4.8857,5.0472,5.0141,0.0,0.0,0.0,0.0,0.0,0.0,5.5635,5.7531,5.9354,6.1048,6.2889,6.4294,6.5247,6.6195,6.7457,6.9051,6.917,6.9622,7.036,7.0744,7.0206,6.909,6.9744,6.9283,6.7821,6.4666,6.2243,6.0319,5.8627,5.7434,5.6665,5.6665,5.6665,5.6934,5.8858,5.8973,5.8181,5.7493,5.6054,5.3912,5.0193,0.0,0.0,0.0,0.0,5.2691,5.5346,5.6819,5.7934,5.9204,6.0165,6.0319,5.8665,5.778,5.5977,0.0,5.1255,5.1045,4.835,0.0,0.0,0.0,0.0,4.7922,4.9528,5.143,5.3082,5.4374,5.5434,5.6549,5.7857,5.778,5.8088,5.9127,5.7049,5.5472,5.4818,5.2164,4.9969,4.8439,0.0,0.0,0.0,0.0,0.0,0.0,0.0,0.0,0.0,0.0,0.0,0.0,0.0,0.0,0.0,0.0,0.0,0.0,0.0,0.0,0.0,0.0,0.0,0.0,0.0,0.0,0.0,0.0,0.0,5.3004,5.5684,0.0,0.0,0.0,0.0,5.3385,5.5495,5.7996,6.0776,6.2974,6.5098,6.7114,6.8068,6.8868,6.95,6.9575,7.0263,7.1576,7.0784,7.0988,7.2052,7.1245,7.086,7.0783,7.0821,7.0783,7.0514,6.7898,6.5359,6.2935,6.1243,6.0089,5.9319,5.9319,5.9319,5.9319,5.9473,5.8973,5.8434,5.9104,5.7199,5.4327,5.2888,5.1084,0.0,0.0,5.3074,5.4731,5.6491,5.8165,5.9396,5.9473,6.0165,6.0319,5.8665,5.828,5.7203,0.0,5.2413,5.1216,4.909,0.0,4.8457,4.7556,4.7896,4.8821,5.0412,5.1775,5.3082,5.4374,5.5972,5.6973,5.7049,5.8473,5.9088,5.8396,5.8934,5.8165,5.5742,5.4741,5.3087,5.0567,4.8537,0.0,0.0,0.0,0.0,0.0,0.0,0.0,0.0,0.0,0.0,0.0,0.0,0.0,0.0,0.0,0.0,0.0,0.0,0.0,0.0,0.0,0.0,0.0,0.0,0.0,0.0,0.0,0.0,5.5611,5.8364,0.0,5.5427,5.6308,5.7087,5.7228,6.0199,6.2634,6.3986,6.6663,6.8625,6.9702,7.162,7.2383,7.1839,7.1839,7.2385,7.3388,7.252,7.2699,7.3783,7.2937,7.2283,7.1706,7.1129,7.0898,7.0821,6.9937,6.8359,6.6359,6.4128,6.3051,6.2704,6.2166,6.1627,6.1243,6.1781,6.105,5.9835,5.9294,5.7565,5.5636,5.4899,5.3975,5.3497,5.5185,5.6277,5.7277,5.9024,5.9896,6.0319,6.0319,6.055,6.0473,5.9319,5.8665,5.778,5.5972,5.4511,5.2969,5.1097,5.0368,4.9562,4.8084,4.8304,4.8929,4.9779,5.1469,5.2853,5.3605,5.5164,5.6626,5.7742,5.8396,5.8819,5.905,5.8858,5.8088,5.6588,5.5241,5.3549,5.151,4.97,4.7624,0.0,0.0,0.0,0.0,0.0,0.0,0.0,0.0,0.0,0.0,0.0,0.0,0.0,0.0,0.0,0.0,0.0,0.0,0.0,0.0,0.0,0.0,0.0,0.0,0.0,0.0,5.851,5.7703,6.1447,6.2695,5.9171,6.0786,6.2071,6.2071,6.4753,6.6843,6.7652,7.0039,7.1631,7.2168,7.4091,7.4675,7.3717,7.351,7.3727,7.4293,7.3425,7.3497,7.442,7.3803,7.3014,7.2168,7.1591,7.1168,7.0898,7.0591,7.0014,6.9013,6.6782,6.5705,6.5359,6.4474,6.382,6.3358,6.332,6.2397,6.1065,5.9881,5.8486,5.7139,5.6753,5.6061,5.5846,5.7415,5.8028,5.8602,6.0342,6.0781,6.0781,6.0781,6.0781,6.055,5.9704,5.8858,5.805,5.7165,5.5857,5.4413,5.2845,5.2256,5.1452,4.9852,4.9975,5.038,5.0644,5.2171,5.3353,5.3605,5.5126,5.6588,5.7742,5.8396,5.8819,5.9088,5.8588,5.7665,5.6203,5.5357,5.3972,5.1933,4.9733,4.7686,4.5806,0.0,0.0,0.0,0.0,0.0,0.0,0.0,0.0,0.0,0.0,0.0,0.0,0.0,0.0,0.0,0.0,0.0,0.0,0.0,0.0,0.0,0.0,0.0,5.3482,5.7519,6.0309,5.9612,6.5081,6.7393,6.3466,6.5925,6.7797,6.776,6.9013,7.0313,7.1723,7.3117,7.4121,7.4678,7.5553,7.5756,7.5091,7.4626,7.4374,7.4293,7.3501,7.3414,7.3908,7.3645,7.3053,7.2245,7.2168,7.1668,7.0821,7.0052,7.0206,7.0744,6.9052,6.7898,6.7051,6.6244,6.5897,6.5551,6.3858,6.2743,6.1897,6.105,5.9971,5.8854,5.8419,5.7411,5.6669,5.7925,5.8287,5.864,6.0367,6.0781,6.0781,6.0781,6.0781,6.055,5.9704,5.8858,5.805,5.7165,5.628,5.5308,5.4104,5.4258,5.4079,5.2805,5.2954,0.0,5.3203,5.3972,5.4511,5.4511,5.6011,5.7011,5.7049,5.855,5.9127,5.8319,5.8204,5.7088,5.4587,5.5203,5.4434,5.1972,4.8781,4.6717,4.5854,0.0,0.0,0.0,0.0,0.0,0.0,0.0,0.0,0.0,0.0,0.0,0.0,0.0,0.0,0.0,0.0,0.0,0.0,0.0,0.0,0.0,0.0,5.6271,5.6638,6.0896,6.453,6.6072,6.8348,6.9559,6.9045,6.9779,7.0073,6.9486,7.0312,7.0961,7.1125,7.2472,7.3535,7.4083,7.5941,7.637,7.5091,7.6199,7.5924,7.4293,7.5089,7.5247,7.4745,7.3914,7.336,7.3091,7.1822,7.1129,7.0898,7.0667,7.0706,7.0744,6.9052,6.8244,6.7936,6.709,6.559,6.3858,6.2781,6.1858,6.1127,6.0858,6.058,6.0252,6.0137,5.9607,5.9209,5.989,5.9817,5.9769,6.0608,6.0781,6.0781,6.0781,6.0781,6.055,5.9704,5.8858,5.805,5.7165,5.628,5.5412,5.4501,5.443,5.4182,5.3174,5.3123,0.0,5.3203,5.3972,5.4703,5.5318,5.6357,5.7473,5.8704,5.8704,5.828,5.7396,5.6203,5.5241,5.4511,5.4126,5.328,5.1933,4.9618,4.7834,0.0,0.0,0.0,0.0,0.0,0.0,0.0,0.0,0.0,0.0,0.0,0.0,0.0,0.0,0.0,0.0,0.0,0.0,0.0,0.0,0.0,0.0,5.6712,5.9832,6.1337,6.431,6.7063,6.9155,7.0403,7.1284,7.1762,7.1798,7.1615,7.1138,7.1541,7.1876,7.1926,7.3267,7.4282,7.4938,7.6799,7.7385,7.6552,7.7299,7.7036,7.5731,7.6199,7.612,7.5623,7.4873,7.4168,7.3437,7.2437,7.1591,7.0898,7.0898,7.0898,0.0,0.0,0.0,0.0,0.0,6.5436,6.3743,6.2897,6.205,6.1281,6.0935,6.0781,6.0757,6.0572,6.0311,6.0161,6.0456,6.0311,6.0189,6.0671,6.0781,6.0781,6.0781,6.0781,6.0666,6.0165,5.9127,5.8165,5.7627,5.6549,0.0,5.5088,5.5011,5.4818,5.4318,5.4241,5.4241,5.4241,5.4703,5.5318,5.6165,5.6703,5.755,5.8896,5.8588,0.0,0.0,0.0,5.4857,5.4511,5.3664,0.0,0.0,0.0,4.9948,4.8806,0.0,0.0,0.0,4.6139,4.5259,0.0,0.0,0.0,0.0,0.0,0.0,0.0,0.0,0.0,0.0,0.0,0.0,0.0,0.0,0.0,0.0,6.0529,6.4016,6.6292,6.7467,6.8641,7.0073,7.1578,7.2532,7.2642,7.2642,7.2679,7.2753,7.2789,7.3,7.3536,0.0,0.0,0.0,0.0,7.8523,7.8477,7.8237,7.7912,7.757,7.692,7.6539,7.6275,7.5993,7.5053,7.363,7.3553,7.2629,7.1206,7.1091,7.0937,7.0591,6.9013,6.8359,6.8052,6.6474,6.5359,6.4474,6.3589,0.0,0.0,6.1089,6.0781,6.0734,6.0311,6.0161,6.0161,6.0161,6.0161,6.0283,6.0671,6.0781,6.0781,6.0781,6.0781,6.0781,6.0666,5.9473,5.8396,5.8204,5.6896,5.5818,5.5703,5.5703,5.5703,5.5703,5.5703,5.5703,5.5703,5.5703,5.6049,5.7049,0.0,0.0,5.8511,5.8511,5.8088,5.7203,5.6319,5.5472,5.4664,5.4087,5.3664,5.351,5.31,5.2422,5.1471,5.0978,5.0635,5.0291,4.8347,4.6985,0.0,0.0,0.0,0.0,0.0,0.0,0.0,0.0,0.0,0.0,0.0,0.0,0.0,0.0,0.0,5.84,6.2695,6.6182,6.7283,6.9265,7.0734,7.1027,7.1945,7.2753,7.3377,7.345,7.3744,7.4404,7.4441,7.45,7.458,7.5304,7.6016,7.6614,7.8065,7.8735,7.8515,7.9799,7.928,7.6884,0.0,0.0,7.5636,7.5173,7.4784,7.4437,7.3783,7.3322,7.2937,7.2245,7.1129,6.9821,6.8821,6.7975,6.7244,6.6244,6.5359,6.4474,6.3589,6.2781,6.1935,6.1089,6.0781,6.0781,6.0671,6.0647,0.0,6.0647,6.0647,6.071,6.0757,6.0781,6.0781,6.0781,6.0781,6.0589,5.9896,5.9511,5.8858,5.7511,5.6973,5.6511,5.5818,5.5703,5.5703,5.5703,5.5703,5.5703,5.5703,5.5703,5.628,5.7896,5.805,5.8665,6.0204,5.9665,5.8934,5.8088,5.7242,5.6357,5.5511,5.6665,5.6665,5.5241,5.4507,5.3568,5.2348,5.1254,5.0873,5.1148,5.0075,4.8973,0.0,0.0,0.0,0.0,0.0,0.0,0.0,0.0,0.0,0.0,0.0,5.2637,0.0,0.0,5.9538,6.2401,6.5228,6.765,6.9265,7.0881,7.1908,7.1908,7.2606,7.3413,7.4221,7.4294,7.4478,7.4882,7.4918,7.4918,7.4918,7.5921,7.6718,7.7349,7.8742,7.9586,7.9785,8.0328,7.9628,7.7824,7.7984,7.7299,7.5964,7.5545,7.513,7.4668,7.4284,7.386,7.3437,7.2552,7.1437,7.0206,6.9398,6.8244,6.7013,6.6205,6.5359,6.4551,6.4089,6.3397,6.2551,6.1704,6.1435,6.1358,6.0935,6.0781,6.0781,6.0781,6.0781,6.0781,6.0781,6.0781,6.0781,6.0781,6.0781,6.055,5.9704,5.9165,5.8511,5.7242,5.6626,5.6203,5.578,5.5703,5.5703,5.5703,5.5703,5.5703,5.5703,5.6088,5.6857,5.8165,5.8665,5.9435,6.0704,6.0012,5.9165,5.8357,5.7896,5.7473,5.7011,5.7857,5.7896,5.7011,5.6165,5.5445,5.481,5.3722,5.312,5.2949,5.2536,5.1337,0.0,0.0,0.0,0.0,0.0,0.0,0.0,0.0,5.0692,5.3298,5.4363,5.5721,5.8657,6.0493,6.2732,6.6182,6.765,6.9082,7.1027,7.2129,7.2789,7.2973,7.3523,7.4258,7.5065,7.5139,7.5212,7.5359,7.5395,7.5395,7.5395,7.6457,7.7475,7.8217,7.9343,8.0315,8.1093,8.0463,7.9628,7.8712,7.7989,7.7113,7.6237,7.607,7.563,7.4938,7.4938,7.4476,7.3668,7.2822,7.1937,7.1052,7.009,6.8744,6.7244,6.6436,6.559,6.482,6.4666,6.4051,6.3205,6.2551,6.2089,6.1743,6.1204,6.0935,6.0781,6.0781,6.0781,6.0781,6.0781,6.0781,6.0781,6.0781,6.0781,6.0589,5.9896,5.9242,5.8511,5.7627,5.678,5.6165,5.5972,5.5818,5.5703,5.5703,5.5818,5.5934,5.5934,5.6703,5.7588,5.8434,5.9127,5.9858,6.0742,6.0165,5.9473,5.8819,5.8781,5.8781,5.8781,5.8781,5.8781,5.8781,5.778,5.7242,5.7242,5.6053,5.5134,5.4522,5.4359,5.3199,4.9646,4.9321,4.989,5.1132,5.1499,5.2711,0.0,0.0,5.6748,5.9869,6.0603,6.1227,6.3062,6.4714,6.6182,6.7357,6.9449,7.0991,7.1284,7.2606,7.3817,7.4551,7.4735,7.5102,7.5909,7.5983,7.6276,7.7011,7.7047,7.7047,7.7047,7.7182,7.7868,7.9001,7.9252,7.9847,8.1093,8.0463,7.9429,7.8088,7.7756,7.688,7.5631,7.5867,7.5938,7.5861,7.5861,7.5361,7.4514,7.3707,7.2822,7.1898,7.0321,6.9129,6.8167,6.7282,6.6436,6.5628,6.4859,6.4051,6.3281,6.3205,6.2166,6.105,6.1743,6.1396,6.0781,6.0781,6.0781,6.0781,6.0781,6.0781,6.0781,6.0781,6.0781,6.0781,6.0666,6.0589,6.0242,5.9396,5.855,5.7742,5.6973,5.6203,5.5703,5.5703,5.6357,5.6857,5.6857,5.7627,5.8473,5.9281,5.9435,5.9858,6.0742,6.0704,6.0627,6.0512,6.0512,6.0512,6.0512,6.0512,6.0512,6.0512,5.8973,5.8165,5.8165,5.576,5.4579,5.4452,5.3682,5.3203,5.3051,5.2373,5.205,0.0,5.4803,5.6124,5.8657,5.9061,5.9685,6.2475,6.3429,6.4127,6.5264,6.6806,6.8164,0.0,7.033,7.1468,7.1945,7.2973,7.3634,7.3523,7.4735,7.5909,7.6717,7.6827,7.6937,7.7304,7.7304,7.7304,7.7304,7.7304,7.771,7.8653,7.8653,7.9105,8.0007,7.9335,7.869,7.7953,7.7476,7.7092,7.6764,7.6878,7.6843,7.6746,7.6746,7.6245,7.5361,7.4053,7.3283,7.2783,7.1052,6.959,6.8282,6.7398,6.659,6.5859,6.5474,6.5128,6.4743,6.4205,6.3243,6.2243,6.2127,6.1473,6.0781,6.0781,6.0781,6.0781,6.0781,6.0781,6.0781,6.0781,6.0781,6.0666,6.0165,6.005,5.9781,5.8973,5.8127,5.7434,5.7049,5.628,5.5857,5.6357,5.6319,5.6434,5.6934,5.7742,5.8819,6.0127,6.0242,6.0396,6.0781,6.0781,6.0781,6.0781,6.0781,6.0781,6.0781,6.0781,6.0781,6.0781,5.9627,5.8781,5.8319,5.6469,5.5223,5.4484,5.3833,5.3404,5.4128,5.4069,0.0,5.5868,5.7813,5.9538,6.0382,6.119,6.2328,6.4347,6.5228,6.5888,6.6659,6.7944,6.9155,6.9963,7.077,7.1578,7.2386,7.301,7.323,7.2863,7.4368,7.5836,7.69,7.7194,7.7304,7.7304,7.7304,7.7304,7.7304,7.7304,7.7629,7.8309,7.8309,7.8551,7.9198,7.8602,7.8125,7.7758,7.7027,7.6766,7.6872,7.6922,7.7058,7.7284,7.7053,7.6592,7.5861,7.4207,7.3514,7.3322,7.1591,7.0014,6.8667,6.7782,6.6782,6.5897,6.5897,6.5743,6.5474,6.5089,6.4051,6.2897,6.2551,6.1666,6.0781,6.0781,6.0781,6.0781,6.0781,6.0781,6.0781,6.0781,6.0781,6.0627,5.9973,5.9858,5.9704,5.9088,5.828,5.7703,5.7703,5.6973,5.6626,5.7242,5.6819,5.6742,5.7588,5.8434,5.9435,6.0666,6.0781,6.0781,6.0781,6.0781,6.0781,6.0781,6.0781,6.0781,6.0781,6.0781,6.0781,6.0781,5.9935,5.9204,5.8627,5.7124,5.5855,5.4824,5.4125,5.3604,5.1256,0.0,5.5904,5.7519,6.0309,6.2879,6.3759,6.4567,6.5411,6.6256,6.6439,6.6696,6.7504,6.8348,6.9155,6.9963,7.077,7.1578,7.2386,7.2532,7.2826,7.356,7.3707,7.4404,0.0,7.6864,7.7304,7.7304,7.7304,7.7304,7.7304,7.7304,7.7629,7.8309,7.8309,7.8551,7.9198,7.8602,7.7899,7.7095,7.626,7.544,7.4723,7.5008,7.5944,7.7246,7.6399,7.6015,7.5861,7.4207,7.3514,7.3322,7.1591,7.0398,6.9552,6.8667,6.7321,6.5897,6.5897,6.5359,6.4782,6.559,6.4166,6.2281,6.3051,6.2127,6.0781,6.0781,6.0781,6.0781,6.0781,6.0781,6.0781,6.0781,6.0781,6.0781,6.0781,6.0742,6.0742,6.0742,6.0012,5.9435,5.9435,5.8781,5.8242,5.828,5.8242,5.8511,5.9319,6.0204,6.0742,6.0781,6.0781,6.0781,6.0781,6.0781,6.0781,6.0781,6.0781,6.0781,6.0781,6.0781,6.0781,6.0781,5.9935,5.9473,5.9473,5.7392,5.6159,5.5648,5.435,5.3604,5.3634,0.0,5.851,6.0676,6.2842,6.4677,6.5485,6.6292,6.6953,6.7247,6.5999,6.4971,6.5264,6.5962,6.6769,6.7577,6.9743,7.1578,7.2386,7.2973,7.301,7.2202,7.4001,0.0,0.0,0.0,0.0,7.7268,7.7304,7.7304,7.7304,7.7304,7.7426,7.7629,7.7629,7.7768,7.7923,7.7768,7.7698,7.7899,7.7992,7.7429,7.6275,7.7207,7.7299,7.6714,7.6817,7.6207,7.5053,7.3937,7.3168,7.2514,7.136,7.0398,6.959,6.8744,6.7667,6.6628,6.609,6.5705,6.5513,6.5782,6.4551,6.2935,6.3243,6.2127,6.0781,6.0781,6.0781,6.0781,6.0781,6.0781,6.0781,6.0781,6.0781,6.0781,6.0781,6.0781,6.0781,6.0781,6.0089,5.9511,5.9511,5.8819,5.8473,5.9011,5.9088,5.9204,5.9473,6.0242,6.0781,6.0781,6.0781,6.0781,6.0781,6.0781,6.0781,6.0781,6.0781,6.0781,6.0781,6.0781,6.0781,6.0781,6.0512,6.0089,5.9511,5.854,5.7528,5.6484,5.5246,5.442,5.5794,5.8217,6.0639,6.3099,6.4714,6.5925,6.6733,6.732,6.7614,6.732,6.5558,6.398,6.3686,6.3833,6.4237,6.5044,6.7173,6.9412,7.1358,7.1578,7.1798,7.2496,7.3891,7.4735,0.0,0.0,0.0,7.7268,7.7304,7.7304,7.7304,7.7304,7.7304,7.7304,7.7304,7.7304,7.7304,7.7304,7.7363,7.7515,7.7632,7.7289,7.6648,7.7068,7.696,7.6386,7.637,7.5745,7.463,7.3514,7.2706,7.2091,7.1245,7.0591,6.9975,6.8821,6.8052,6.7398,6.6282,6.5897,6.5897,6.5897,6.4936,6.3782,6.3782,6.2589,6.1243,6.1243,6.105,6.0781,6.0781,6.0781,6.0781,6.0781,6.0781,6.0781,6.0781,6.0781,6.0781,6.0781,6.0358,5.9973,5.9973,5.955,5.9358,5.9896,5.9973,5.9973,5.9973,6.0435,6.0781,6.0781,6.0781,6.0781,6.0781,6.0781,6.0781,6.0781,6.1089,6.1127,6.0819,6.1089,6.1127,6.0819,6.0781,6.0512,5.9973,5.9396,5.8482,5.7352,5.6249,5.5432,5.7483,5.9905,6.2365,6.4751,6.5962,6.6769,6.7504,6.765,6.7393,6.6549,6.5007,6.3576,0.0,0.0,6.1814,6.2658,6.3723,6.5815,6.9743,6.9045,6.9816,0.0,0.0,0.0,0.0,0.0,0.0,7.7268,0.0,7.7304,7.7304,7.7304,7.7304,7.7304,7.7304,7.7304,7.7304,7.7304,7.6937,7.6166,7.5359,7.5289,7.5813,7.4769,7.5002,7.6159,7.5111,7.4639,7.4437,7.286,7.2168,7.2052,7.1206,7.0898,7.0706,6.9013,6.8398,6.8167,6.6474,6.5897,6.5897,6.5897,6.532,6.4589,6.4589,6.3435,6.2089,6.2127,6.1512,6.0819,6.0858,6.0819,6.0781,6.0781,6.0781,6.0781,6.0781,6.0781,6.0781,6.0781,6.0781,6.0781,6.0781,6.0781,6.0781,6.0781,6.0781,6.0781,6.0781,6.0781,6.0781,6.0781,6.0781,6.0819,6.0858,6.0819,6.0819,6.0935,6.1666,6.1743,6.0973,6.1704,6.1743,6.0858,6.0858,6.0819,6.0781,5.995,5.9087,5.8253,5.7356,5.6482,5.9318,6.2034,6.464,6.5888,6.6806,6.743,6.765,6.7247,6.6402,6.5007,6.2438,6.0015,0.0,0.0,0.0,6.2585,6.6549,0.0,7.2459,7.345,0.0,7.4845,0.0,7.6093,7.6093,7.6644,0.0,0.0,7.7304,7.7304,7.7304,7.7304,7.7304,7.7304,7.7304,7.7304,7.7304,7.7304,7.7231,7.7011,7.6203,7.5588,7.5158,7.4755,7.4272,7.3863,7.4025,7.3629,7.2783,7.236,7.1822,7.1206,7.0975,7.0898,7.0706,6.9013,6.8398,6.8167,6.6474,6.5897,6.5897,6.5897,6.532,6.4589,6.4589,6.3435,6.2204,6.282,6.1935,6.0935,6.1589,6.1281,6.0781,6.0781,6.0781,6.0781,6.0781,6.0781,6.0781,6.0781,6.0781,6.0781,6.0781,6.0781,6.0781,6.0781,6.0781,6.0781,6.0781,6.0781,6.0781,6.0781,6.0781,6.105,6.1704,6.1166,6.132,6.2589,6.232,6.2281,6.2666,6.2897,6.2627,6.1781,6.1781,6.1435,6.0781,6.0226,5.9672,5.905,5.7903,5.7026,6.1484,6.3906,6.6035,6.6843,6.7357,6.7393,6.6366,6.5778,6.4787,6.2438,5.9942,0.0,5.6492,0.0,0.0,0.0,0.0,0.0,7.2275,7.3413,7.4478,0.0,7.646,0.0,7.6644,7.7047,7.7304,0.0,7.7304,7.7304,7.7304,7.7304,7.7304,7.7304,7.7304,7.7304,7.7304,7.7304,7.7304,7.7304,7.6497,7.5689,7.4882,7.4661,7.3889,7.2695,0.0,7.3132,7.1858,7.2112,7.1668,7.0898,7.0898,7.0898,7.0744,6.9436,6.8744,6.8205,6.6898,6.6205,6.5897,6.5897,6.5551,6.5166,6.5166,6.4243,6.3205,6.3281,6.2358,6.1396,6.1512,6.1166,6.0781,6.0781,6.0781,6.0781,6.0781,6.1089,6.1473,6.182,6.1897,6.1897,6.1897,6.1897,6.1781,6.1396,6.1358,6.1358,6.1358,6.105,6.0781,6.0781,6.0781,6.1127,6.2012,6.1627,6.1935,6.3243,6.3243,6.3243,6.332,6.3666,6.3474,6.2627,6.2627,6.2204,6.1358,6.1109,6.0417,5.9389,5.8688,5.8002,6.3759,6.5448,6.6696,6.7504,6.763,6.6985,6.4655,6.4007,6.2904,5.9575,0.0,5.6345,5.5427,5.6675,5.8253,5.9501,0.0,6.7063,7.1211,7.1872,7.3303,7.69,7.668,7.6533,7.7268,7.7304,7.7304,7.7304,7.7304,7.7304,7.7304,7.7304,7.7304,7.7304,7.7304,7.7304,7.7304,7.7304,7.7304,7.7304,7.6497,7.5689,7.4882,7.4643,7.3624,7.2261,7.3298,7.2846,7.1426,7.2101,7.1783,7.0898,7.1014,7.1014,7.0783,7.0014,6.9206,6.8436,6.7436,6.6628,6.6051,6.5936,6.5897,6.5897,6.5897,6.5282,6.4474,6.382,6.2974,6.2089,6.1473,6.1127,6.1012,6.1089,6.105,6.1012,6.1089,6.1743,6.2474,6.3166,6.332,6.332,6.332,6.332,6.3051,6.2358,6.2243,6.2243,6.2243,6.1396,6.0819,6.0973,6.0973,6.1281,6.205,6.2204,6.2589,6.3435,6.4166,6.432,6.3666,6.4359,6.4359,6.3512,6.3474,6.3012,6.2089,6.2065,6.1152,5.9492,5.9354,5.8874,6.5595,6.6292,6.6696,6.7504,6.7516,6.6727,6.4609,6.339,0.0,0.0,5.6455,5.5354,5.3885,5.5464,5.8143,6.163,0.0,0.0,0.0,0.0,7.5763,0.0,0.0,0.0,0.0,0.0,0.0,0.0,0.0,7.7304,7.7304,7.7304,7.7304,7.7304,7.7304,7.7304,7.7304,7.7304,7.7304,7.7304,7.6497,7.5689,7.4882,7.4154,7.3222,7.2162,7.2837,0.0,7.143,7.2724,7.236,7.0975,7.1668,7.1514,7.0783,7.0014,6.959,6.9244,6.7628,6.7013,6.6782,6.6128,6.5897,6.5897,6.5897,6.5282,6.4705,6.5282,6.432,6.3205,6.3782,6.2897,6.205,6.2704,6.2358,6.205,6.2704,6.3012,6.3128,6.3281,6.332,6.332,6.332,6.332,6.3243,6.3128,6.3089,6.3089,6.3089,6.1743,6.1089,6.1781,6.1858,6.1935,6.2089,6.2704,6.3474,6.432,6.4512,6.4859,6.5436,6.559,6.5243,6.4397,6.4359,6.3628,6.2089,6.1693,6.1,5.9946,5.9176,5.8716,6.6182,6.6806,6.7279,6.7973,6.7332,6.5877,6.3197,0.0,0.0,0.0,5.462,5.4106,5.3335,5.517,0.0,5.9942,0.0,0.0,0.0,0.0,0.0,0.0,0.0,0.0,0.0,0.0,0.0,0.0,0.0,7.7304,7.7304,7.7304,7.7304,7.7304,7.7304,7.7304,7.7304,7.7304,7.7304,7.7304,7.6937,7.6313,7.5506,7.4698,7.3587,7.2351,7.3288,0.0,7.0991,7.2786,7.2476,7.0937,7.136,7.1283,7.086,7.0475,7.0052,6.959,6.8744,6.7859,6.7051,6.6628,6.6244,6.5897,6.5897,6.559,6.5282,6.5243,6.4628,6.3974,6.3935,6.332,6.282,6.3205,6.3012,6.2935,6.382,6.3974,6.4128,6.4551,6.4666,6.4666,6.4666,6.4666,6.4512,6.4051,6.3974,6.3974,6.3974,6.3281,6.2743,6.2743,6.2704,6.2897,6.3358,6.3743,6.4359,6.5205,6.5282,6.5474,6.5859,6.5897,6.5705,6.5282,6.5282,6.4666,6.3397,6.2708,6.183,6.0751,5.9616,5.8951,6.6806,6.7577,6.8288,6.8703,6.744,6.5284,6.2089,5.9771,0.0,5.4031,5.3125,5.3004,5.3188,0.0,5.6455,0.0,6.0823,6.4714,0.0,0.0,0.0,0.0,0.0,0.0,0.0,0.0,0.0,0.0,0.0,0.0,7.7304,7.7304,7.7304,7.7304,7.7304,7.7304,7.7304,7.7304,7.7304,7.7304,7.7304,7.69,7.6056,7.5285,7.4111,7.2773,7.3821,0.0,7.1165,7.322,7.3014,7.1475,7.1475,7.1321,7.1168,7.0975,7.0514,6.9937,6.9744,6.8783,6.7628,6.7436,6.6705,6.5897,6.5897,6.5897,6.5743,6.5051,6.4897,6.4705,6.4051,6.3743,6.3589,6.3589,6.3743,6.4089,6.4936,6.5013,6.5128,6.5974,6.6013,6.5936,6.6128,6.6167,6.5936,6.5243,6.5282,6.5359,6.5166,6.5282,6.5166,6.4474,6.4089,6.3974,6.432,6.4666,6.5166,6.5859,6.6051,6.6244,6.6436,6.6436,6.6359,6.6167,6.6167,6.5628,6.4589,6.3897,6.2887,6.1545,6.0264,5.94,6.8458,6.9265,6.9834,6.9669,6.8128,6.5798,6.256,0.0,5.6497,5.4205,5.2892,5.2344,5.3078,5.3408,0.0,0.0,0.0,6.2108,0.0,7.0881,0.0,0.0,0.0,0.0,0.0,0.0,0.0,0.0,0.0,0.0,7.7304,7.7304,7.7304,7.7304,7.7304,7.7304,7.7304,7.7304,7.7304,7.7304,7.7304,7.69,7.6056,7.5285,7.4441,7.3639,7.4084,0.0,0.0,7.4944,7.4784,7.3283,7.3283,7.2783,7.1975,7.1206,7.086,7.0706,6.9937,6.959,6.9321,6.8552,6.7205,6.5897,6.5897,6.5897,6.5859,6.5782,6.5782,6.5743,6.5667,6.5051,6.4474,6.4474,6.5089,6.5859,6.6705,6.6282,6.6013,6.6821,6.6397,6.6128,6.6859,6.6974,6.6974,6.6859,6.7552,6.7782,6.6974,6.7552,6.8013,6.7936,6.6551,6.5051,6.3551,6.4859,6.582,6.5897,6.659,6.7321,6.8129,6.8167,6.7821,6.7013,6.6974,6.6205,6.4589,6.4512,6.3641,6.2002,6.1033,6.0144,6.7834,6.9486,7.0643,6.988,6.7232,6.4187,6.1988,0.0,5.4798,5.3674,5.2692,5.2234,5.3078,5.3225,5.3628,0.0,0.0,0.0,6.3576,6.5375,6.8238,0.0,0.0,0.0,0.0,0.0,0.0,0.0,0.0,0.0,7.7304,7.7304,7.7304,7.7304,7.7304,7.7304,7.7304,7.7304,7.7304,7.7304,7.7304,7.69,7.6056,7.5285,7.4478,7.375,7.4121,0.0,0.0,7.4599,7.4245,7.2706,7.2706,7.2168,7.136,7.1014,7.0898,7.086,7.0514,7.0129,6.9629,6.9321,6.8013,6.6628,6.6628,6.6282,6.5897,6.5897,6.5897,6.5897,6.5897,6.5628,6.5397,6.5397,6.5628,6.5974,6.632,6.6513,6.6705,6.7051,6.7282,6.7513,6.7821,6.7898,6.7898,6.7898,6.8167,6.8282,6.7936,6.8629,6.8975,6.8475,6.7821,6.7128,6.6436,6.7013,6.7398,6.7398,6.7705,6.8052,6.8398,6.8398,6.8244,6.7898,6.7898,6.7282,6.609,6.5628,6.4782,6.3589,6.2383,6.1245,6.6843,6.9119,7.079,7.0177,6.6751,6.3146,0.0,0.0,5.3795,5.3444,5.2651,5.2234,5.3078,5.3225,5.3225,5.3225,5.4546,5.6712,5.9942,6.1814,6.4861,0.0,0.0,0.0,0.0,0.0,0.0,0.0,0.0,0.0,7.757,7.7426,7.7304,7.7304,7.7084,7.7084,7.7304,7.7084,7.6974,7.6974,7.7194,7.6754,7.5726,7.5175,7.4478,7.3692,7.3927,0.0,0.0,7.4049,7.3706,7.2552,7.2283,7.1822,7.1245,7.1014,7.0898,7.0898,7.0898,7.0514,7.0014,6.9783,6.8706,6.7436,6.7167,6.6551,6.5897,6.5897,6.5897,6.5897,6.5897,6.5897,6.5897,6.5897,6.5897,6.6051,6.6513,6.6859,6.7244,6.7782,6.8167,6.8475,6.8744,6.8783,6.8783,6.8783,6.9013,6.9052,6.8821,6.9552,6.9821,6.9206,6.9129,6.8936,6.8436,6.8398,6.8513,6.8783,6.8783,6.8898,6.9129,6.9129,6.9052,6.8783,6.8783,6.8359,6.7475,6.6667,6.582,6.4974,6.3473,6.1981,6.5852,6.8274,7.0238,7.0772,6.7161,6.3233,0.0,0.0,5.387,5.3833,5.2819,5.2234,5.3078,5.3225,5.3225,5.3225,5.4546,5.6712,5.9942,6.1814,0.0,0.0,0.0,0.0,0.0,0.0,0.0,0.0,0.0,0.0,7.8255,7.7651,7.7304,7.7304,7.6533,7.6497,7.7304,7.6533,7.613,7.613,7.6937,7.6497,7.4918,7.4918,7.4478,7.3692,0.0,0.0,0.0,7.365,7.3762,7.3399,7.2552,7.2168,7.2091,7.1206,7.0898,7.0898,7.0898,7.0898,7.0744,6.9975,6.909,6.8244,6.7359,6.6551,6.5897,6.5897,6.5897,6.5897,6.5897,6.5897,6.5897,6.5897,6.5897,6.6359,6.8013,6.7705,6.759,6.936,6.8975,6.8667,6.9552,6.9706,6.9706,6.9706,7.036,7.0591,6.9783,7.0398,7.0898,7.086,7.086,7.0206,6.8552,6.8398,6.8783,6.9629,6.9706,7.0052,7.0821,7.086,7.0514,6.9706,6.9706,6.9244,6.8398,6.7513,6.6667,6.5859,6.3959,6.2092,6.1667,6.3686,6.5022,6.4648,6.2103,5.9493,5.8603,5.541,5.2592,5.2592,5.2247,5.2087,5.2344,5.2821,5.3408,5.3922,5.4913,5.6124,5.774,0.0,0.0,0.0,0.0,0.0,0.0,0.0,0.0,0.0,0.0,0.0,7.8309,7.757,7.6975,7.6497,7.679,7.6533,7.5689,7.5946,7.5836,7.5285,7.5542,7.5102,7.4074,7.4074,7.3634,0.0,0.0,7.3342,7.3372,7.4332,7.3979,7.2926,7.3014,7.236,7.1283,7.1014,7.0898,7.0898,7.0898,7.0898,7.0783,6.9975,6.9513,6.9129,6.8244,6.7013,6.5897,6.5897,6.5897,6.6013,6.659,6.6705,6.6859,6.7475,6.7628,6.7744,6.8282,6.8667,6.9052,6.959,6.9937,7.0206,7.0475,7.0514,7.0514,7.0514,7.0744,7.0821,7.0552,7.0744,7.1129,7.1706,7.1245,7.0706,7.0167,7.0129,7.0244,7.0514,7.0514,7.0629,7.0898,7.1475,7.1668,7.1398,7.1398,7.0975,7.0129,6.9283,6.7955,6.62,6.3766,6.2598,5.8143,6.0456,6.1851,6.163,5.9575,0.0,0.0,0.0,5.1977,5.1977,5.1977,5.1977,5.1977,5.2674,5.3371,5.3885,5.4876,5.5978,5.7116,0.0,0.0,0.0,0.0,0.0,0.0,0.0,0.0,0.0,0.0,0.0,7.7415,7.7191,7.6495,7.5212,7.5689,7.5763,7.5359,7.5249,7.4955,7.4441,7.4771,7.4331,7.3266,7.3774,7.3479,0.0,7.3119,7.3168,0.0,7.3522,7.3074,7.2001,7.239,7.186,7.0898,7.0898,7.0898,7.0898,7.0898,7.0898,7.0783,6.9975,6.9475,6.9129,6.8552,6.7436,6.6359,6.6359,6.6359,6.6551,6.7359,6.759,6.7744,6.8282,6.8398,6.8513,6.8821,6.9321,6.9783,7.009,7.0552,7.1014,7.1321,7.1398,7.1398,7.1398,7.1398,7.1283,7.0937,7.1206,7.1475,7.1668,7.1514,7.1398,7.1398,7.1091,7.0898,7.0898,7.0898,7.1052,7.136,7.1898,7.2206,7.2206,7.2206,7.1783,7.0898,6.9875,6.8418,6.6508,6.4316,6.3461,0.0,5.796,5.9905,6.0713,5.8621,0.0,0.0,0.0,0.0,5.183,5.1903,5.1977,5.194,5.2637,5.3225,5.3298,5.4626,5.625,5.7904,6.1091,0.0,0.0,0.0,0.0,0.0,0.0,0.0,0.0,0.0,0.0,7.5977,7.6625,7.5993,7.3876,7.367,7.4331,7.5836,7.4404,7.367,7.3597,7.4368,7.3964,7.261,7.3898,7.3808,0.0,7.3172,7.2753,7.1745,7.1831,7.152,7.0969,7.1025,7.1014,7.0898,7.0898,7.0898,7.0898,7.0898,7.086,7.0706,6.9937,6.9129,6.8398,6.8398,6.7782,6.709,6.7167,6.7128,6.7321,6.8244,6.8513,6.8513,6.8552,6.859,6.8821,6.9629,6.9783,7.0014,7.0821,7.0975,7.1283,7.2129,7.2283,7.2283,7.2206,7.2245,7.1975,7.1091,7.1745,7.2014,7.1245,7.1822,7.2322,7.236,7.1475,7.0937,7.0975,7.0937,7.1283,7.2168,7.2245,7.2322,7.236,7.2322,7.186,7.0975,6.952,6.8139,6.686,6.5496,6.4614,5.0986,0.0,5.3261,5.4069,5.3225,5.238,0.0,0.0,0.0,0.0,0.0,5.1793,5.1206,5.2234,5.3408,5.4032,5.5258,5.6955,5.9185,0.0,0.0,0.0,0.0,0.0,0.0,0.0,0.0,0.0,0.0,7.674,7.5939,7.5866,7.5508,7.4647,7.3413,7.2973,7.334,7.356,7.3377,7.2789,7.2973,7.3074,7.3224,7.3564,7.3476,7.3224,7.3341,7.3001,7.2351,7.3288,7.2834,7.1598,7.2548,7.2091,7.0898,7.0898,7.0898,7.0898,7.0898,7.0514,6.9937,6.9744,6.9129,6.8398,6.8398,6.7782,6.7244,6.7898,6.7628,6.7436,6.9013,6.9398,6.9552,7.0167,7.0321,7.036,7.0552,7.0629,7.086,7.1745,7.1898,7.2168,7.3053,7.3206,7.2976,7.2283,7.2783,7.2899,7.2014,7.2668,7.336,7.3745,7.3437,7.3437,7.4053,7.2129,7.1168,7.186,7.1283,7.1283,7.2168,7.2822,7.3476,7.4091,7.3514,7.2783,7.1898,6.9865,6.8517,6.7728,6.6437,6.5411,4.9003,5.0141,5.1536,5.2344,5.194,5.1573,0.0,0.0,0.0,0.0,0.0,0.0,5.0875,5.2417,5.3885,5.4326,5.6084,5.8679,0.0,0.0,0.0,0.0,0.0,0.0,0.0,0.0,0.0,0.0,0.0,7.5881,7.4821,7.522,7.5089,7.4275,7.3369,7.2945,7.3046,7.312,7.2936,7.2496,7.2496,7.2816,7.3391,7.3276,7.3089,7.2882,7.3089,7.2435,7.1279,7.2331,7.2057,7.1029,7.1675,7.1526,7.0898,7.0898,7.0898,7.0898,7.0898,7.0591,7.0244,7.0244,6.9937,6.9552,6.9552,6.8975,6.8321,6.8398,6.8359,6.859,6.9898,7.0244,7.036,7.0783,7.0898,7.0898,7.0898,7.1206,7.1629,7.2091,7.2514,7.3053,7.3899,7.4053,7.3899,7.3437,7.3745,7.3745,7.2899,7.3553,7.4091,7.413,7.4091,7.4245,7.4668,7.3091,7.2129,7.2206,7.2129,7.2283,7.2783,7.3591,7.4284,7.4707,7.3899,7.3283,7.2783,7.0936,6.9771,6.924,6.7448,6.6387,4.8269,5.0215,5.227,5.2564,5.2123,5.183,0.0,0.0,0.0,0.0,0.0,0.0,0.0,0.0,0.0,0.0,0.0,0.0,0.0,0.0,0.0,0.0,0.0,0.0,0.0,0.0,0.0,0.0,0.0,7.4882,7.3313,7.4573,7.4657,7.3327,7.3341,7.3379,7.3303,7.2789,7.2496,7.2496,7.2573,7.2869,7.3366,7.3176,7.2799,7.2276,0.0,0.0,6.9964,7.0623,7.0605,7.0144,7.0251,7.0547,7.0898,7.0898,7.0898,7.0898,7.0744,7.0706,7.0706,7.0706,7.0706,7.0706,7.0706,7.0321,6.9706,6.8859,6.9129,6.9898,7.0706,7.0898,7.0898,7.0898,7.0898,7.0937,7.1052,7.1668,7.2283,7.2514,7.3168,7.3937,7.4784,7.4899,7.4861,7.4707,7.4822,7.4591,7.3783,7.4399,7.463,7.3937,7.4476,7.4899,7.4899,7.4284,7.3514,7.2629,7.3168,7.3553,7.3668,7.4476,7.4899,7.4899,7.4091,7.3668,7.3668,7.2225,7.1251,7.0642,6.8591,6.7576,4.8122,5.0618,5.2564,5.0618,5.0031,5.0178,0.0,0.0,0.0,0.0,0.0,0.0,0.0,0.0,0.0,0.0,0.0,0.0,0.0,0.0,0.0,0.0,0.0,0.0,0.0,0.0,0.0,0.0,0.0,7.3432,7.2686,7.3811,7.3944,7.2686,7.3119,7.286,7.1688,7.2239,7.2496,7.2496,7.305,7.3217,7.3107,7.3533,7.3307,7.251,0.0,7.1494,7.0697,7.0895,7.0758,7.0493,7.1022,7.1083,7.0898,7.0898,7.0898,7.0783,7.0129,6.9898,6.9898,6.9898,6.9898,6.9898,6.9898,7.0283,7.0552,6.9744,6.959,6.9898,7.0706,7.0898,7.0898,7.0898,7.0898,7.1091,7.1822,7.2091,7.2629,7.4053,7.4437,7.4784,7.5668,7.5784,7.5553,7.4822,7.5322,7.5476,7.463,7.5284,7.5745,7.563,7.5745,7.5784,7.5784,7.5707,7.5245,7.4361,7.3822,7.3822,7.4476,7.5361,7.5784,7.5784,7.4938,7.4514,7.4514,7.288,7.1796,7.1248,6.9697,6.8866,4.7425,4.9407,5.1096,5.0398,5.1536,5.2931,0.0,0.0,0.0,0.0,0.0,0.0,0.0,0.0,0.0,0.0,0.0,0.0,0.0,0.0,0.0,0.0,0.0,0.0,0.0,0.0,0.0,0.0,0.0,0.0,7.2368,7.3569,7.3613,7.2186,7.281,7.2694,7.1722,7.1342,7.1211,7.1211,7.1913,7.2311,7.2369,7.2162,7.2016,7.1929,0.0,7.0818,6.9666,7.0113,7.0114,6.9879,7.0156,7.0544,7.0898,7.0898,7.0898,7.086,7.0475,7.036,7.036,7.036,7.036,7.036,7.036,7.0591,7.0937,7.1014,7.0706,7.0437,7.0783,7.0898,7.1014,7.1475,7.1591,7.1822,7.2706,7.3245,7.3783,7.4553,7.5091,7.5515,7.5938,7.6015,7.5861,7.5476,7.5745,7.5861,7.5438,7.5745,7.6015,7.6015,7.6015,7.6015,7.6015,7.6015,7.5822,7.5438,7.463,7.4553,7.5361,7.5784,7.6015,7.6015,7.563,7.5399,7.5399,7.4168,7.3269,7.2688,7.1331,7.0497,4.6911,4.8453,5.0031,5.0655,0.0,0.0,0.0,0.0,0.0,0.0,0.0,0.0,0.0,0.0,0.0,0.0,0.0,0.0,0.0,0.0,0.0,0.0,0.0,0.0,0.0,0.0,0.0,0.0,0.0,0.0,7.2021,7.3147,7.3093,7.1626,7.2234,7.2191,7.1516,7.0602,7.0183,7.0403,7.1065,7.1355,7.1293,7.1025,7.0951,7.1086,7.1014,7.0195,6.8922,6.9424,6.9541,6.9511,6.9511,7.0061,7.0898,7.0898,7.0898,7.0898,7.0898,7.0898,7.0898,7.0898,7.0898,7.0898,7.0898,7.0898,7.1052,7.1706,7.1398,7.0975,7.1398,7.136,7.136,7.2052,7.2206,7.2437,7.3322,7.413,7.4784,7.4976,7.5553,7.6015,7.6015,7.6015,7.6015,7.6015,7.6015,7.6015,7.6015,7.6015,7.6015,7.6015,7.6169,7.6284,7.6284,7.613,7.6015,7.6015,7.5361,7.5284,7.5976,7.6015,7.6015,7.6015,7.6015,7.6015,7.6015,7.513,7.4482,7.4045,7.2623,7.1864,4.6911,4.8893,5.0729,0.0,0.0,0.0,0.0,0.0,0.0,0.0,0.0,0.0,0.0,0.0,0.0,0.0,0.0,0.0,0.0,0.0,0.0,0.0,0.0,0.0,0.0,0.0,0.0,0.0,0.0,0.0,7.1414,7.1969,7.1913,7.1018,7.1056,7.072,6.9889,7.0048,7.0477,7.1211,7.1583,7.1118,6.992,7.1391,7.1367,7.0171,7.0171,7.0099,6.9918,6.951,6.9588,7.0061,7.0061,7.0394,7.0898,7.0898,7.0898,7.0898,7.0898,7.0898,7.0898,7.0898,7.0898,7.0898,7.0898,7.0898,7.0898,7.0975,7.0937,7.1283,7.2899,7.2706,7.2129,7.2168,7.2206,7.2437,7.3322,7.413,7.4938,7.5745,7.5976,7.6015,7.6015,7.6015,7.6015,7.6015,7.6015,7.6015,7.6015,7.6015,7.6015,7.6015,7.6707,7.7207,7.7207,7.6476,7.6015,7.6015,7.5938,7.5938,7.6015,7.6015,7.6015,7.6015,7.6015,7.6015,7.6015,7.513,7.4678,7.461,7.3204,7.2538,4.603,4.8163,0.0,0.0,0.0,0.0,0.0,0.0,0.0,0.0,0.0,0.0,0.0,0.0,0.0,0.0,0.0,0.0,0.0,0.0,0.0,0.0,0.0,0.0,0.0,0.0,0.0,0.0,0.0,0.0,6.9853,7.1168,7.1171,6.948,7.0263,7.0421,6.9703,6.8978,6.9009,6.9816,7.0288,6.9821,6.872,7.022,7.0532,6.9864,7.0392,7.0394,7.0095,6.9883,6.9918,7.0129,7.0463,7.0748,7.0898,7.0898,7.0898,7.0898,7.0898,7.0898,7.0898,7.0898,7.0898,7.0898,7.0898,7.0898,7.1014,7.1552,7.2091,7.2552,7.2668,7.2437,7.2437,7.3514,7.3745,7.3976,7.4861,7.5284,7.563,7.5938,7.6015,7.6015,7.6015,7.6015,7.6015,7.6015,7.6015,7.6015,7.6015,7.6015,7.6207,7.6746,7.7092,7.7284,7.7284,7.6976,7.6592,7.6015,7.6515,7.6553,7.6015,7.7015,7.7323,7.6823,7.6823,7.6823,7.6823,7.5938,7.5515,7.5515,7.4609,7.4083,4.6176,4.79,4.9551,0.0,0.0,0.0,0.0,0.0,0.0,0.0,0.0,0.0,0.0,0.0,0.0,0.0,0.0,0.0,0.0,0.0,0.0,0.0,0.0,0.0,0.0,0.0,0.0,0.0,0.0,7.0656,6.9471,7.0691,7.0663,6.9058,6.9627,6.9842,6.9573,6.8343,6.7981,6.8531,6.9272,6.9109,6.8199,6.9652,7.0157,6.9884,7.0574,7.0681,7.0362,7.0362,7.0362,7.0362,7.0748,7.0898,7.0898,7.0898,7.0898,7.0898,7.0898,7.0898,7.0898,7.0898,7.0898,7.0898,7.0898,7.1091,7.1437,7.2014,7.2822,7.3437,7.3091,7.2976,7.3283,7.4437,7.4707,7.4861,7.5476,7.5822,7.6015,7.6015,7.6015,7.6015,7.6015,7.6015,7.6015,7.6015,7.6015,7.6092,7.6361,7.6399,7.6823,7.7977,7.7823,7.7784,7.8054,7.7823,7.74,7.6823,7.7592,7.7592,7.6476,7.7746,7.8246,7.7669,7.7669,7.7669,7.7669,7.7092,7.6669,7.6399,7.6005,7.5441,4.7789,4.8397,0.0,0.0,0.0,0.0,0.0,0.0,0.0,0.0,0.0,0.0,0.0,0.0,0.0,0.0,0.0,0.0,0.0,0.0,0.0,0.0,0.0,0.0,0.0,0.0,0.0,7.1643,7.1685,7.1308,7.0516,7.0479,7.0383,7.0095,6.9064,6.875,6.9272,6.821,6.7687,6.7741,6.8795,6.9021,6.8567,7.0162,7.0622,7.0129,7.0652,7.0898,7.0898,7.0898,7.0898,7.0898,7.0898,7.0898,7.0898,7.0898,7.0898,7.0898,7.0898,7.0898,7.0898,7.0898,7.0898,7.0898,7.0898,7.1514,7.2206,7.2206,7.2822,7.3707,7.4514,7.4707,7.4707,7.4707,7.4707,7.4707,7.4707,7.5399,7.6015,7.6015,7.6015,7.6015,7.6015,7.6015,7.6015,7.6015,7.6015,7.6322,7.7169,7.7323,7.7938,7.9631,7.9015,7.8861,7.9746,7.9015,7.8515,7.8477,7.9323,7.9054,7.7361,7.8092,7.8515,7.8515,7.8515,7.8515,7.8515,7.8477,7.8092,7.7323,7.7284,7.653,4.6471,4.8241,0.0,0.0,0.0,0.0,0.0,0.0,0.0,0.0,0.0,0.0,0.0,0.0,0.0,0.0,0.0,0.0,0.0,0.0,0.0,0.0,0.0,0.0,0.0,0.0,6.8634,7.0172,6.9924,6.9664,6.9652,7.0005,7.0004,6.955,6.9231,6.8935,6.875,6.8047,6.7687,6.7741,6.8795,6.8929,6.8203,7.0063,7.0497,6.9846,7.0574,7.0898,7.0898,7.0898,7.0898,7.0898,7.0898,7.0898,7.0898,7.0898,7.0898,7.0898,7.0898,7.0898,7.0898,7.0898,7.0898,7.1014,7.1629,7.1975,7.2322,7.2937,7.3707,7.4399,7.463,7.5168,7.563,7.563,7.563,7.563,7.563,7.5822,7.6015,7.6015,7.6015,7.6015,7.6015,7.6015,7.6015,7.6015,7.6015,7.6322,7.7169,7.8323,7.9246,7.9746,7.9592,7.9515,7.9785,7.9554,7.9131,7.8515,7.99,7.9939,7.8207,7.9554,8.0054,7.9438,7.94,7.94,7.94,7.8784,7.8361,7.813,7.7553,7.707,4.8289,0.0,0.0,0.0,0.0,0.0,0.0,0.0,0.0,0.0,0.0,0.0,0.0,0.0,0.0,0.0,0.0,0.0,0.0,0.0,0.0,0.0,0.0,0.0,0.0,6.7505,6.7537,6.9261,6.9271,6.9387,6.9918,7.0266,7.0266,6.9957,6.9511,6.9148,6.884,6.7751,6.7357,6.7741,6.8459,6.8709,6.8598,7.0164,7.0629,7.0206,7.0706,7.0898,7.0898,7.0898,7.0898,7.0898,7.0898,7.0898,7.0898,7.0898,7.0898,7.0898,7.0898,7.0898,7.0898,7.0898,7.1129,7.1437,7.1629,7.2168,7.2822,7.336,7.4091,7.4784,7.513,7.563,7.6015,7.6015,7.6015,7.6015,7.6015,7.6015,7.6015,7.6015,7.6015,7.6015,7.6015,7.6015,7.613,7.6476,7.7092,7.7707,7.8246,7.9477,8.0323,8.0323,8.0323,8.0323,8.0323,8.0323,8.0092,7.9554,8.0516,8.0631,7.9592,8.0554,8.0862,8.0323,8.0323,8.0323,8.0323,7.9785,7.9361,7.9015,7.8515,7.7938,5.1695,0.0,0.0,0.0,0.0,0.0,0.0,0.0,0.0,0.0,0.0,0.0,0.0,0.0,0.0,0.0,0.0,0.0,0.0,0.0,0.0,0.0,0.0,6.5403,6.7321,6.6935,6.7202,6.8684,6.928,6.9898,7.0629,7.0744,7.0744,7.0667,6.9731,6.928,6.928,6.7455,6.6985,6.7757,6.7979,6.8482,6.9353,7.0432,7.0898,7.0898,7.0898,7.0898,7.0898,7.0898,7.0898,7.0898,7.0898,7.0898,7.0898,7.0898,7.0898,7.0898,7.0898,7.0898,7.0898,7.0898,7.1437,7.1937,7.1245,7.2168,7.3514,7.3591,7.4207,7.5014,7.5784,7.6015,7.6015,7.6015,7.6015,7.6015,7.6015,7.6015,7.6015,7.6015,7.6015,7.6015,7.6015,7.6015,7.6284,7.7169,7.8746,7.9823,7.9823,8.0554,8.1093,8.1093,8.1093,8.1093,8.1093,8.1093,8.1093,8.1093,8.1093,8.1093,8.1093,8.1093,8.1093,8.1093,8.1093,8.1093,8.1093,8.1093,8.0708,7.9939,7.9862,7.8977,0.0,5.1973,0.0,0.0,0.0,0.0,0.0,0.0,0.0,0.0,0.0,0.0,0.0,0.0,0.0,0.0,0.0,0.0,0.0,0.0,0.0,6.6038,6.4783,6.4578,6.6412,6.5571,6.5764,6.7736,6.8369,6.8783,6.8936,6.959,6.9629,6.8975,6.8929,6.8894,6.8894,6.7723,6.754,6.832,6.8194,6.8482,6.9353,7.0432,7.0898,7.0898,7.0898,7.0898,7.0898,7.0898,7.0898,7.0898,7.0898,7.0898,7.0898,7.0898,7.0898,7.0898,7.0898,7.0898,7.0898,7.0898,7.1014,7.1283,7.1783,7.2668,7.363,7.4284,7.5053,7.5745,7.5938,7.6015,7.6015,7.6015,7.6015,7.6015,7.6015,7.6015,7.6015,7.6015,7.6015,7.6015,7.6015,7.6015,7.6284,7.7169,7.8746,7.9823,7.9823,8.0554,8.1093,8.1093,8.1093,8.1093,8.1093,8.1093,8.1093,8.1093,8.1093,8.1093,8.1093,8.1093,8.1093,8.1093,8.1093,8.1093,8.1093,8.1093,8.1016,8.0785,8.0131,7.9631,0.0,0.0,0.0,0.0,0.0,0.0,0.0,0.0,0.0,0.0,0.0,0.0,0.0,0.0,0.0,0.0,0.0,0.0,0.0,0.0,0.0,6.5872,6.4971,6.4669,6.5645,6.5133,6.5365,6.6897,6.787,6.8398,6.8398,6.9244,6.9321,6.8436,6.8296,6.8417,6.8798,6.6992,6.6723,6.7915,6.7417,6.7836,6.9094,7.0333,7.0898,7.0898,7.0898,7.0898,7.0898,7.0898,7.0898,7.0898,7.0898,7.0898,7.0898,7.0898,7.0898,7.0898,7.0898,7.0898,7.0898,7.0898,7.1475,7.2168,7.2168,7.3091,7.4168,7.4591,7.5014,7.5476,7.5899,7.6015,7.6015,7.6015,7.6015,7.6015,7.6015,7.6015,7.6015,7.6015,7.6015,7.6015,7.6015,7.6669,7.7361,7.7823,7.9323,8.0439,8.0439,8.0823,8.1093,8.1093,8.1093,8.1093,8.1093,8.1093,8.1093,8.1093,8.1093,8.1093,8.1093,8.1093,8.1093,8.1093,8.1093,8.1093,8.1093,8.1093,8.1093,8.1093,8.0631,8.0208,0.0,0.0,0.0,0.0,0.0,0.0,0.0,0.0,0.0,0.0,0.0,0.0,0.0,0.0,0.0,0.0,0.0,0.0,0.0,6.5897,6.5897,6.5897,6.5417,6.513,6.523,6.5161,6.5512,6.6452,6.7543,6.8167,6.8167,6.8859,6.8859,6.8013,6.7667,6.7827,6.8476,6.6217,6.5839,6.7336,6.6662,6.7236,6.8836,6.9961,7.0552,7.0706,7.0821,7.0898,7.0898,7.0898,7.0898,7.0898,7.0898,7.0898,7.0898,7.0898,7.0898,7.0898,7.0898,7.1014,7.1129,7.1129,7.2206,7.336,7.2629,7.3476,7.4707,7.4707,7.4822,7.5091,7.5822,7.6015,7.6015,7.6015,7.6015,7.6015,7.6015,7.6015,7.6015,7.6015,7.613,7.6207,7.6207,7.7592,7.8707,7.8707,8.0092,8.1093,8.1093,8.1093,8.1093,8.1093,8.1093,8.1093,8.1093,8.1093,8.1093,8.1093,8.1093,8.1093,8.1093,8.1093,8.1093,8.1093,8.1093,8.1093,8.1093,8.1093,8.1093,8.1093,8.1093,8.0708,0.0,0.0,0.0,0.0,0.0,0.0,0.0,0.0,0.0,0.0,0.0,0.0,0.0,0.0,0.0,0.0,0.0,0.0,6.5897,6.5897,6.5897,6.5897,6.5417,6.5291,6.5755,6.5388,6.5635,6.6934,6.7179,6.7282,6.7282,6.7359,6.7051,6.6244,6.6845,6.7203,6.7318,6.6574,6.6615,6.7566,6.7452,6.7901,6.8798,6.8771,6.9167,6.9898,7.0591,7.0898,7.0898,7.0898,7.0898,7.0898,7.0898,7.0898,7.0898,7.0898,7.0898,7.0898,7.0898,7.1398,7.2014,7.2014,7.2706,7.3476,7.336,7.3976,7.4707,7.4707,7.5245,7.5861,7.5976,7.6015,7.6015,7.6015,7.6015,7.6015,7.6015,7.6015,7.6015,7.6015,7.6592,7.713,7.713,7.8515,7.9631,7.9631,8.0477,8.1093,8.1093,8.1093,8.1093,8.1093,8.1093,8.1093,8.1093,8.1093,8.1093,8.1093,8.1093,8.1093,8.1093,8.1093,8.1093,8.1093,8.1093,8.1093,8.1093,8.1093,8.1093,8.1093,8.1093,8.1054,0.0,0.0,0.0,0.0,0.0,0.0,0.0,0.0,0.0,0.0,0.0,0.0,0.0,0.0,0.0,0.0,0.0,6.5897,6.5897,6.5897,6.5897,6.5897,6.569,6.5663,6.5897,6.569,6.5778,6.6397,6.6859,6.6898,6.6436,6.6859,6.6744,6.5936,6.6244,6.6628,6.709,6.6154,6.5922,6.648,6.6759,6.712,6.7425,6.8091,6.8629,6.9013,6.936,6.9783,7.0244,7.0244,7.0475,7.0898,7.0898,7.0898,7.0898,7.0898,7.0898,7.0898,7.0898,7.1475,7.2206,7.2206,7.3091,7.4168,7.4168,7.4784,7.5438,7.5438,7.5707,7.6015,7.6015,7.6015,7.6015,7.6015,7.6015,7.6015,7.6015,7.6015,7.613,7.663,7.7053,7.7438,7.79,7.8977,7.9823,7.9823,8.0554,8.1093,8.1093,8.1093,8.1093,8.1093,8.1093,8.1093,8.1093,8.1093,8.1093,8.1093,8.1093,8.1093,8.1093,8.1093,8.1093,8.1093,8.1093,8.1093,8.1093,8.1093,8.1093,8.1093,8.1093,8.1093,0.0,0.0,0.0,0.0,0.0,0.0,0.0,0.0,0.0,0.0,0.0,0.0,0.0,0.0,0.0,6.5897,6.5705,6.5628,6.5859,6.5705,6.5551,6.5551,6.5551,6.5551,6.5551,6.5551,6.5743,6.6167,6.6551,6.6628,6.6244,6.659,6.6513,6.5897,6.5897,6.6205,6.6782,6.5781,6.5454,6.5766,6.6102,6.63,6.6325,6.7323,6.7782,6.7782,6.8244,6.8783,6.9398,6.9629,7.0052,7.0629,7.0821,7.0898,7.0898,7.0898,7.0898,7.0898,7.0898,7.1475,7.2245,7.2476,7.3514,7.4745,7.4976,7.5476,7.6015,7.6015,7.6015,7.6015,7.6015,7.6015,7.6015,7.6015,7.6015,7.6015,7.6015,7.6015,7.6245,7.713,7.7476,7.7861,7.8669,7.9554,8.0131,8.0131,8.0669,8.1093,8.1093,8.1093,8.1093,8.1093,8.1093,8.1093,8.1093,8.1093,8.1093,8.1093,8.1093,8.1093,8.1093,8.1093,8.1093,8.1093,8.1093,8.1093,8.1093,8.1093,8.1093,8.1093,8.1093,8.1093,0.0,0.0,0.0,0.0,0.0,0.0,0.0,0.0,0.0,0.0,0.0,0.0,0.0,0.0,6.5897,6.5897,6.5205,6.4974,6.5782,6.5205,6.4666,6.4666,6.4666,6.4666,6.4666,6.4666,6.532,6.6898,6.6359,6.6282,6.7013,6.6359,6.5936,6.5897,6.5897,6.5897,6.5974,6.5872,6.5991,6.6255,6.603,6.6068,6.6287,6.6096,6.6013,6.6128,6.7705,6.8436,6.8552,6.936,6.9706,6.986,7.0591,7.0898,7.0898,7.0898,7.0898,7.0898,7.0898,7.1475,7.2322,7.3168,7.4014,7.4861,7.5668,7.5976,7.6015,7.6015,7.6015,7.6015,7.6015,7.6015,7.6015,7.6015,7.6015,7.6015,7.6015,7.6015,7.6245,7.713,7.79,7.8707,7.9592,8.0477,8.1016,8.1016,8.1054,8.1093,8.1093,8.1093,8.1093,8.1093,8.1093,8.1093,8.1093,8.1093,8.1093,8.1093,8.1093,8.1093,8.1093,8.1093,8.1093,8.1093,8.1093,8.1093,8.1093,8.1093,8.1093,8.1093,8.1093,8.1093,0.0,0.0,0.0,0.0,0.0,0.0,0.0,0.0,0.0,0.0,0.0,0.0,6.4243,6.5166,6.5897,6.5897,6.5166,6.4705,6.5013,6.432,6.3782,6.3782,6.3782,6.4012,6.4551,6.4589,6.5089,6.6244,6.6051,6.6013,6.632,6.6051,6.5628,6.5089,6.559,6.5897,6.5897,6.5897,6.5961,6.603,6.5961,6.5935,6.6057,6.5961,6.5897,6.5936,6.6513,6.7398,6.8436,6.8744,6.9513,7.0514,7.0783,7.0898,7.0898,7.0898,7.0898,7.0898,7.0898,7.1822,7.3091,7.3399,7.4437,7.5592,7.5899,7.6015,7.6015,7.6015,7.6015,7.613,7.6669,7.6399,7.6015,7.6015,7.6823,7.7438,7.6938,7.6823,7.7246,7.8631,7.9131,7.9592,8.0477,8.09,8.1093,8.1093,8.1093,8.1093,8.1093,8.1093,8.1093,8.1093,8.1093,8.1093,8.1093,8.1093,8.1093,8.1093,8.1093,8.1093,8.1093,8.1093,8.1093,8.1093,8.1093,8.1093,8.1093,8.1093,8.1093,8.1093,8.1093,8.1093,0.0,0.0,0.0,0.0,0.0,5.6242,0.0,0.0,6.132,6.1589,6.2551,6.332,6.332,6.4243,6.5013,6.5013,6.432,6.3858,6.4128,6.3435,6.2897,6.2897,6.2897,6.3128,6.3705,6.3743,6.4243,6.5397,6.5205,0.0,6.5859,6.5628,6.5205,6.4628,6.5166,6.5474,6.5474,6.5474,6.559,6.5897,6.5897,6.5897,6.5897,6.5897,6.5897,6.5897,6.6205,6.6936,6.7975,6.8282,6.9244,7.0514,7.0783,7.0898,7.0898,7.0898,7.0898,7.0898,7.0898,7.186,7.3129,7.3399,7.4437,7.563,7.5899,7.6015,7.6015,7.6015,7.6207,7.6515,7.6784,7.663,7.6515,7.6784,7.7669,7.8438,7.8169,7.79,7.813,7.9515,7.9823,8.0092,8.0939,8.1093,8.1093,8.1093,8.1093,8.1093,8.1093,8.1093,8.1093,8.1093,8.1093,8.1093,8.1093,8.1093,8.1093,8.1093,8.1093,8.1093,8.1093,8.1093,8.1093,8.1093,8.1093,8.1093,8.1093,8.1093,8.1093,8.1093,8.1093,8.1093,0.0,0.0,0.0,0.0,0.0,0.0,5.8319,0.0,5.9627,6.055,6.2012,6.3166,6.3243,6.3243,6.3243,6.3243,6.2589,6.2358,6.3166,6.2551,6.205,6.205,6.205,6.205,6.2089,6.2127,6.282,6.4474,6.3858,6.4128,6.582,6.5051,6.4551,6.4551,6.4551,6.4551,6.4551,6.4589,6.5013,6.5859,6.5897,6.5897,6.5897,6.5897,6.5897,6.5936,6.6744,6.709,6.7205,6.809,6.8936,6.9783,7.0591,7.0898,7.0898,7.0898,7.0937,7.0937,7.0937,7.1514,7.2399,7.3245,7.4091,7.4899,7.5745,7.6015,7.6015,7.6015,7.663,7.7092,7.6284,7.6746,7.7592,7.8323,7.8515,7.8784,7.9631,7.9169,7.8823,7.9669,7.9862,8.0131,8.0939,8.1093,8.1093,8.1093,8.1093,8.1093,8.1093,8.1093,8.1093,8.1093,8.1093,8.1093,8.1093,8.1093,8.1093,8.1093,8.1093,8.1093,8.1093,8.1093,8.1093,8.1093,8.1093,8.1093,8.1093,8.1093,8.1093,8.1093,8.1093,8.1093,4.5893,0.0,0.0,0.0,0.0,0.0,5.3472,5.4972,5.6472,5.855,5.9358,6.005,6.1281,6.1473,6.1473,6.1473,6.182,6.2166,6.2397,6.1704,6.1166,6.1166,6.1166,6.1396,6.205,6.2627,6.3435,0.0,6.4974,6.5397,6.5859,6.4474,6.3666,6.3666,6.3089,6.3051,6.3666,6.4282,6.4705,6.4974,6.559,6.5897,6.5897,6.5897,6.5897,6.5897,6.6128,6.6936,6.8129,6.8975,6.9475,6.9783,7.0591,7.0898,7.0898,7.0898,7.1283,7.1822,7.1822,7.2783,7.4053,7.4284,7.4938,7.5707,7.5938,7.6015,7.6015,7.6015,7.663,7.7361,7.7707,7.89,7.9785,7.8746,7.9438,8.0285,7.99,8.0092,8.0439,8.0708,8.0746,8.0823,8.1054,8.1093,8.1093,8.1093,8.1093,8.1093,8.1093,8.1093,8.1093,8.1093,8.1093,8.1093,8.1093,8.1093,8.1093,8.1093,8.1093,8.1093,8.1093,8.1093,8.1093,8.1093,8.1093,8.1093,8.1093,8.1093,8.1093,8.1093,8.1093,8.1093,0.0,0.0,0.0,0.0,0.0,0.0,5.1818,5.2972,5.4126,0.0,5.7511,5.8165,5.9511,6.0012,6.0242,6.0242,6.1281,6.1973,6.1589,6.1704,6.1704,6.1358,6.132,6.1666,6.2512,6.2704,6.3166,6.3974,6.4205,6.432,6.432,6.4012,6.3512,6.282,6.232,6.232,6.2781,6.3281,6.3743,6.4089,6.4936,6.5359,6.5359,6.5743,6.5897,6.5936,6.6628,6.7282,6.7975,6.9552,7.0206,7.0244,7.0706,7.0898,7.0937,7.1321,7.1745,7.2245,7.2629,7.3591,7.4707,7.4707,7.5284,7.6015,7.6015,7.6015,7.6015,7.6015,7.663,7.763,7.9169,8.0054,8.04,7.9746,8.0362,8.0977,8.0439,8.0746,8.1093,8.1093,8.1093,8.1093,8.1093,8.1093,8.1093,8.1093,8.1093,8.1093,8.1093,8.1093,8.1093,8.1093,8.1093,8.1093,8.1093,8.1093,8.1093,8.1093,8.1093,8.1093,8.1093,8.1093,8.1093,8.1093,8.1093,8.1093,8.1093,8.1093,8.1093,8.1093,8.1093,8.1093,0.0,0.0,0.0,0.0,0.0,0.0,5.1664,5.1972,5.2202,5.4741,5.5895,5.6742,5.7819,5.8665,5.9204,5.9204,6.0819,6.182,6.105,6.232,6.3051,6.232,6.2127,6.2397,6.3243,6.2551,6.2435,6.3243,6.2743,6.2281,6.2089,6.3589,6.3705,6.2012,6.1935,6.1935,6.1935,6.205,6.2512,6.332,6.4166,6.4666,6.4782,6.5551,6.5897,6.5974,6.759,6.7859,6.7436,6.9783,7.0783,7.0783,7.086,7.0898,7.0975,7.1783,7.2168,7.2476,7.3245,7.4091,7.4861,7.4861,7.5361,7.6015,7.6015,7.6015,7.6053,7.6245,7.6823,7.7977,8.0477,8.0516,8.0131,8.0939,8.1093,8.1093,8.1093,8.1093,8.1093,8.1093,8.1093,8.1093,8.1093,8.1093,8.1093,8.1093,8.1093,8.1093,8.1093,8.1093,8.1093,8.1093,8.1093,8.1093,8.1093,8.1093,8.1093,8.1093,8.1093,8.1093,8.1093,8.1093,8.1093,8.1093,8.1093,8.1093,8.1093,8.1093,8.1093,8.1093,8.1093,8.1093,0.0,0.0,0.0,0.0,0.0,0.0,4.8086,4.8509,4.9548,0.0,5.2779,5.3587,5.578,5.6896,5.7473,5.7473,6.0089,6.205,6.1858,6.2704,6.3243,6.3089,6.2474,6.2397,6.3243,6.2551,6.2435,6.3243,6.382,6.3512,6.2166,6.3012,6.2781,6.1089,6.105,6.105,6.105,6.1743,6.2512,6.332,6.4166,6.4974,6.5628,6.582,6.5897,6.5936,6.6936,6.7667,6.8244,6.9436,6.9937,7.0014,7.0667,7.0898,7.0937,7.1091,7.2052,7.3283,7.3437,7.4476,7.5745,7.5745,7.5861,7.6015,7.6015,7.6015,7.6284,7.763,7.813,7.8707,8.0592,8.0977,8.09,8.1054,8.1093,8.1093,8.1093,8.1093,8.1093,8.1093,8.1093,8.1093,8.1093,8.1093,8.1093,8.1093,8.1093,8.1093,8.1093,8.1093,8.1093,8.1093,8.1093,8.1093,8.1093,8.1093,8.1093,8.1093,8.1093,8.1093,8.1093,8.1093,8.1093,8.1093,8.1093,8.1093,8.1093,8.1093,8.1093,8.1093,8.1093,8.1093,0.0,0.0,0.0,4.624,0.0,0.0,0.0,4.7509,4.824,5.0779,5.0971,5.1318,5.3433,5.4511,5.5395,5.6203,5.8858,6.1089,6.1973,6.3551,6.4282,6.3397,6.2935,6.2858,6.3281,6.2551,6.2281,6.2666,6.3089,6.2781,6.1512,6.2243,6.2127,6.0819,6.0781,6.0781,6.0781,6.1243,6.1858,6.2704,6.3551,6.4397,6.5282,6.5705,6.5897,6.5974,6.7205,6.8013,6.8513,6.9783,7.0283,7.036,7.0744,7.0898,7.1014,7.1898,7.2745,7.363,7.4476,7.5284,7.6015,7.6015,7.6015,7.6015,7.6015,7.6015,7.6361,7.8015,7.8477,7.89,8.0631,8.1093,8.1093,8.1093,8.1093,8.1093,8.1093,8.1093,8.1093,8.1093,8.1093,8.1093,8.1093,8.1093,8.1093,8.1093,8.1093,8.1093,8.1093,8.1093,8.1093,8.1093,8.1093,8.1093,8.1093,8.1093,8.1093,8.1093,8.1093,8.1093,8.1093,8.1093,8.1285,8.1708,8.1285,8.1285,8.1708,8.1285,8.1093,8.1093,8.1093,8.1093,0.0,0.0,0.0,0.0,0.0,4.674,0.0,0.0,0.0,4.9548,4.951,0.0,0.0,0.0,0.0,0.0,0.0,0.0,0.0,6.332,0.0,6.3435,6.3166,6.3128,6.3281,6.2435,6.1858,6.1858,6.1858,6.155,6.0819,6.1627,6.1704,6.0819,6.0781,6.0781,6.0781,6.0781,6.132,6.232,6.2974,6.3858,6.4859,6.559,6.5974,6.6205,6.7744,6.8513,6.8783,7.0283,7.0898,7.0898,7.0898,7.0898,7.1091,7.2668,7.336,7.3707,7.5245,7.5861,7.6015,7.6015,7.6015,7.6015,7.6015,7.613,7.6553,7.8092,7.8631,7.9092,8.0669,8.1093,8.1093,8.1093,8.1093,8.1093,8.1093,8.1093,8.1093,8.1093,8.1093,8.1093,8.1093,8.1093,8.1093,8.1093,8.1093,8.1093,8.1093,8.1093,8.1093,8.1093,8.1093,8.1093,8.1093,8.1093,8.1093,8.1093,8.1093,8.1093,8.1093,8.1246,8.1631,8.2285,8.1823,8.19,8.2554,8.19,8.14,8.1093,8.1093,8.1093,0.0,0.0,0.0,0.0,4.8509,0.0,0.0,0.0,4.6971,4.7278,0.0,0.0,0.0,0.0,0.0,0.0,0.0,0.0,5.7434,5.9781,6.1858,6.3166,6.2666,6.2512,6.3243,6.1858,6.0935,6.0935,6.0935,6.0896,6.0819,6.1627,6.1704,6.0819,6.0781,6.0781,6.0781,6.0781,6.1589,6.3166,6.3281,6.4166,6.5743,6.5859,6.6282,6.7013,6.7975,6.8859,6.9629,7.0514,7.0898,7.0898,7.0898,7.0898,7.1014,7.1975,7.2822,7.363,7.4553,7.5361,7.6015,7.6015,7.6015,7.6015,7.6015,7.6553,7.7323,7.8246,7.9054,7.99,8.0862,8.1093,8.1093,8.1093,8.1093,8.1093,8.1093,8.1093,8.1093,8.1093,8.1093,8.1093,8.1093,8.1093,8.1093,8.1093,8.1093,8.1093,8.1093,8.1093,8.1093,8.1093,8.1093,8.1093,8.1093,8.1093,8.1093,8.1093,8.1093,8.1093,8.1093,8.1785,8.2208,8.2285,8.2978,8.3362,8.3439,8.3362,8.2554,8.1093,8.1093,8.1093,0.0,0.0,0.0,0.0,0.0,0.0,4.6663,0.0,4.6278,0.0,0.0,0.0,0.0,0.0,0.0,0.0,5.3241,0.0,0.0,0.0,5.8665,0.0,0.0,0.0,6.105,6.0473,6.005,6.005,6.005,6.005,6.005,6.0858,6.1166,6.0819,6.0781,6.0781,6.0781,6.0781,6.1627,6.332,6.332,6.4205,6.5897,6.5897,6.632,6.7128,6.8013,6.8898,6.9744,7.0552,7.0898,7.0937,7.1475,7.1629,7.1745,7.2629,7.3476,7.4322,7.5168,7.5707,7.6015,7.6015,7.6015,7.6015,7.6015,7.6592,7.7476,7.8246,7.9131,8.0015,8.0862,8.1093,8.1093,8.1093,8.1093,8.1093,8.1093,8.1093,8.1093,8.1093,8.1093,8.1093,8.1093,8.1093,8.1093,8.1093,8.1093,8.1093,8.1093,8.1093,8.1093,8.1093,8.1093,8.1093,8.1093,8.1093,8.1093,8.1093,8.1093,8.1093,8.1093,8.1862,8.2554,8.3016,8.3401,8.3862,8.4362,8.3862,8.3247,8.2554,8.2554,8.2285,4.8317,0.0,0.0,0.0,0.0,0.0,0.0,0.0,0.0,0.0,0.0,0.0,0.0,0.0,0.0,0.0,0.0,5.328,0.0,5.4857,0.0,0.0,0.0,0.0,0.0,5.9435,5.9281,5.9473,5.905,5.9011,5.9473,6.0089,6.055,6.0781,6.0781,6.0781,6.0781,6.105,6.1897,6.332,6.3551,6.4436,6.5897,6.6128,6.6667,6.7513,6.8398,6.9244,7.0052,7.0667,7.0898,7.0975,7.1591,7.2129,7.2668,7.3514,7.4207,7.4822,7.5707,7.6015,7.6015,7.6015,7.6015,7.6015,7.6015,7.6746,7.7746,7.8323,7.9285,8.0285,8.0939,8.1093,8.1093,8.1093,8.1093,8.1093,8.1093,8.1093,8.1093,8.1093,8.1093,8.1093,8.1093,8.1093,8.1093,8.1093,8.1093,8.1093,8.1093,8.1093,8.1093,8.1093,8.1093,8.1093,8.1093,8.1093,8.1093,8.1093,8.1093,8.1093,8.1093,8.2093,8.2939,8.3593,8.4055,8.4593,8.5247,8.4593,8.417,8.3939,8.3478,8.2901,0.0,0.0,0.0,4.8509,0.0,0.0,0.0,0.0,4.7817,0.0,0.0,0.0,0.0,0.0,0.0,0.0,0.0,0.0,0.0,0.0,0.0,0.0,0.0,0.0,0.0,5.9281,5.8665,5.9435,5.8011,5.778,5.9396,5.9511,5.9935,6.0781,6.0781,6.0781,6.0781,6.1627,6.2474,6.332,6.4166,6.5013,6.5936,6.6705,6.7552,6.8398,6.9283,7.0129,7.086,7.0898,7.0898,7.0898,7.0937,7.1975,7.3553,7.4361,7.4668,7.4822,7.5707,7.6015,7.6015,7.6015,7.6015,7.6015,7.6015,7.713,7.8477,7.8477,7.9746,8.1054,8.1093,8.1093,8.1093,8.1093,8.1093,8.1093,8.1093,8.1093,8.1093,8.1093,8.1093,8.1093,8.1093,8.1093,8.1093,8.1093,8.1093,8.1093,8.1093,8.1093,8.1093,8.1093,8.1093,8.1093,8.1093,8.1093,8.1093,8.1093,8.1093,8.1093,8.1093,8.267,8.3555,8.3593,8.5209,8.6017,8.6055,8.6017,8.5632,8.4824,8.3131,8.2324,0.0,0.0,4.8856,4.824,0.0,0.0,0.0,0.0,0.0,0.0,0.0,0.0,0.0,0.0,0.0,0.0,0.0,0.0,0.0,0.0,0.0,0.0,0.0,0.0,0.0,0.0,5.755,5.7819,5.678,5.6626,5.778,5.8896,5.9627,5.9935,6.0512,6.0781,6.0781,6.1666,6.2512,6.332,6.4166,6.5051,6.5936,6.6744,6.759,6.8475,6.9321,7.0167,7.0898,7.0898,7.0898,7.1014,7.2168,7.2976,7.3553,7.3822,7.463,7.5592,7.5899,7.6015,7.6015,7.6015,7.6015,7.6015,7.6015,7.7169,7.8477,7.8477,7.9746,8.1093,8.1093,8.1093,8.1093,8.1093,8.1093,8.1093,8.1093,8.1093,8.1093,8.1093,8.1093,8.1093,8.1093,8.1093,8.1093,8.1093,8.1093,8.1093,8.1093,8.1093,8.1093,8.1093,8.1093,8.1093,8.1093,8.1093,8.1093,8.1093,8.1093,8.1323,8.1862,8.2978,8.3862,8.4439,8.5555,8.6094,8.6094,8.6094,8.5709,8.4901,8.4286,8.3708,4.7586,4.7663,0.0,4.7663,4.7509,0.0,4.7625,0.0,0.0,0.0,0.0,0.0,0.0,0.0,0.0,0.0,0.0,0.0,0.0,5.1164,0.0,0.0,0.0,0.0,0.0,5.6896,5.6549,5.6549,5.5742,5.5626,5.6472,5.8165,5.9204,5.9473,6.0358,6.0781,6.0781,6.1935,6.2781,6.332,6.4512,6.5513,6.6359,6.7167,6.8052,6.8898,6.9744,7.0437,7.0898,7.0898,7.0898,7.1052,7.2476,7.3245,7.3591,7.4168,7.5053,7.6015,7.6015,7.6015,7.6015,7.6015,7.6015,7.6053,7.6361,7.74,7.8554,7.8861,7.9977,8.1093,8.1093,8.1093,8.1093,8.1093,8.1093,8.1093,8.1093,8.1093,8.1093,8.1093,8.1093,8.1093,8.1093,8.1093,8.1093,8.1093,8.1093,8.1093,8.1093,8.1093,8.1093,8.1093,8.1093,8.1093,8.1093,8.1093,8.1093,8.1093,8.1093,8.1477,8.2285,8.3131,8.4286,8.5747,8.5978,8.6401,8.7017,8.6401,8.5709,8.4901,8.5209,8.4555]},{"header":{"parameterUnit":"m.s-1","parameterCategory":1,"la1":30.6,"la2":29.2853,"lo1":-89.7004,"lo2":-87.6739,"dy":0.0162,"dx":0.0183,"nx":112,"ny":82,"refTime":"2023-11-21T18:00:00:Z","depth":0,"parameterNumber":3,"parameterNumberName":"V-component_of_WINDS"},"data":[0.0,0.0,0.0,0.0,0.0,0.0,0.0,0.0,0.0,0.0,0.0,0.0,0.0,0.0,0.0,0.0,0.0,0.0,0.0,0.0,0.0,0.0,0.0,0.0,0.0,0.0,0.0,0.0,0.0,0.0,0.0,0.0,0.0,0.0,0.0,0.0,0.0,0.0,0.0,0.0,0.0,0.0,0.0,0.0,0.0,0.0,0.0,0.0,0.0,0.0,0.0,0.0,0.0,0.0,0.0,0.0,0.0,0.0,0.0,0.0,0.0,0.0,0.0,0.0,0.0,0.0,0.0,0.0,0.0,0.0,0.0,0.0,0.0,0.0,0.0,0.0,0.0,0.0,0.0,0.0,0.0,0.0,0.0,0.0,0.0,0.0,0.0,0.0,0.0,0.0,0.0,-1.3336,-1.178,-1.0948,-1.0948,-1.1036,-1.0733,-0.9799,0.0,0.0,0.0,0.0,0.0,0.0,0.0,0.0,0.0,0.0,0.0,0.0,0.0,0.0,0.0,0.0,0.0,0.0,0.0,0.0,0.0,0.0,0.0,0.0,0.0,0.0,0.0,0.0,0.0,0.0,0.0,0.0,0.0,0.0,0.0,0.0,0.0,0.0,0.0,0.0,0.0,0.0,0.0,0.0,0.0,0.0,0.0,0.0,0.0,0.0,0.0,0.0,0.0,0.0,0.0,0.0,0.0,0.0,0.0,0.0,0.0,0.0,0.0,0.0,0.0,0.0,0.0,0.0,0.0,0.0,0.0,0.0,0.0,0.0,0.0,0.0,0.0,0.0,0.0,0.0,0.0,0.0,0.0,0.0,0.0,0.0,0.0,0.0,0.0,0.0,0.0,0.0,0.0,0.0,0.0,0.0,0.0,0.0,0.0,0.0,0.0,0.0,0.0,0.0,-1.4505,-1.2957,-1.1607,-1.0948,-1.0948,-1.0846,-1.0891,-1.1049,0.0,0.0,0.0,0.0,0.0,0.0,0.0,0.0,0.0,0.0,0.0,0.0,0.0,0.0,0.0,0.0,0.0,0.0,0.0,0.0,0.0,0.0,0.0,0.0,0.0,0.0,0.0,0.0,0.0,0.0,0.0,0.0,0.0,0.0,0.0,0.0,0.0,0.0,0.0,0.0,0.0,0.0,0.0,0.0,0.0,0.0,0.0,0.0,0.0,0.0,0.0,0.0,0.0,0.0,0.0,0.0,0.0,0.0,0.0,0.0,0.0,0.0,0.0,0.0,0.0,0.0,0.0,0.0,0.0,0.0,0.0,0.0,0.0,0.0,0.0,0.0,0.0,0.0,0.0,0.0,0.0,0.0,0.0,0.0,0.0,0.0,0.0,0.0,0.0,0.0,0.0,0.0,0.0,0.0,0.0,0.0,0.0,0.0,0.0,0.0,0.0,0.0,0.0,-1.4407,-1.3385,-1.1538,-1.1038,-1.0826,-1.0826,-1.0758,-1.0586,-1.0244,-1.2197,0.0,0.0,0.0,0.0,0.0,0.0,0.0,0.0,0.0,0.0,0.0,0.0,0.0,0.0,0.0,0.0,0.0,0.0,0.0,0.0,0.0,0.0,0.0,0.0,0.0,0.0,0.0,0.0,0.0,0.0,0.0,0.0,0.0,0.0,0.0,0.0,0.0,0.0,0.0,0.0,0.0,0.0,0.0,0.0,0.0,0.0,0.0,0.0,0.0,0.0,0.0,0.0,0.0,0.0,0.0,0.0,0.0,0.0,0.0,0.0,0.0,0.0,0.0,0.0,0.0,0.0,0.0,0.0,0.0,0.0,0.0,0.0,0.0,0.0,0.0,0.0,0.0,0.0,0.0,0.0,0.0,0.0,0.0,0.0,0.0,0.0,0.0,0.0,0.0,0.0,0.0,0.0,0.0,0.0,0.0,0.0,0.0,0.0,0.0,0.0,0.0,0.0,-1.3526,-1.264,-1.0517,-1.0561,-1.0717,-1.0717,-1.0622,-1.0222,-0.9429,-1.1427,0.0,0.0,0.0,0.0,0.0,0.0,0.0,0.0,0.0,0.0,0.0,0.0,0.0,0.0,0.0,0.0,0.0,0.0,0.0,0.0,0.0,0.0,0.0,0.0,0.0,0.0,0.0,0.0,0.0,0.0,0.0,0.0,0.0,0.0,0.0,0.0,0.0,0.0,0.0,0.0,0.0,0.0,0.0,0.0,0.0,0.0,0.0,0.0,0.0,0.0,0.0,0.0,0.0,0.0,0.0,0.0,0.0,0.0,0.0,0.0,0.0,0.0,0.0,0.0,0.0,0.0,0.0,0.0,0.0,0.0,0.0,0.0,0.0,0.0,0.0,0.0,0.0,0.0,0.0,0.0,0.0,0.0,0.0,0.0,0.0,0.0,0.0,0.0,0.0,0.0,0.0,0.0,0.0,0.0,0.0,0.0,0.0,0.0,0.0,0.0,0.0,0.0,-1.3702,-1.3247,-1.0812,-1.0622,-1.0717,-1.0717,-1.0337,-0.989,-0.9408,-1.0303,0.0,0.0,0.0,0.0,0.0,0.0,0.0,0.0,0.0,0.0,0.0,0.0,0.0,0.0,0.0,0.0,0.0,0.0,0.0,0.0,0.0,0.0,0.0,0.0,0.0,0.0,0.0,0.0,0.0,0.0,0.0,0.0,0.0,0.0,0.0,0.0,0.0,0.0,0.0,0.0,0.0,0.0,0.0,0.0,0.0,0.0,0.0,0.0,0.0,0.0,0.0,0.0,0.0,0.0,0.0,0.0,0.0,0.0,0.0,0.0,0.0,0.0,0.0,0.0,0.0,0.0,0.0,0.0,0.0,0.0,0.0,0.0,0.0,0.0,0.0,0.0,0.0,0.0,0.0,0.0,0.0,0.0,0.0,0.0,0.0,0.0,0.0,0.0,0.0,0.0,0.0,0.0,0.0,0.0,0.0,0.0,0.0,0.0,0.0,0.0,0.0,0.0,-1.3517,-1.2973,0.0,-1.0575,-1.0717,-1.0717,-1.048,-1.0059,-0.9422,0.0,0.0,0.0,0.0,0.0,0.0,0.0,0.0,0.0,0.0,0.0,0.0,0.0,0.0,0.0,0.0,0.0,0.0,0.0,0.0,0.0,0.0,0.0,0.0,0.0,0.0,0.0,0.0,0.0,0.0,0.0,0.0,0.0,0.0,0.0,0.0,0.0,0.0,0.0,0.0,0.0,0.0,0.0,0.0,0.0,0.0,0.0,0.0,0.0,0.0,0.0,0.0,0.0,0.0,0.0,0.0,0.0,0.0,0.0,0.0,0.0,0.0,0.0,0.0,0.0,0.0,0.0,0.0,0.0,0.0,0.0,0.0,0.0,0.0,0.0,0.0,0.0,0.0,0.0,0.0,0.0,0.0,0.0,0.0,0.0,0.0,0.0,0.0,0.0,0.0,0.0,0.0,0.0,0.0,0.0,0.0,0.0,0.0,0.0,0.0,0.0,0.0,-1.3076,-1.3458,-1.2937,0.0,-1.0541,-1.0717,-1.0717,-1.0405,-0.9971,-0.9415,0.0,0.0,0.0,0.0,0.0,0.0,0.0,0.0,0.0,0.0,0.0,0.0,0.0,0.0,0.0,0.0,0.0,0.0,0.0,0.0,0.0,0.0,0.0,0.0,0.0,0.0,0.0,0.0,0.0,0.0,0.0,0.0,0.0,0.0,0.0,0.0,0.0,0.0,0.0,0.0,0.0,0.0,0.0,0.0,0.0,0.0,0.0,0.0,0.0,0.0,0.0,0.0,0.0,0.0,0.0,0.0,0.0,0.0,0.0,0.0,0.0,0.0,0.0,0.0,0.0,0.0,0.0,0.0,0.0,0.0,0.0,0.0,0.0,0.0,0.0,0.0,0.0,0.0,0.0,0.0,0.0,0.0,0.0,0.0,0.0,0.0,0.0,0.0,0.0,0.0,0.0,0.0,0.0,0.0,0.0,0.0,0.0,0.0,0.0,0.0,0.0,0.0,-1.3204,-1.3585,-1.3211,-1.0622,-1.0548,-1.0717,-1.0717,-1.0039,-0.9544,0.0,0.0,0.0,0.0,0.0,0.0,0.0,0.0,0.0,0.0,0.0,0.0,0.0,0.0,0.0,0.0,0.0,0.0,0.0,0.0,0.0,0.0,0.0,0.0,0.0,0.0,0.0,0.0,0.0,0.0,0.0,0.0,0.0,0.0,0.0,0.0,0.0,0.0,0.0,0.0,0.0,0.0,0.0,0.0,0.0,0.0,0.0,0.0,0.0,0.0,0.0,0.0,0.0,0.0,0.0,0.0,0.0,0.0,0.0,0.0,0.0,0.0,0.0,0.0,0.0,0.0,0.0,0.0,0.0,0.0,0.0,0.0,0.0,0.0,0.0,0.0,0.0,0.0,0.0,0.0,0.0,0.0,0.0,0.0,0.0,0.0,0.0,0.0,0.0,0.0,0.0,0.0,0.0,0.0,0.0,0.0,0.0,0.0,0.0,0.0,0.0,0.0,0.0,-1.4714,-1.4271,-1.3686,-1.2113,-1.1185,-1.0677,-1.0568,-1.0168,-0.972,-0.9252,0.0,0.0,0.0,0.0,0.0,0.0,0.0,0.0,0.0,0.0,0.0,0.0,0.0,0.0,0.0,0.0,0.0,0.0,0.0,0.0,0.0,0.0,0.0,0.0,0.0,0.0,0.0,0.0,0.0,0.0,0.0,0.0,0.0,0.0,0.0,0.0,0.0,0.0,0.0,0.0,0.0,0.0,0.0,0.0,0.0,0.0,0.0,0.0,0.0,0.0,0.0,0.0,0.0,0.0,0.0,0.0,0.0,0.0,0.0,0.0,0.0,0.0,0.0,0.0,0.0,0.0,0.0,0.0,0.0,0.0,0.0,0.0,0.0,0.0,0.0,0.0,0.0,0.0,0.0,0.0,0.0,0.0,0.0,0.0,0.0,0.0,0.0,0.0,0.0,0.0,0.0,0.0,0.0,0.0,0.0,0.0,0.0,0.0,0.0,0.0,0.0,0.0,-1.5352,-1.4456,-1.3589,-1.2738,-1.1342,-1.0568,-1.0419,-1.0134,-0.9727,-0.9184,0.0,0.0,0.0,0.0,0.0,0.0,0.0,0.0,0.0,0.0,0.0,0.0,0.0,0.0,0.0,0.0,0.0,0.0,0.0,0.0,0.0,0.0,0.0,0.0,0.0,0.0,0.0,0.0,0.0,0.0,0.0,0.0,0.0,0.0,0.0,0.0,0.0,0.0,0.0,0.0,0.0,0.0,0.0,0.0,0.0,0.0,0.0,0.0,0.0,0.0,0.0,0.0,0.0,0.0,0.0,0.0,0.0,0.0,0.0,0.0,0.0,0.0,0.0,0.0,0.0,0.0,0.0,0.0,0.0,0.0,0.0,0.0,0.0,0.0,0.0,0.0,0.0,0.0,0.0,0.0,0.0,0.0,0.0,0.0,0.0,0.0,0.0,0.0,0.0,0.0,0.0,0.0,0.0,0.0,0.0,0.0,0.0,0.0,0.0,0.0,0.0,0.0,-1.5435,-1.4235,-1.317,-1.2681,-1.1307,-1.0419,-1.029,-0.9998,-0.9632,-0.9178,0.0,0.0,0.0,0.0,0.0,0.0,0.0,0.0,0.0,0.0,0.0,0.0,0.0,0.0,0.0,0.0,0.0,0.0,0.0,0.0,0.0,0.0,0.0,0.0,0.0,0.0,0.0,0.0,0.0,0.0,0.0,0.0,0.0,0.0,0.0,0.0,0.0,0.0,0.0,0.0,0.0,0.0,0.0,0.0,0.0,0.0,0.0,0.0,0.0,0.0,0.0,0.0,0.0,0.0,0.0,0.0,0.0,0.0,0.0,0.0,-1.0424,0.0,0.0,0.0,0.0,0.0,0.0,0.0,0.0,0.0,0.0,0.0,0.0,0.0,0.0,0.0,0.0,0.0,0.0,0.0,0.0,0.0,0.0,0.0,0.0,0.0,0.0,0.0,0.0,0.0,0.0,0.0,0.0,0.0,0.0,0.0,0.0,0.0,0.0,0.0,0.0,0.0,-1.6858,-1.4249,-1.274,-1.4144,-1.1956,-1.0317,-1.0283,-0.9998,-0.9632,-0.9178,-0.8845,0.0,0.0,0.0,0.0,0.0,0.0,0.0,0.0,0.0,0.0,0.0,0.0,0.0,0.0,0.0,0.0,0.0,0.0,0.0,0.0,0.0,0.0,0.0,0.0,0.0,0.0,0.0,0.0,0.0,0.0,0.0,0.0,0.0,0.0,0.0,0.0,0.0,0.0,0.0,0.0,0.0,0.0,0.0,0.0,0.0,0.0,0.0,0.0,0.0,0.0,0.0,0.0,0.0,0.0,0.0,0.0,0.0,0.0,0.0,0.0,-1.0077,0.0,0.0,0.0,0.0,0.0,0.0,0.0,0.0,0.0,0.0,0.0,0.0,0.0,0.0,0.0,0.0,0.0,0.0,0.0,0.0,0.0,0.0,0.0,0.0,0.0,0.0,0.0,0.0,0.0,0.0,0.0,0.0,0.0,0.0,0.0,0.0,0.0,0.0,0.0,0.0,-1.5447,-1.3102,-1.1962,-1.3389,-1.1549,-1.0168,-1.0168,-0.9958,-0.9693,-0.9395,-0.8954,0.0,0.0,0.0,0.0,0.0,0.0,0.0,0.0,0.0,0.0,0.0,0.0,0.0,0.0,0.0,0.0,0.0,0.0,0.0,0.0,0.0,0.0,0.0,0.0,0.0,0.0,0.0,0.0,0.0,0.0,0.0,0.0,0.0,0.0,0.0,0.0,0.0,0.0,0.0,0.0,0.0,0.0,0.0,0.0,0.0,0.0,0.0,0.0,0.0,0.0,0.0,0.0,0.0,-1.1477,-1.077,-1.0514,-1.0514,-1.0514,-1.05,-1.0243,-0.9964,-0.968,-0.9578,0.0,0.0,0.0,0.0,0.0,0.0,0.0,0.0,0.0,0.0,0.0,0.0,0.0,0.0,0.0,0.0,0.0,0.0,0.0,0.0,0.0,0.0,0.0,0.0,-0.9327,-0.9953,-1.1631,0.0,0.0,0.0,0.0,0.0,0.0,0.0,0.0,0.0,0.0,0.0,-1.3398,-1.2063,-1.1405,-1.2158,-1.0904,-1.0019,-1.0046,-0.993,-0.9788,-0.9618,-0.9144,-0.8764,0.0,0.0,0.0,0.0,0.0,0.0,0.0,0.0,0.0,0.0,0.0,0.0,0.0,0.0,0.0,0.0,0.0,0.0,0.0,0.0,0.0,0.0,0.0,0.0,0.0,0.0,0.0,0.0,0.0,0.0,0.0,0.0,-1.7662,-1.8196,0.0,0.0,0.0,0.0,0.0,0.0,0.0,0.0,0.0,0.0,0.0,0.0,0.0,-1.7481,-1.9694,-1.8505,-1.7194,-1.5919,-1.4551,-1.3076,-1.1443,-1.1443,-1.1443,-1.1443,-1.1402,0.0,-0.9998,-1.0114,0.0,0.0,0.0,0.0,0.0,0.0,0.0,0.0,0.0,0.0,0.0,0.0,0.0,0.0,0.0,0.0,0.0,0.0,0.0,0.0,0.0,0.0,-0.9618,-0.9401,-0.9564,-1.0017,0.0,-1.1151,-1.0833,-1.0854,-1.1595,0.0,0.0,0.0,0.0,0.0,0.0,0.0,-1.3419,-1.2181,-1.1653,-1.2175,-1.08,-0.9903,-1.0039,-1.0032,-0.9903,-0.9625,-0.9537,-0.9245,-0.8703,-0.8492,0.0,0.0,0.0,0.0,0.0,0.0,0.0,0.0,0.0,0.0,0.0,0.0,0.0,0.0,0.0,0.0,0.0,0.0,0.0,0.0,0.0,0.0,0.0,0.0,0.0,0.0,0.0,0.0,0.0,-1.7382,-1.7809,-1.7742,-1.7689,-1.7328,0.0,0.0,0.0,0.0,0.0,0.0,0.0,0.0,0.0,-1.3523,-1.5117,-1.7246,-1.9973,-1.8598,-1.776,-1.7368,-1.5677,-1.3877,-1.1999,-1.2081,-1.2026,-1.187,-1.1959,-1.164,-1.1029,-1.0765,-1.0439,-1.0073,0.0,0.0,0.0,0.0,-0.9476,-0.9557,-0.9747,-0.9761,-0.9926,-1.1193,0.0,0.0,0.0,0.0,0.0,0.0,0.0,0.0,0.0,0.0,-0.9958,-0.9998,-1.0168,-1.0369,-1.0674,-1.0539,-1.0647,0.0,-1.1087,-1.0665,-1.0977,0.0,0.0,0.0,0.0,-1.2812,-1.0915,-1.1139,-1.1297,-1.074,-1.013,-0.9917,-1.0161,-1.01,-1.0066,-1.01,-0.9795,-0.949,-0.9225,-0.8825,-0.9159,0.0,0.0,0.0,0.0,0.0,0.0,0.0,0.0,0.0,0.0,0.0,0.0,0.0,0.0,0.0,0.0,0.0,0.0,0.0,0.0,0.0,0.0,0.0,0.0,0.0,0.0,0.0,0.0,-1.7956,-1.8277,-1.7782,-1.837,-1.825,0.0,0.0,0.0,0.0,0.0,0.0,-1.2717,-1.2097,-1.2346,-1.3394,-1.4808,-1.7077,-2.026,-1.9138,-1.8549,-1.8341,-1.6926,-1.4957,-1.2406,-1.2474,-1.2379,-1.2182,-1.2298,-1.2216,-1.1959,-1.1402,-1.0975,-1.0636,-1.0337,-1.0127,-0.9992,-0.9992,-0.9992,-1.0039,-1.0378,-1.0399,-1.039,-1.1306,-1.2812,-1.432,-1.4987,0.0,0.0,0.0,0.0,-1.1923,-1.0258,-1.0019,-1.0215,-1.0439,-1.0609,-1.0636,-1.0344,-1.0188,-1.0501,0.0,-1.0428,-0.9461,-1.0387,0.0,0.0,0.0,0.0,-1.1726,-0.9068,-1.0347,-1.1041,-0.971,-0.9774,-0.9971,-1.0202,-1.0188,-1.0243,-1.0426,-1.0059,-0.9781,-0.9666,-0.9198,-0.9261,-0.9965,0.0,0.0,0.0,0.0,0.0,0.0,0.0,0.0,0.0,0.0,0.0,0.0,0.0,0.0,0.0,0.0,0.0,0.0,0.0,0.0,0.0,0.0,0.0,0.0,0.0,0.0,0.0,0.0,0.0,-1.9292,-2.0267,0.0,0.0,0.0,0.0,-1.7346,-1.5782,-1.4595,-1.3892,-1.2383,-1.2507,-1.4725,-1.4935,-1.7171,-2.158,-2.1603,-2.0813,-1.9179,-1.8967,-1.6715,-1.2705,-1.2562,-1.2494,-1.2481,-1.2488,-1.2481,-1.2433,-1.1972,-1.1525,-1.1097,-1.0799,-1.0595,-1.046,-1.046,-1.046,-1.046,-1.0487,-1.0399,-1.0304,-1.0555,-1.2158,-1.443,-1.5792,-1.6968,0.0,0.0,-1.3973,-1.3646,-1.0725,-1.0256,-1.0473,-1.0487,-1.0609,-1.0636,-1.0344,-1.0276,-1.0086,0.0,-0.936,-0.9608,-1.0659,0.0,-1.0632,-1.0543,-1.1831,-1.1833,-0.923,-1.0416,-1.1041,-0.971,-0.9869,-1.0046,-1.0059,-1.031,-1.0419,-1.0297,-1.0392,-1.0256,-0.9829,-0.9652,-0.9361,-0.903,-0.9875,0.0,0.0,0.0,0.0,0.0,0.0,0.0,0.0,0.0,0.0,0.0,0.0,0.0,0.0,0.0,0.0,0.0,0.0,0.0,0.0,0.0,0.0,0.0,0.0,0.0,0.0,0.0,0.0,-2.0241,-2.1243,0.0,-2.0174,-2.0494,-2.0637,-2.0125,-1.9125,-1.7812,-1.6399,-1.4779,-1.3806,-1.3391,-1.3759,-1.6047,-2.043,-2.043,-2.0074,-1.9664,-1.9432,-1.7118,-1.301,-1.2861,-1.2745,-1.2644,-1.2542,-1.2501,-1.2488,-1.2332,-1.2054,-1.1701,-1.1307,-1.1118,-1.1056,-1.0962,-1.0867,-1.0799,-1.0894,-1.0765,-1.0685,-1.166,-1.2499,-1.3229,-1.471,-1.6245,-1.6868,-1.3759,-1.3901,-1.4413,-1.1206,-1.0561,-1.0636,-1.0636,-1.0677,-1.0663,-1.046,-1.0344,-1.0188,-0.9869,-0.9612,-0.9578,-0.9817,-0.9677,-0.9522,-0.9347,-1.0598,-1.0847,-0.9001,-1.0355,-1.0993,-0.9573,-0.9727,-0.9985,-1.0181,-1.0297,-1.0371,-1.0412,-1.0378,-1.0243,-0.9978,-0.9741,-0.9442,-0.9083,-0.9211,-1.0231,0.0,0.0,0.0,0.0,0.0,0.0,0.0,0.0,0.0,0.0,0.0,0.0,0.0,0.0,0.0,0.0,0.0,0.0,0.0,0.0,0.0,0.0,0.0,0.0,0.0,0.0,-2.1296,-2.1002,-2.2365,-2.2819,-2.1537,-2.2124,-2.2592,-2.2592,-2.1666,-2.0117,-1.8127,-1.6653,-1.4899,-1.2725,-1.3064,-1.5023,-1.8551,-1.9354,-1.9755,-1.9907,-1.9674,-1.7645,-1.4297,-1.3346,-1.2874,-1.2725,-1.2623,-1.2549,-1.2501,-1.2447,-1.2345,-1.2169,-1.1775,-1.1586,-1.1525,-1.1369,-1.1253,-1.1172,-1.1165,-1.1002,-1.0905,-1.1911,-1.2298,-1.2798,-1.4413,-1.6075,-1.6808,-1.4182,-1.4468,-1.4747,-1.1593,-1.0717,-1.0717,-1.0717,-1.0717,-1.0677,-1.0527,-1.0378,-1.0236,-1.008,-0.9849,-0.9717,-1.0033,-0.9567,-0.9188,-0.9465,-1.0054,-1.0021,-0.9044,-1.0023,-1.0492,-0.9573,-0.972,-0.9978,-1.0181,-1.0297,-1.0371,-1.0419,-1.0331,-1.0168,-0.991,-0.9761,-0.9517,-0.9157,-0.9667,-1.0681,-1.2274,0.0,0.0,0.0,0.0,0.0,0.0,0.0,0.0,0.0,0.0,0.0,0.0,0.0,0.0,0.0,0.0,0.0,0.0,0.0,0.0,0.0,0.0,0.0,-1.9466,-2.0935,-2.1951,-2.1697,-2.3688,-2.4529,-2.31,-2.3995,-2.4676,-2.4663,-2.3091,-2.1329,-1.9386,-1.7554,-1.5586,-1.3336,-1.3322,-1.4383,-1.6647,-1.8779,-1.9755,-1.9907,-1.9694,-1.8474,-1.6385,-1.3982,-1.2881,-1.2739,-1.2725,-1.2637,-1.2488,-1.2352,-1.2379,-1.2474,-1.2176,-1.1972,-1.1823,-1.1681,-1.1619,-1.1558,-1.126,-1.1063,-1.0914,-1.0765,-1.1657,-1.3182,-1.4836,-1.6327,-1.719,-1.5792,-1.5346,-1.4757,-1.1461,-1.0717,-1.0717,-1.0717,-1.0717,-1.0677,-1.0527,-1.0378,-1.0236,-1.008,-0.9924,-1.0251,-1.15,-1.0547,-1.0023,-1.1224,-1.0293,0.0,-0.9381,-0.9517,-0.9612,-0.9612,-0.9876,-1.0053,-1.0059,-1.0324,-1.0426,-1.0283,-1.0263,-1.0066,-0.9625,-0.9734,-0.9598,-0.9164,-1.115,-1.2191,-1.2394,0.0,0.0,0.0,0.0,0.0,0.0,0.0,0.0,0.0,0.0,0.0,0.0,0.0,0.0,0.0,0.0,0.0,0.0,0.0,0.0,0.0,0.0,-2.0481,-2.0615,-2.2164,-2.3487,-2.4048,-2.4877,-2.5317,-2.513,-2.5398,-2.5504,-2.5291,-2.5072,-2.3915,-2.1745,-1.9758,-1.7654,-1.5578,-1.4246,-1.4499,-1.6647,-1.7417,-1.8578,-1.9907,-1.8374,-1.7199,-1.64,-1.4033,-1.2935,-1.2888,-1.2664,-1.2542,-1.2501,-1.2461,-1.2467,-1.2474,-1.2176,-1.2033,-1.1979,-1.183,-1.1565,-1.126,-1.107,-1.0907,-1.0778,-1.0731,-1.0955,-1.1439,-1.1826,-1.3215,-1.4078,-1.2457,-1.2988,-1.3387,-1.1233,-1.0717,-1.0717,-1.0717,-1.0717,-1.0677,-1.0527,-1.0378,-1.0236,-1.008,-0.9924,-0.9895,-1.0101,-0.9842,-0.9676,-0.9975,-0.9606,0.0,-0.9381,-0.9517,-0.9646,-0.9754,-0.9937,-1.0134,-1.0351,-1.0351,-1.0276,-1.012,-0.991,-0.9741,-0.9612,-0.9544,-0.9395,-0.9157,-1.0434,-1.1594,0.0,0.0,0.0,0.0,0.0,0.0,0.0,0.0,0.0,0.0,0.0,0.0,0.0,0.0,0.0,0.0,0.0,0.0,0.0,0.0,0.0,0.0,-2.0641,-2.1777,-2.2325,-2.3407,-2.4409,-2.517,-2.5625,-2.5945,-2.6119,-2.6132,-2.6066,-2.5892,-2.6039,-2.51,-2.2851,-2.0836,-1.8865,-1.6613,-1.4754,-1.4168,-1.5401,-1.6607,-1.7608,-1.8707,-1.7417,-1.6875,-1.6592,-1.4215,-1.3078,-1.2949,-1.2773,-1.2623,-1.2501,-1.2501,-1.2501,0.0,0.0,0.0,0.0,0.0,-1.1538,-1.124,-1.109,-1.0941,-1.0806,-1.0744,-1.0717,-1.085,-1.1637,-1.2545,-1.3062,-1.2025,-1.2545,-1.2931,-1.1108,-1.0717,-1.0717,-1.0717,-1.0717,-1.0697,-1.0609,-1.0426,-1.0256,-1.0161,-0.9971,0.0,-0.9713,-0.97,-0.9666,-0.9578,-0.9564,-0.9564,-0.9564,-0.9646,-0.9754,-0.9903,-0.9998,-1.0148,-1.0385,-1.0331,0.0,0.0,0.0,-0.9673,-0.9612,-0.9462,0.0,0.0,0.0,-1.1302,-1.2056,0.0,0.0,0.0,-1.6452,-1.6473,0.0,0.0,0.0,0.0,0.0,0.0,0.0,0.0,0.0,0.0,0.0,0.0,0.0,0.0,0.0,0.0,-2.2031,-2.33,-2.4128,-2.4556,-2.4983,-2.5504,-2.6052,-2.64,-2.644,-2.644,-2.6453,-2.648,-2.6493,-2.5672,-2.3716,0.0,0.0,0.0,0.0,-1.4022,-1.3838,-1.574,-1.7094,-1.7552,-1.6877,-1.6793,-1.7259,-1.46,-1.3234,-1.2983,-1.2969,-1.2807,-1.2556,-1.2535,-1.2508,-1.2447,-1.2169,-1.2054,-1.1999,-1.1721,-1.1525,-1.1369,-1.1212,0.0,0.0,-1.0772,-1.0717,-1.0982,-1.2545,-1.3062,-1.3062,-1.3062,-1.3062,-1.2676,-1.1108,-1.0717,-1.0717,-1.0717,-1.0717,-1.0717,-1.0697,-1.0487,-1.0297,-1.0263,-1.0032,-0.9842,-0.9822,-0.9822,-0.9822,-0.9822,-0.9822,-0.9822,-0.9822,-0.9822,-0.9883,-1.0059,0.0,0.0,-1.0317,-1.0317,-1.0243,-1.0086,-0.993,-0.9781,-0.9639,-0.9537,-0.9462,-0.9435,-1.0562,-1.1143,-1.1293,-1.271,-1.4161,-1.5736,-1.6647,-1.6985,0.0,0.0,0.0,0.0,0.0,0.0,0.0,0.0,0.0,0.0,0.0,0.0,0.0,0.0,0.0,-2.1256,-2.2819,-2.4088,-2.4489,-2.5211,-2.5745,-2.5852,-2.6186,-2.648,-2.6707,-2.6734,-2.6841,-2.7081,-2.7094,-2.6932,-2.6593,-2.4468,-2.2157,-1.9992,-1.7843,-1.584,-1.3844,-1.443,-1.649,-1.9884,0.0,0.0,-1.9561,-1.5123,-1.3186,-1.3125,-1.301,-1.2929,-1.2861,-1.2739,-1.2542,-1.2311,-1.2135,-1.1986,-1.1857,-1.1681,-1.1525,-1.1369,-1.1212,-1.107,-1.0921,-1.0772,-1.0717,-1.0717,-1.1108,-1.124,0.0,-1.124,-1.124,-1.1115,-1.085,-1.0717,-1.0717,-1.0717,-1.0717,-1.0683,-1.0561,-1.0493,-1.0378,-1.0141,-1.0046,-0.9964,-0.9842,-0.9822,-0.9822,-0.9822,-0.9822,-0.9822,-0.9822,-0.9822,-0.9924,-1.0209,-1.0236,-1.0344,-1.0616,-1.0521,-1.0392,-1.0243,-1.0093,-0.9937,-0.9788,-0.9992,-0.9992,-0.9741,-0.9856,-1.0412,-1.1486,-1.2898,-1.4468,-1.6004,-1.6029,-1.6505,0.0,0.0,0.0,0.0,0.0,0.0,0.0,0.0,0.0,0.0,0.0,-1.9158,0.0,0.0,-2.167,-2.2712,-2.3741,-2.4623,-2.5211,-2.5798,-2.6172,-2.6172,-2.6426,-2.672,-2.7014,-2.7041,-2.7108,-2.7255,-2.7268,-2.7268,-2.7268,-2.5219,-2.3089,-2.0726,-1.8723,-1.6554,-1.4068,-1.5432,-1.7107,-1.8864,-1.6576,-1.6607,-1.8413,-1.4856,-1.3247,-1.3166,-1.3098,-1.3024,-1.2949,-1.2793,-1.2596,-1.2379,-1.2237,-1.2033,-1.1816,-1.1674,-1.1525,-1.1382,-1.1301,-1.1179,-1.1029,-1.088,-1.0833,-1.0819,-1.0744,-1.0717,-1.0717,-1.0717,-1.0717,-1.0717,-1.0717,-1.0717,-1.0717,-1.0717,-1.0717,-1.0677,-1.0527,-1.0432,-1.0317,-1.0093,-0.9985,-0.991,-0.9836,-0.9822,-0.9822,-0.9822,-0.9822,-0.9822,-0.9822,-0.989,-1.0025,-1.0256,-1.0344,-1.048,-1.0704,-1.0582,-1.0432,-1.029,-1.0209,-1.0134,-1.0053,-1.0202,-1.0209,-1.0053,-0.9903,-1.0151,-1.0778,-1.1419,-1.2998,-1.5308,-1.5189,-1.6186,0.0,0.0,0.0,0.0,0.0,0.0,0.0,0.0,-1.845,-1.9399,-1.9786,-2.0281,-2.1349,-2.2017,-2.2832,-2.4088,-2.4623,-2.5144,-2.5852,-2.6253,-2.6493,-2.656,-2.676,-2.7028,-2.7321,-2.7348,-2.7375,-2.7428,-2.7442,-2.7442,-2.7442,-2.5954,-2.3687,-2.0958,-1.9232,-1.7071,-1.4299,-1.6553,-1.7836,-1.7991,-1.7468,-1.7449,-1.7426,-1.4614,-1.3336,-1.3214,-1.3214,-1.3132,-1.299,-1.284,-1.2684,-1.2528,-1.2359,-1.2121,-1.1857,-1.1714,-1.1565,-1.143,-1.1402,-1.1294,-1.1145,-1.1029,-1.0948,-1.0887,-1.0792,-1.0744,-1.0717,-1.0717,-1.0717,-1.0717,-1.0717,-1.0717,-1.0717,-1.0717,-1.0717,-1.0683,-1.0561,-1.0446,-1.0317,-1.0161,-1.0012,-0.9903,-0.9869,-0.9842,-0.9822,-0.9822,-0.9842,-0.9863,-0.9863,-0.9998,-1.0154,-1.0304,-1.0426,-1.0555,-1.0711,-1.0609,-1.0487,-1.0371,-1.0365,-1.0365,-1.0365,-1.0365,-1.0365,-1.0365,-1.0188,-1.0093,-1.0093,-1.0515,-1.2097,-1.4609,-1.5203,-1.6646,-1.3186,-1.5433,-1.7912,-1.8611,-1.8744,-1.9185,0.0,0.0,-2.0655,-2.179,-2.2058,-2.2285,-2.2953,-2.3554,-2.4088,-2.4516,-2.5277,-2.5838,-2.5945,-2.6426,-2.6867,-2.7134,-2.7201,-2.7335,-2.7629,-2.7655,-2.7762,-2.803,-2.8043,-2.8043,-2.8043,-2.7901,-2.5677,-2.1353,-2.0865,-1.8802,-1.4299,-1.6553,-1.8703,-2.0377,-1.8309,-1.828,-1.9736,-1.5435,-1.339,-1.3376,-1.3376,-1.3288,-1.3139,-1.2996,-1.284,-1.2678,-1.24,-1.2189,-1.202,-1.1864,-1.1714,-1.1572,-1.1436,-1.1294,-1.1158,-1.1145,-1.0962,-1.0765,-1.0887,-1.0826,-1.0717,-1.0717,-1.0717,-1.0717,-1.0717,-1.0717,-1.0717,-1.0717,-1.0717,-1.0717,-1.0697,-1.0683,-1.0622,-1.0473,-1.0324,-1.0181,-1.0046,-0.991,-0.9822,-0.9822,-0.9937,-1.0025,-1.0025,-1.0161,-1.031,-1.0453,-1.048,-1.0555,-1.0711,-1.0704,-1.069,-1.067,-1.067,-1.067,-1.067,-1.067,-1.067,-1.067,-1.0399,-1.0256,-1.0256,-1.2873,-1.4242,-1.4718,-1.7572,-1.8971,-1.6982,-1.8033,-1.8945,0.0,-1.9947,-2.0428,-2.1349,-2.1496,-2.1724,-2.2739,-2.3086,-2.334,-2.3754,-2.4315,-2.481,0.0,-2.5598,-2.6012,-2.6186,-2.656,-2.68,-2.676,-2.7201,-2.7629,-2.7923,-2.7963,-2.8003,-2.8136,-2.8136,-2.8136,-2.8136,-2.8136,-2.6758,-2.3298,-2.3298,-2.1566,-1.8287,-2.0702,-2.1453,-2.0887,-2.1304,-2.0477,-1.8429,-1.6516,-1.4937,-1.3532,-1.3532,-1.3444,-1.3288,-1.3057,-1.2922,-1.2834,-1.2528,-1.2271,-1.204,-1.1884,-1.1742,-1.1613,-1.1545,-1.1484,-1.1416,-1.1321,-1.1151,-1.0975,-1.0955,-1.0839,-1.0717,-1.0717,-1.0717,-1.0717,-1.0717,-1.0717,-1.0717,-1.0717,-1.0717,-1.0697,-1.0609,-1.0588,-1.0541,-1.0399,-1.0249,-1.0127,-1.0059,-0.9924,-0.9849,-0.9937,-0.993,-0.9951,-1.0039,-1.0181,-1.0371,-1.0602,-1.0622,-1.0649,-1.0717,-1.0717,-1.0717,-1.0717,-1.0717,-1.0717,-1.0717,-1.0717,-1.0717,-1.0717,-1.0514,-1.0365,-1.0283,-1.239,-1.3769,-1.4599,-1.6973,-1.8519,-1.9168,-1.9679,0.0,-2.0334,-2.1042,-2.167,-2.1977,-2.2271,-2.2686,-2.342,-2.3741,-2.3981,-2.4262,-2.473,-2.517,-2.5464,-2.5758,-2.6052,-2.6346,-2.6573,-2.6653,-2.652,-2.7068,-2.7602,-2.7989,-2.8096,-2.8136,-2.8136,-2.8136,-2.8136,-2.8136,-2.8136,-2.7109,-2.4691,-2.4691,-2.3641,-2.1221,-2.347,-2.3699,-2.1747,-2.355,-2.2375,-1.8811,-1.7582,-1.5853,-1.3627,-1.3587,-1.3505,-1.3376,-1.3085,-1.2963,-1.2929,-1.2623,-1.2345,-1.2108,-1.1952,-1.1775,-1.1619,-1.1619,-1.1592,-1.1545,-1.1477,-1.1294,-1.109,-1.1029,-1.0873,-1.0717,-1.0717,-1.0717,-1.0717,-1.0717,-1.0717,-1.0717,-1.0717,-1.0717,-1.069,-1.0575,-1.0555,-1.0527,-1.0419,-1.0276,-1.0175,-1.0175,-1.0046,-0.9985,-1.0093,-1.0019,-1.0005,-1.0154,-1.0304,-1.048,-1.0697,-1.0717,-1.0717,-1.0717,-1.0717,-1.0717,-1.0717,-1.0717,-1.0717,-1.0717,-1.0717,-1.0717,-1.0717,-1.0568,-1.0439,-1.0337,-1.1752,-1.3152,-1.469,-1.629,-1.7806,-1.8151,0.0,-2.0347,-2.0935,-2.1951,-2.2886,-2.3207,-2.35,-2.3808,-2.4115,-2.4182,-2.4275,-2.4569,-2.4877,-2.517,-2.5464,-2.5758,-2.6052,-2.6346,-2.64,-2.6507,-2.6774,-2.6827,-2.7081,0.0,-2.7976,-2.8136,-2.8136,-2.8136,-2.8136,-2.8136,-2.8136,-2.7109,-2.4691,-2.4691,-2.3641,-2.1221,-2.347,-2.4561,-2.4123,-2.4045,-2.3786,-2.3202,-1.8702,-1.5451,-1.362,-1.3471,-1.3403,-1.3376,-1.3085,-1.2963,-1.2929,-1.2623,-1.2413,-1.2264,-1.2108,-1.187,-1.1619,-1.1619,-1.1525,-1.1423,-1.1565,-1.1314,-1.0982,-1.1118,-1.0955,-1.0717,-1.0717,-1.0717,-1.0717,-1.0717,-1.0717,-1.0717,-1.0717,-1.0717,-1.0717,-1.0717,-1.0711,-1.0711,-1.0711,-1.0582,-1.048,-1.048,-1.0365,-1.027,-1.0276,-1.027,-1.0317,-1.046,-1.0616,-1.0711,-1.0717,-1.0717,-1.0717,-1.0717,-1.0717,-1.0717,-1.0717,-1.0717,-1.0717,-1.0717,-1.0717,-1.0717,-1.0717,-1.0568,-1.0487,-1.0487,-1.1807,-1.3224,-1.4781,-1.6357,-1.7806,-1.9389,0.0,-2.1296,-2.2084,-2.2873,-2.3541,-2.3834,-2.4128,-2.4369,-2.4476,-2.4022,-2.3647,-2.3754,-2.4008,-2.4302,-2.4596,-2.5384,-2.6052,-2.6346,-2.656,-2.6573,-2.6279,-2.6934,0.0,0.0,0.0,0.0,-2.8123,-2.8136,-2.8136,-2.8136,-2.8136,-2.7799,-2.7109,-2.7109,-2.6588,-2.5884,-2.6588,-2.6186,-2.4561,-2.2917,-2.2752,-2.3867,-1.925,-1.6607,-1.5782,-1.4237,-1.3437,-1.3234,-1.3037,-1.2901,-1.2786,-1.2583,-1.2413,-1.2271,-1.2121,-1.1932,-1.1748,-1.1653,-1.1586,-1.1552,-1.1599,-1.1382,-1.1097,-1.1151,-1.0955,-1.0717,-1.0717,-1.0717,-1.0717,-1.0717,-1.0717,-1.0717,-1.0717,-1.0717,-1.0717,-1.0717,-1.0717,-1.0717,-1.0717,-1.0595,-1.0493,-1.0493,-1.0371,-1.031,-1.0405,-1.0419,-1.0439,-1.0487,-1.0622,-1.0717,-1.0717,-1.0717,-1.0717,-1.0717,-1.0717,-1.0717,-1.0717,-1.0717,-1.0717,-1.0717,-1.0717,-1.0717,-1.0717,-1.067,-1.0595,-1.0493,-1.2043,-1.3546,-1.5135,-1.6496,-1.8077,-2.0307,-2.1189,-2.2071,-2.2966,-2.3554,-2.3995,-2.4289,-2.4502,-2.4609,-2.4502,-2.3861,-2.3287,-2.318,-2.3233,-2.338,-2.3674,-2.4449,-2.5264,-2.5972,-2.6052,-2.6132,-2.6386,-2.6894,-2.7201,0.0,0.0,0.0,-2.8123,-2.8136,-2.8136,-2.8136,-2.8136,-2.8136,-2.8136,-2.8136,-2.8136,-2.8136,-2.8136,-2.7396,-2.5748,-2.4106,-2.363,-2.3983,-2.0111,-1.7768,-1.676,-1.4499,-1.3356,-1.3159,-1.2963,-1.282,-1.2712,-1.2562,-1.2447,-1.2338,-1.2135,-1.1999,-1.1884,-1.1687,-1.1619,-1.1619,-1.1619,-1.145,-1.1246,-1.1246,-1.1036,-1.0799,-1.0799,-1.0765,-1.0717,-1.0717,-1.0717,-1.0717,-1.0717,-1.0717,-1.0717,-1.0717,-1.0717,-1.0717,-1.0717,-1.0643,-1.0575,-1.0575,-1.05,-1.0466,-1.0561,-1.0575,-1.0575,-1.0575,-1.0656,-1.0717,-1.0717,-1.0717,-1.0717,-1.0717,-1.0717,-1.0717,-1.0717,-1.0772,-1.0778,-1.0724,-1.0772,-1.0778,-1.0724,-1.0717,-1.067,-1.0575,-1.1545,-1.3233,-1.5367,-1.6129,-1.7744,-2.0922,-2.1804,-2.2699,-2.3567,-2.4008,-2.4302,-2.4569,-2.4623,-2.4529,-2.4222,-2.3661,-2.314,0.0,0.0,-2.2498,-2.2806,-2.3193,-2.3955,-2.5384,-2.513,-2.5411,0.0,0.0,0.0,0.0,0.0,0.0,-2.8123,0.0,-2.8136,-2.8136,-2.8136,-2.8136,-2.8136,-2.8136,-2.8136,-2.8136,-2.8136,-2.8003,-2.7722,-2.7428,-2.6108,-2.3904,-2.1263,-1.9048,-1.6884,-1.443,-1.3329,-1.3125,-1.2847,-1.2725,-1.2705,-1.2556,-1.2501,-1.2467,-1.2169,-1.206,-1.202,-1.1721,-1.1619,-1.1619,-1.1619,-1.1518,-1.1389,-1.1389,-1.1185,-1.0948,-1.0955,-1.0846,-1.0724,-1.0731,-1.0724,-1.0717,-1.0717,-1.0717,-1.0717,-1.0717,-1.0717,-1.0717,-1.0717,-1.0717,-1.0717,-1.0717,-1.0717,-1.0717,-1.0717,-1.0717,-1.0717,-1.0717,-1.0717,-1.0717,-1.0717,-1.0717,-1.0724,-1.0731,-1.0724,-1.0724,-1.0744,-1.0873,-1.0887,-1.0751,-1.088,-1.0887,-1.0731,-1.0731,-1.0724,-1.0717,-1.0706,-1.229,-1.5473,-1.5503,-1.7134,-2.159,-2.2579,-2.3527,-2.3981,-2.4315,-2.4543,-2.4623,-2.4476,-2.4168,-2.3661,-2.2726,-2.1844,0.0,0.0,0.0,-2.2779,-2.4222,0.0,-2.6373,-2.6734,0.0,-2.7241,0.0,-2.7696,-2.7696,-2.7896,0.0,0.0,-2.8136,-2.8136,-2.8136,-2.8136,-2.8136,-2.8136,-2.8136,-2.8136,-2.8136,-2.8136,-2.811,-2.803,-2.7736,-2.7139,-2.6246,-2.375,-2.1297,-1.893,-1.658,-1.4479,-1.2834,-1.2759,-1.2664,-1.2556,-1.2515,-1.2501,-1.2467,-1.2169,-1.206,-1.202,-1.1721,-1.1619,-1.1619,-1.1619,-1.1518,-1.1389,-1.1389,-1.1185,-1.0968,-1.1077,-1.0921,-1.0744,-1.086,-1.0806,-1.0717,-1.0717,-1.0717,-1.0717,-1.0717,-1.0717,-1.0717,-1.0717,-1.0717,-1.0717,-1.0717,-1.0717,-1.0717,-1.0717,-1.0717,-1.0717,-1.0717,-1.0717,-1.0717,-1.0717,-1.0717,-1.0765,-1.088,-1.0785,-1.0812,-1.1036,-1.0989,-1.0982,-1.105,-1.109,-1.1043,-1.0894,-1.0894,-1.0833,-1.0717,-1.198,-1.3639,-1.5822,-1.6877,-1.8529,-2.2378,-2.326,-2.4035,-2.4329,-2.4516,-2.4529,-2.4155,-2.3941,-2.3581,-2.2726,-2.1817,0.0,-2.0561,0.0,0.0,0.0,0.0,0.0,-2.6306,-2.672,-2.7108,0.0,-2.7829,0.0,-2.7896,-2.8043,-2.8136,0.0,-2.8136,-2.8136,-2.8136,-2.8136,-2.8136,-2.8136,-2.8136,-2.8136,-2.8136,-2.8136,-2.8136,-2.8136,-2.7843,-2.7549,-2.7255,-2.48,-2.259,-2.0845,0.0,-1.5545,-1.3968,-1.304,-1.2637,-1.2501,-1.2501,-1.2501,-1.2474,-1.2244,-1.2121,-1.2026,-1.1796,-1.1674,-1.1619,-1.1619,-1.1558,-1.1491,-1.1491,-1.1328,-1.1145,-1.1158,-1.0995,-1.0826,-1.0846,-1.0785,-1.0717,-1.0717,-1.0717,-1.0717,-1.0717,-1.0772,-1.0839,-1.09,-1.0914,-1.0914,-1.0914,-1.0914,-1.0894,-1.0826,-1.0819,-1.0819,-1.0819,-1.0765,-1.0717,-1.0717,-1.0717,-1.0778,-1.0934,-1.0867,-1.0921,-1.1151,-1.1151,-1.1151,-1.1165,-1.1226,-1.1192,-1.1043,-1.1043,-1.0968,-1.0819,-1.174,-1.3532,-1.5913,-1.669,-1.8427,-2.3207,-2.3821,-2.4275,-2.4569,-2.4449,-2.405,-2.3373,-2.2981,-2.2585,-2.1683,0.0,-2.0508,-2.0174,-2.0628,-2.1203,-2.1657,0.0,-2.4409,-2.5919,-2.6159,-2.668,-2.7989,-2.7909,-2.7856,-2.8123,-2.8136,-2.8136,-2.8136,-2.8136,-2.8136,-2.8136,-2.8136,-2.8136,-2.8136,-2.8136,-2.8136,-2.8136,-2.8136,-2.8136,-2.8136,-2.7843,-2.7549,-2.7255,-2.4975,-2.3567,-2.2437,-1.8615,-1.6483,-1.5671,-1.3526,-1.2657,-1.2501,-1.2522,-1.2522,-1.2481,-1.2345,-1.2203,-1.2067,-1.1891,-1.1748,-1.1647,-1.1626,-1.1619,-1.1619,-1.1619,-1.1511,-1.1369,-1.1253,-1.1104,-1.0948,-1.0839,-1.0778,-1.0758,-1.0772,-1.0765,-1.0758,-1.0772,-1.0887,-1.1016,-1.1138,-1.1165,-1.1165,-1.1165,-1.1165,-1.1118,-1.0995,-1.0975,-1.0975,-1.0975,-1.0826,-1.0724,-1.0751,-1.0751,-1.0806,-1.0941,-1.0968,-1.1036,-1.1185,-1.1314,-1.1341,-1.1226,-1.1348,-1.1348,-1.1199,-1.1192,-1.1111,-1.0948,-1.1083,-1.272,-1.5524,-1.6043,-1.7859,-2.3875,-2.4128,-2.4275,-2.4569,-2.3248,-2.2165,-2.3038,-2.1672,0.0,0.0,-2.0548,-2.0147,-1.9613,-2.0187,-2.1162,-2.2432,0.0,0.0,0.0,0.0,-2.7575,0.0,0.0,0.0,0.0,0.0,0.0,0.0,0.0,-2.8136,-2.8136,-2.8136,-2.8136,-2.8136,-2.8136,-2.8136,-2.8136,-2.8136,-2.8136,-2.8136,-2.7843,-2.7549,-2.7255,-2.6624,-2.5034,-2.2753,-2.0199,0.0,-1.5836,-1.3807,-1.2759,-1.2515,-1.2637,-1.261,-1.2481,-1.2345,-1.2271,-1.221,-1.1925,-1.1816,-1.1775,-1.166,-1.1619,-1.1619,-1.1619,-1.1511,-1.1409,-1.1511,-1.1341,-1.1145,-1.1246,-1.109,-1.0941,-1.1056,-1.0995,-1.0941,-1.1056,-1.1111,-1.1131,-1.1158,-1.1165,-1.1165,-1.1165,-1.1165,-1.1151,-1.1131,-1.1124,-1.1124,-1.1124,-1.0887,-1.0772,-1.0894,-1.0907,-1.0921,-1.0948,-1.1056,-1.1192,-1.1341,-1.1375,-1.1436,-1.1538,-1.1565,-1.1504,-1.1355,-1.1348,-1.1219,-1.0948,-1.2412,-1.3244,-1.384,-1.6689,-1.8372,-2.4088,-2.4315,-2.4156,-2.3239,-2.2203,-2.1246,-2.1145,0.0,0.0,0.0,-1.988,-1.9693,-1.9412,-2.008,0.0,-2.1817,0.0,0.0,0.0,0.0,0.0,0.0,0.0,0.0,0.0,0.0,0.0,0.0,0.0,-2.8136,-2.8136,-2.8136,-2.8136,-2.8136,-2.8136,-2.8136,-2.8136,-2.8136,-2.8136,-2.8136,-2.8003,-2.7776,-2.7482,-2.7188,-2.6239,-2.456,-2.1188,0.0,-1.7371,-1.4313,-1.2779,-1.2508,-1.2583,-1.2569,-1.2494,-1.2427,-1.2352,-1.2271,-1.2121,-1.1965,-1.1823,-1.1748,-1.1681,-1.1619,-1.1619,-1.1565,-1.1511,-1.1504,-1.1396,-1.128,-1.1274,-1.1165,-1.1077,-1.1145,-1.1111,-1.1097,-1.1253,-1.128,-1.1307,-1.1382,-1.1402,-1.1402,-1.1402,-1.1402,-1.1375,-1.1294,-1.128,-1.128,-1.128,-1.1158,-1.1063,-1.1063,-1.1056,-1.109,-1.1172,-1.124,-1.1348,-1.1497,-1.1511,-1.1545,-1.1613,-1.1619,-1.1586,-1.1511,-1.1511,-1.1402,-1.1179,-1.1905,-1.272,-1.3468,-1.5974,-1.7602,-2.4315,-2.4596,-2.435,-2.2157,-2.1102,-2.0271,-1.8834,-1.8131,0.0,-1.8736,-1.9074,-1.9292,-1.9359,0.0,-2.0548,0.0,-2.2138,-2.3554,0.0,0.0,0.0,0.0,0.0,0.0,0.0,0.0,0.0,0.0,0.0,0.0,-2.8136,-2.8136,-2.8136,-2.8136,-2.8136,-2.8136,-2.8136,-2.8136,-2.8136,-2.8136,-2.8136,-2.7989,-2.7682,-2.7402,-2.6974,-2.6308,-2.1867,0.0,-1.8902,-1.4731,-1.2874,-1.2603,-1.2603,-1.2576,-1.2549,-1.2515,-1.2433,-1.2332,-1.2298,-1.2128,-1.1925,-1.1891,-1.1762,-1.1619,-1.1619,-1.1619,-1.1592,-1.147,-1.1443,-1.1409,-1.1294,-1.124,-1.1212,-1.1212,-1.124,-1.1301,-1.145,-1.1463,-1.1484,-1.1633,-1.164,-1.1626,-1.166,-1.1667,-1.1626,-1.1504,-1.1511,-1.1525,-1.1491,-1.1511,-1.1491,-1.1369,-1.1301,-1.128,-1.1341,-1.1402,-1.1491,-1.1613,-1.1647,-1.1681,-1.1714,-1.1714,-1.1701,-1.1667,-1.1667,-1.1572,-1.1389,-1.1267,-1.1797,-1.2941,-1.5026,-1.6613,-2.4917,-2.5211,-2.4901,-2.2469,-2.0181,-1.8247,-1.7056,0.0,-1.5535,-1.6961,-1.8083,-1.9052,-1.9319,-1.9439,0.0,0.0,0.0,-2.2605,0.0,-2.5798,0.0,0.0,0.0,0.0,0.0,0.0,0.0,0.0,0.0,0.0,-2.8136,-2.8136,-2.8136,-2.8136,-2.8136,-2.8136,-2.8136,-2.8136,-2.8136,-2.8136,-2.8136,-2.7989,-2.7682,-2.7402,-2.7094,-2.6439,-2.1945,0.0,0.0,-1.5077,-1.3186,-1.2922,-1.2922,-1.2834,-1.2691,-1.2556,-1.2494,-1.2467,-1.2332,-1.2271,-1.2223,-1.2088,-1.185,-1.1619,-1.1619,-1.1619,-1.1613,-1.1599,-1.1599,-1.1592,-1.1579,-1.147,-1.1369,-1.1369,-1.1477,-1.1613,-1.1762,-1.1687,-1.164,-1.1782,-1.1708,-1.166,-1.1789,-1.1809,-1.1809,-1.1789,-1.1911,-1.1952,-1.1809,-1.1911,-1.1993,-1.1979,-1.1735,-1.147,-1.1206,-1.1436,-1.1606,-1.1619,-1.1742,-1.187,-1.2013,-1.202,-1.1959,-1.1816,-1.1809,-1.1674,-1.1389,-1.1375,-1.1365,-1.1212,-1.4512,-1.6115,-2.469,-2.5291,-2.519,-2.2705,-2.0715,-1.9318,-1.8215,0.0,-1.6492,-1.8089,-1.8659,-1.9011,-1.9319,-1.9372,-1.9519,0.0,0.0,0.0,-2.314,-2.3794,-2.4836,0.0,0.0,0.0,0.0,0.0,0.0,0.0,0.0,0.0,-2.8136,-2.8136,-2.8136,-2.8136,-2.8136,-2.8136,-2.8136,-2.8136,-2.8136,-2.8136,-2.8136,-2.7989,-2.7682,-2.7402,-2.7108,-2.6479,-2.1956,0.0,0.0,-1.5008,-1.3091,-1.282,-1.282,-1.2725,-1.2583,-1.2522,-1.2501,-1.2494,-1.2433,-1.2366,-1.2277,-1.2223,-1.1993,-1.1748,-1.1748,-1.1687,-1.1619,-1.1619,-1.1619,-1.1619,-1.1619,-1.1572,-1.1531,-1.1531,-1.1572,-1.1633,-1.1694,-1.1728,-1.1762,-1.1823,-1.1864,-1.1904,-1.1959,-1.1972,-1.1972,-1.1972,-1.202,-1.204,-1.1979,-1.2101,-1.2162,-1.2074,-1.1959,-1.1837,-1.1714,-1.1816,-1.1884,-1.1884,-1.1938,-1.1999,-1.206,-1.206,-1.2033,-1.1972,-1.1972,-1.1864,-1.1653,-1.1572,-1.1423,-1.1212,-1.3687,-1.5128,-2.4329,-2.5157,-2.5242,-2.2802,-2.1207,-1.991,0.0,0.0,-1.722,-1.8402,-1.8774,-1.9011,-1.9319,-1.9372,-1.9372,-1.9372,-1.9853,-2.0641,-2.1817,-2.2498,-2.3607,0.0,0.0,0.0,0.0,0.0,0.0,0.0,0.0,0.0,-2.7279,-2.7799,-2.8136,-2.8136,-2.8056,-2.8056,-2.8136,-2.8056,-2.8016,-2.8016,-2.8096,-2.7936,-2.7562,-2.7362,-2.7108,-2.664,-2.2602,0.0,0.0,-1.574,-1.3661,-1.2793,-1.2745,-1.2664,-1.2562,-1.2522,-1.2501,-1.2501,-1.2501,-1.2433,-1.2345,-1.2305,-1.2115,-1.1891,-1.1843,-1.1735,-1.1619,-1.1619,-1.1619,-1.1619,-1.1619,-1.1619,-1.1619,-1.1619,-1.1619,-1.1647,-1.1728,-1.1789,-1.1857,-1.1952,-1.202,-1.2074,-1.2121,-1.2128,-1.2128,-1.2128,-1.2169,-1.2176,-1.2135,-1.2264,-1.2311,-1.2203,-1.2189,-1.2155,-1.2067,-1.206,-1.2081,-1.2128,-1.2128,-1.2149,-1.2189,-1.2189,-1.2176,-1.2128,-1.2128,-1.2054,-1.1898,-1.1755,-1.1606,-1.1457,-1.3636,-1.5885,-2.3968,-2.485,-2.5045,-2.2995,-2.1337,-1.9634,0.0,0.0,-1.6856,-1.6973,-1.8058,-1.9011,-1.9319,-1.9372,-1.9372,-1.9372,-1.9853,-2.0641,-2.1817,-2.2498,0.0,0.0,0.0,0.0,0.0,0.0,0.0,0.0,0.0,0.0,-2.4861,-2.6927,-2.8136,-2.8136,-2.7856,-2.7843,-2.8136,-2.7856,-2.7709,-2.7709,-2.8003,-2.7843,-2.7268,-2.7268,-2.7108,-2.664,0.0,0.0,0.0,-1.7342,-1.5007,-1.2942,-1.2793,-1.2725,-1.2712,-1.2556,-1.2501,-1.2501,-1.2501,-1.2501,-1.2474,-1.2338,-1.2182,-1.2033,-1.1877,-1.1735,-1.1619,-1.1619,-1.1619,-1.1619,-1.1619,-1.1619,-1.1619,-1.1619,-1.1619,-1.1701,-1.1993,-1.1938,-1.1918,-1.223,-1.2162,-1.2108,-1.2264,-1.2291,-1.2291,-1.2291,-1.2406,-1.2447,-1.2305,-1.2413,-1.2501,-1.2494,-1.2494,-1.2379,-1.2088,-1.206,-1.2128,-1.2277,-1.2291,-1.2352,-1.2488,-1.2494,-1.2433,-1.2291,-1.2291,-1.221,-1.206,-1.1904,-1.1755,-1.1613,-1.5208,-1.8688,-2.2445,-2.318,-2.3506,-2.2576,-2.1687,-2.063,-1.9608,-1.8809,-1.8237,-1.8237,-1.863,-1.8958,-1.9052,-1.9225,-1.9439,-1.9626,-1.9987,-2.0428,-2.1015,0.0,0.0,0.0,0.0,0.0,0.0,0.0,0.0,0.0,0.0,0.0,-2.4691,-2.5204,-2.6129,-2.7843,-2.7949,-2.7856,-2.7549,-2.7642,-2.7602,-2.7402,-2.7495,-2.7335,-2.6961,-2.6961,-2.68,0.0,0.0,-2.2773,-2.1734,-1.8017,-1.6062,-1.5003,-1.3532,-1.2759,-1.2569,-1.2522,-1.2501,-1.2501,-1.2501,-1.2501,-1.2481,-1.2338,-1.2257,-1.2189,-1.2033,-1.1816,-1.1619,-1.1619,-1.1619,-1.164,-1.1742,-1.1762,-1.1789,-1.1898,-1.1925,-1.1945,-1.204,-1.2108,-1.2176,-1.2271,-1.2332,-1.2379,-1.2427,-1.2433,-1.2433,-1.2433,-1.2474,-1.2488,-1.244,-1.2474,-1.2542,-1.2644,-1.2562,-1.2467,-1.2372,-1.2366,-1.2386,-1.2433,-1.2433,-1.2454,-1.2501,-1.2603,-1.2637,-1.2589,-1.2589,-1.2515,-1.2366,-1.2216,-1.2748,-1.377,-1.7086,-1.9437,-2.1162,-2.2004,-2.2512,-2.2432,-2.1683,0.0,0.0,0.0,-1.8918,-1.8918,-1.8918,-1.8918,-1.8918,-1.9172,-1.9426,-1.9613,-1.9973,-2.0374,-2.0788,0.0,0.0,0.0,0.0,0.0,0.0,0.0,0.0,0.0,0.0,0.0,-2.4409,-2.4338,-2.5224,-2.7375,-2.7549,-2.7575,-2.7428,-2.7388,-2.7281,-2.7094,-2.7215,-2.7054,-2.6667,-2.5944,-2.584,0.0,-2.4111,-2.2544,0.0,-1.8843,-1.6535,-1.4649,-1.3253,-1.2671,-1.2501,-1.2501,-1.2501,-1.2501,-1.2501,-1.2501,-1.2481,-1.2338,-1.225,-1.2189,-1.2088,-1.1891,-1.1701,-1.1701,-1.1701,-1.1735,-1.1877,-1.1918,-1.1945,-1.204,-1.206,-1.2081,-1.2135,-1.2223,-1.2305,-1.2359,-1.244,-1.2522,-1.2576,-1.2589,-1.2589,-1.2589,-1.2589,-1.2569,-1.2508,-1.2556,-1.2603,-1.2637,-1.261,-1.2589,-1.2589,-1.2535,-1.2501,-1.2501,-1.2501,-1.2528,-1.2583,-1.2678,-1.2732,-1.2732,-1.2732,-1.2657,-1.2501,-1.3108,-1.4231,-1.5967,-1.8746,-2.0467,0.0,-2.1096,-2.1804,-2.2098,-2.1336,0.0,0.0,0.0,0.0,-1.8865,-1.8891,-1.8918,-1.8905,-1.9158,-1.9372,-1.9399,-1.9747,-2.0196,-2.079,-2.2085,0.0,0.0,0.0,0.0,0.0,0.0,0.0,0.0,0.0,0.0,-2.3773,-2.3793,-2.4875,-2.6706,-2.6814,-2.7054,-2.7602,-2.7081,-2.6814,-2.6787,-2.7068,-2.6921,-2.607,-2.4368,-2.4517,0.0,-2.3952,-2.1896,-1.9897,-1.9583,-1.6841,-1.2993,-1.2683,-1.2522,-1.2501,-1.2501,-1.2501,-1.2501,-1.2501,-1.2494,-1.2467,-1.2332,-1.2189,-1.206,-1.206,-1.1952,-1.183,-1.1843,-1.1837,-1.187,-1.2033,-1.2081,-1.2081,-1.2088,-1.2094,-1.2135,-1.2277,-1.2305,-1.2345,-1.2488,-1.2515,-1.2569,-1.2718,-1.2745,-1.2745,-1.2732,-1.2739,-1.2691,-1.2535,-1.2651,-1.2698,-1.2562,-1.2664,-1.2752,-1.2759,-1.2603,-1.2508,-1.2515,-1.2508,-1.2569,-1.2725,-1.2739,-1.2752,-1.2759,-1.2752,-1.2671,-1.2515,-1.4302,-1.6202,-1.7915,-1.9712,-2.1463,-1.8557,0.0,-1.9386,-1.9679,-1.9372,-1.9065,0.0,0.0,0.0,0.0,0.0,-1.8851,-1.8637,-1.9011,-1.9439,-1.9666,-1.8892,-1.8368,-1.9088,0.0,0.0,0.0,0.0,0.0,0.0,0.0,0.0,0.0,0.0,-2.2186,-2.3762,-2.2113,-2.2905,-2.6985,-2.672,-2.656,-2.6694,-2.6774,-2.6707,-2.6493,-2.656,-2.5698,-2.3792,-2.3371,-2.352,-2.3792,-2.33,-2.3719,-2.456,-2.1188,-1.9006,-1.752,-1.4102,-1.2712,-1.2501,-1.2501,-1.2501,-1.2501,-1.2501,-1.2433,-1.2332,-1.2298,-1.2189,-1.206,-1.206,-1.1952,-1.1857,-1.1972,-1.1925,-1.1891,-1.2169,-1.2237,-1.2264,-1.2372,-1.24,-1.2406,-1.244,-1.2454,-1.2494,-1.2651,-1.2678,-1.2725,-1.2881,-1.2908,-1.2868,-1.2745,-1.2834,-1.2854,-1.2698,-1.2813,-1.2935,-1.3003,-1.2949,-1.2949,-1.3057,-1.2718,-1.2549,-1.2671,-1.2569,-1.2569,-1.2725,-1.284,-1.2956,-1.3064,-1.2963,-1.2834,-1.2678,-1.4373,-1.6134,-1.8148,-1.9837,-2.0781,-1.7836,-1.825,-1.8758,-1.9052,-1.8905,-1.8771,0.0,0.0,0.0,0.0,0.0,0.0,-1.8517,-1.9078,-1.9613,-1.9773,-1.8766,-1.8361,0.0,0.0,0.0,0.0,0.0,0.0,0.0,0.0,0.0,0.0,0.0,-2.2477,-2.3412,-2.1392,-2.1709,-2.5213,-2.5084,-2.5474,-2.6587,-2.6613,-2.6547,-2.6386,-2.6386,-2.5251,-2.314,-2.2054,-2.1997,-2.2805,-2.1997,-2.2665,-2.4196,-2.1941,-1.9645,-1.7381,-1.5072,-1.3418,-1.2501,-1.2501,-1.2501,-1.2501,-1.2501,-1.2447,-1.2386,-1.2386,-1.2332,-1.2264,-1.2264,-1.2162,-1.2047,-1.206,-1.2054,-1.2094,-1.2325,-1.2386,-1.2406,-1.2481,-1.2501,-1.2501,-1.2501,-1.2556,-1.263,-1.2712,-1.2786,-1.2881,-1.303,-1.3057,-1.303,-1.2949,-1.3003,-1.3003,-1.2854,-1.2969,-1.3064,-1.3071,-1.3064,-1.3091,-1.3166,-1.2888,-1.2718,-1.2732,-1.2718,-1.2745,-1.2834,-1.2976,-1.3098,-1.3173,-1.303,-1.2922,-1.2834,-1.4593,-1.6429,-1.8391,-2.0139,-2.0932,-1.7569,-1.8277,-1.9025,-1.9132,-1.8971,-1.8865,0.0,0.0,0.0,0.0,0.0,0.0,0.0,0.0,0.0,0.0,0.0,0.0,0.0,0.0,0.0,0.0,0.0,0.0,0.0,0.0,0.0,0.0,0.0,-2.361,-2.3644,-2.1383,-2.1231,-2.3472,-2.33,-2.4197,-2.668,-2.6493,-2.6386,-2.6386,-2.6056,-2.4736,-2.243,-2.0293,-2.0189,-2.1581,0.0,0.0,-2.206,-2.2437,-1.9913,-1.6033,-1.5735,-1.4353,-1.2501,-1.2501,-1.2501,-1.2501,-1.2474,-1.2467,-1.2467,-1.2467,-1.2467,-1.2467,-1.2467,-1.24,-1.2291,-1.2142,-1.2189,-1.2325,-1.2467,-1.2501,-1.2501,-1.2501,-1.2501,-1.2508,-1.2528,-1.2637,-1.2745,-1.2786,-1.2901,-1.3037,-1.3186,-1.3207,-1.32,-1.3173,-1.3193,-1.3152,-1.301,-1.3119,-1.3159,-1.3037,-1.3132,-1.3207,-1.3207,-1.3098,-1.2963,-1.2807,-1.2901,-1.2969,-1.299,-1.3132,-1.3207,-1.3207,-1.3064,-1.299,-1.299,-1.453,-1.645,-1.8434,-1.9992,-2.066,-1.7515,-1.8424,-1.9132,-1.8424,-1.821,-1.8263,0.0,0.0,0.0,0.0,0.0,0.0,0.0,0.0,0.0,0.0,0.0,0.0,0.0,0.0,0.0,0.0,0.0,0.0,0.0,0.0,0.0,0.0,0.0,-2.4037,-2.574,-2.2039,-2.1728,-2.574,-2.4111,-2.4025,-2.6092,-2.6293,-2.6386,-2.6386,-2.4442,-2.2385,-2.0103,-1.7994,-1.7093,-1.7241,0.0,-2.05,-2.2461,-2.2353,-2.0792,-1.8231,-1.6397,-1.4462,-1.2501,-1.2501,-1.2501,-1.2481,-1.2366,-1.2325,-1.2325,-1.2325,-1.2325,-1.2325,-1.2325,-1.2393,-1.244,-1.2298,-1.2271,-1.2325,-1.2467,-1.2501,-1.2501,-1.2501,-1.2501,-1.2535,-1.2664,-1.2712,-1.2807,-1.3057,-1.3125,-1.3186,-1.3342,-1.3363,-1.3322,-1.3193,-1.3281,-1.3308,-1.3159,-1.3275,-1.3356,-1.3336,-1.3356,-1.3363,-1.3363,-1.3349,-1.3268,-1.3112,-1.3017,-1.3017,-1.3132,-1.3288,-1.3363,-1.3363,-1.3214,-1.3139,-1.3139,-1.3179,-1.4281,-1.6285,-1.8187,-1.797,-1.7261,-1.7983,-1.8597,-1.8343,-1.8758,-1.9265,0.0,0.0,0.0,0.0,0.0,0.0,0.0,0.0,0.0,0.0,0.0,0.0,0.0,0.0,0.0,0.0,0.0,0.0,0.0,0.0,0.0,0.0,0.0,0.0,-2.439,-2.1618,-2.0761,-2.2414,-2.1567,-2.2225,-2.4346,-2.5439,-2.5919,-2.5919,-2.5113,-2.28,-1.9391,-1.8327,-1.7123,-1.6111,0.0,-1.9141,-2.1966,-2.2107,-2.0769,-1.8724,-1.7655,-1.5317,-1.2501,-1.2501,-1.2501,-1.2494,-1.2427,-1.2406,-1.2406,-1.2406,-1.2406,-1.2406,-1.2406,-1.2447,-1.2508,-1.2522,-1.2467,-1.242,-1.2481,-1.2501,-1.2522,-1.2603,-1.2623,-1.2664,-1.282,-1.2915,-1.301,-1.3146,-1.3241,-1.3315,-1.339,-1.3403,-1.3376,-1.3308,-1.3356,-1.3376,-1.3302,-1.3356,-1.3403,-1.3403,-1.3403,-1.3403,-1.3403,-1.3403,-1.337,-1.3302,-1.3159,-1.3146,-1.3288,-1.3363,-1.3403,-1.3403,-1.3336,-1.3295,-1.3295,-1.3078,-1.4076,-1.6115,-1.795,-1.774,-1.7074,-1.7635,-1.821,-1.8437,0.0,0.0,0.0,0.0,0.0,0.0,0.0,0.0,0.0,0.0,0.0,0.0,0.0,0.0,0.0,0.0,0.0,0.0,0.0,0.0,0.0,0.0,0.0,0.0,0.0,0.0,-2.3575,-2.1667,-2.0442,-2.0032,-2.0032,-2.1042,-2.2721,-2.4483,-2.5545,-2.5625,-2.4817,-2.2841,-1.9771,-1.8203,-1.687,-1.5759,-1.5906,-1.7501,-2.0252,-2.0894,-1.9941,-1.7815,-1.7815,-1.5693,-1.2501,-1.2501,-1.2501,-1.2501,-1.2501,-1.2501,-1.2501,-1.2501,-1.2501,-1.2501,-1.2501,-1.2501,-1.2528,-1.2644,-1.2589,-1.2515,-1.2589,-1.2583,-1.2583,-1.2705,-1.2732,-1.2773,-1.2929,-1.3071,-1.3186,-1.322,-1.3322,-1.3403,-1.3403,-1.3403,-1.3403,-1.3403,-1.3403,-1.3403,-1.3403,-1.3403,-1.3403,-1.3403,-1.3431,-1.3451,-1.3451,-1.3424,-1.3403,-1.3403,-1.3288,-1.3275,-1.3397,-1.3403,-1.3403,-1.3403,-1.3403,-1.3403,-1.3403,-1.3247,-1.3973,-1.557,-1.7603,-1.7585,-1.7074,-1.7796,-1.8464,0.0,0.0,0.0,0.0,0.0,0.0,0.0,0.0,0.0,0.0,0.0,0.0,0.0,0.0,0.0,0.0,0.0,0.0,0.0,0.0,0.0,0.0,0.0,0.0,0.0,0.0,0.0,-2.5816,-2.3732,-2.2502,-2.2222,-2.2233,-2.2128,-2.2036,-2.4291,-2.5651,-2.5919,-2.1715,-2.0393,-2.1544,-1.5827,-1.4034,-1.5557,-1.5557,-1.5701,-1.6142,-1.7976,-1.7673,-1.5693,-1.5693,-1.4322,-1.2501,-1.2501,-1.2501,-1.2501,-1.2501,-1.2501,-1.2501,-1.2501,-1.2501,-1.2501,-1.2501,-1.2501,-1.2501,-1.2515,-1.2508,-1.2569,-1.2854,-1.282,-1.2718,-1.2725,-1.2732,-1.2773,-1.2929,-1.3071,-1.3214,-1.3356,-1.3397,-1.3403,-1.3403,-1.3403,-1.3403,-1.3403,-1.3403,-1.3403,-1.3403,-1.3403,-1.3403,-1.3403,-1.3526,-1.3614,-1.3614,-1.3485,-1.3403,-1.3403,-1.339,-1.339,-1.3403,-1.3403,-1.3403,-1.3403,-1.3403,-1.3403,-1.3403,-1.3247,-1.3336,-1.3492,-1.5393,-1.6247,-1.6867,-1.6937,0.0,0.0,0.0,0.0,0.0,0.0,0.0,0.0,0.0,0.0,0.0,0.0,0.0,0.0,0.0,0.0,0.0,0.0,0.0,0.0,0.0,0.0,0.0,0.0,0.0,0.0,0.0,0.0,-2.5424,-2.2268,-2.0913,-2.1907,-2.0813,-2.0693,-2.1977,-2.392,-2.5117,-2.5411,-2.233,-2.0516,-1.9543,-1.605,-1.403,-1.358,-1.3524,-1.4322,-1.554,-1.6294,-1.6142,-1.5387,-1.4176,-1.3112,-1.2501,-1.2501,-1.2501,-1.2501,-1.2501,-1.2501,-1.2501,-1.2501,-1.2501,-1.2501,-1.2501,-1.2501,-1.2522,-1.2617,-1.2712,-1.2793,-1.2813,-1.2773,-1.2773,-1.2963,-1.3003,-1.3044,-1.32,-1.3275,-1.3336,-1.339,-1.3403,-1.3403,-1.3403,-1.3403,-1.3403,-1.3403,-1.3403,-1.3403,-1.3403,-1.3403,-1.3437,-1.3532,-1.3593,-1.3627,-1.3627,-1.3573,-1.3505,-1.3403,-1.3492,-1.3498,-1.3403,-1.358,-1.3634,-1.3546,-1.3546,-1.3546,-1.3546,-1.339,-1.3315,-1.3315,-1.5349,-1.5578,-1.6579,-1.6143,-1.5742,0.0,0.0,0.0,0.0,0.0,0.0,0.0,0.0,0.0,0.0,0.0,0.0,0.0,0.0,0.0,0.0,0.0,0.0,0.0,0.0,0.0,0.0,0.0,0.0,0.0,0.0,-2.1939,-2.3076,-2.0605,-1.9265,-1.9639,-1.9637,-2.0027,-2.0939,-2.3366,-2.4743,-2.4943,-2.2174,-2.0307,-1.9234,-1.608,-1.4114,-1.3268,-1.2762,-1.3259,-1.4475,-1.4475,-1.4475,-1.4475,-1.3112,-1.2501,-1.2501,-1.2501,-1.2501,-1.2501,-1.2501,-1.2501,-1.2501,-1.2501,-1.2501,-1.2501,-1.2501,-1.2535,-1.2596,-1.2698,-1.284,-1.2949,-1.2888,-1.2868,-1.2922,-1.3125,-1.3173,-1.32,-1.3308,-1.337,-1.3403,-1.3403,-1.3403,-1.3403,-1.3403,-1.3403,-1.3403,-1.3403,-1.3403,-1.3417,-1.3464,-1.3471,-1.3546,-1.3749,-1.3722,-1.3715,-1.3763,-1.3722,-1.3648,-1.3546,-1.3682,-1.3682,-1.3485,-1.3709,-1.3797,-1.3695,-1.3695,-1.3695,-1.3695,-1.3593,-1.3519,-1.3471,-1.4946,-1.5177,-1.6106,-1.5376,0.0,0.0,0.0,0.0,0.0,0.0,0.0,0.0,0.0,0.0,0.0,0.0,0.0,0.0,0.0,0.0,0.0,0.0,0.0,0.0,0.0,0.0,0.0,0.0,0.0,-1.9532,-1.9376,-1.9274,-1.906,-1.905,-1.7875,-1.554,-1.9478,-2.0692,-1.8723,-2.2657,-2.4636,-2.4488,-2.0542,-1.9629,-2.1291,-1.5234,-1.3568,-1.5387,-1.3414,-1.2501,-1.2501,-1.2501,-1.2501,-1.2501,-1.2501,-1.2501,-1.2501,-1.2501,-1.2501,-1.2501,-1.2501,-1.2501,-1.2501,-1.2501,-1.2501,-1.2501,-1.2501,-1.261,-1.2732,-1.2732,-1.284,-1.2996,-1.3139,-1.3173,-1.3173,-1.3173,-1.3173,-1.3173,-1.3173,-1.3295,-1.3403,-1.3403,-1.3403,-1.3403,-1.3403,-1.3403,-1.3403,-1.3403,-1.3403,-1.3458,-1.3607,-1.3634,-1.3743,-1.4041,-1.3933,-1.3905,-1.4061,-1.3933,-1.3844,-1.3838,-1.3987,-1.3939,-1.3641,-1.377,-1.3844,-1.3844,-1.3844,-1.3844,-1.3844,-1.3838,-1.377,-1.3634,-1.3627,-1.4703,-1.6914,-1.4289,0.0,0.0,0.0,0.0,0.0,0.0,0.0,0.0,0.0,0.0,0.0,0.0,0.0,0.0,0.0,0.0,0.0,0.0,0.0,0.0,0.0,0.0,0.0,0.0,-1.9843,-2.1119,-1.8246,-1.7208,-1.8663,-1.7292,-1.6968,-1.7663,-1.8874,-1.993,-2.0692,-2.3264,-2.4636,-2.4488,-2.0542,-1.8792,-1.9075,-1.4573,-1.2748,-1.3261,-1.2762,-1.2501,-1.2501,-1.2501,-1.2501,-1.2501,-1.2501,-1.2501,-1.2501,-1.2501,-1.2501,-1.2501,-1.2501,-1.2501,-1.2501,-1.2501,-1.2501,-1.2522,-1.263,-1.2691,-1.2752,-1.2861,-1.2996,-1.3119,-1.3159,-1.3254,-1.3336,-1.3336,-1.3336,-1.3336,-1.3336,-1.337,-1.3403,-1.3403,-1.3403,-1.3403,-1.3403,-1.3403,-1.3403,-1.3403,-1.3403,-1.3458,-1.3607,-1.381,-1.3973,-1.4061,-1.4034,-1.4021,-1.4068,-1.4027,-1.3953,-1.3844,-1.4089,-1.4095,-1.379,-1.4027,-1.4116,-1.4007,-1.4,-1.4,-1.4,-1.3892,-1.3817,-1.3777,-1.3675,-1.3937,-1.5458,0.0,0.0,0.0,0.0,0.0,0.0,0.0,0.0,0.0,0.0,0.0,0.0,0.0,0.0,0.0,0.0,0.0,0.0,0.0,0.0,0.0,0.0,0.0,0.0,-1.7615,-1.8255,-1.9208,-1.5993,-1.4749,-1.6142,-1.4935,-1.4935,-1.6151,-1.7815,-1.9176,-2.0391,-2.3163,-2.4516,-2.4488,-2.0441,-1.841,-1.822,-1.4275,-1.2454,-1.2379,-1.2467,-1.2501,-1.2501,-1.2501,-1.2501,-1.2501,-1.2501,-1.2501,-1.2501,-1.2501,-1.2501,-1.2501,-1.2501,-1.2501,-1.2501,-1.2501,-1.2542,-1.2596,-1.263,-1.2725,-1.284,-1.2935,-1.3064,-1.3186,-1.3247,-1.3336,-1.3403,-1.3403,-1.3403,-1.3403,-1.3403,-1.3403,-1.3403,-1.3403,-1.3403,-1.3403,-1.3403,-1.3403,-1.3424,-1.3485,-1.3593,-1.3702,-1.3797,-1.4014,-1.4163,-1.4163,-1.4163,-1.4163,-1.4163,-1.4163,-1.4122,-1.4027,-1.4197,-1.4217,-1.4034,-1.4204,-1.4258,-1.4163,-1.4163,-1.4163,-1.4163,-1.4068,-1.3994,-1.3933,-1.3844,-1.3743,-1.2411,0.0,0.0,0.0,0.0,0.0,0.0,0.0,0.0,0.0,0.0,0.0,0.0,0.0,0.0,0.0,0.0,0.0,0.0,0.0,0.0,0.0,0.0,-1.9063,-1.5233,-1.6689,-1.7067,-1.5227,-1.331,-1.2325,-1.2454,-1.2474,-1.2474,-1.2461,-1.6259,-1.824,-1.824,-2.208,-2.405,-2.4327,-2.0136,-1.835,-1.8421,-1.433,-1.2501,-1.2501,-1.2501,-1.2501,-1.2501,-1.2501,-1.2501,-1.2501,-1.2501,-1.2501,-1.2501,-1.2501,-1.2501,-1.2501,-1.2501,-1.2501,-1.2501,-1.2501,-1.2596,-1.2684,-1.2562,-1.2725,-1.2963,-1.2976,-1.3085,-1.3227,-1.3363,-1.3403,-1.3403,-1.3403,-1.3403,-1.3403,-1.3403,-1.3403,-1.3403,-1.3403,-1.3403,-1.3403,-1.3403,-1.3403,-1.3451,-1.3607,-1.3885,-1.4075,-1.4075,-1.4204,-1.4299,-1.4299,-1.4299,-1.4299,-1.4299,-1.4299,-1.4299,-1.4299,-1.4299,-1.4299,-1.4299,-1.4299,-1.4299,-1.4299,-1.4299,-1.4299,-1.4299,-1.4299,-1.4231,-1.4095,-1.4082,-1.3926,0.0,-1.022,0.0,0.0,0.0,0.0,0.0,0.0,0.0,0.0,0.0,0.0,0.0,0.0,0.0,0.0,0.0,0.0,0.0,0.0,0.0,-1.1942,-1.6754,-1.8823,-1.518,-1.6349,-1.6702,-1.5172,-1.329,-1.2128,-1.2155,-1.2271,-1.2277,-1.2162,-1.4651,-1.6064,-1.6064,-1.99,-2.1945,-2.2198,-1.9393,-1.835,-1.8421,-1.433,-1.2501,-1.2501,-1.2501,-1.2501,-1.2501,-1.2501,-1.2501,-1.2501,-1.2501,-1.2501,-1.2501,-1.2501,-1.2501,-1.2501,-1.2501,-1.2501,-1.2501,-1.2501,-1.2522,-1.2569,-1.2657,-1.2813,-1.2983,-1.3098,-1.3234,-1.3356,-1.339,-1.3403,-1.3403,-1.3403,-1.3403,-1.3403,-1.3403,-1.3403,-1.3403,-1.3403,-1.3403,-1.3403,-1.3403,-1.3403,-1.3451,-1.3607,-1.3885,-1.4075,-1.4075,-1.4204,-1.4299,-1.4299,-1.4299,-1.4299,-1.4299,-1.4299,-1.4299,-1.4299,-1.4299,-1.4299,-1.4299,-1.4299,-1.4299,-1.4299,-1.4299,-1.4299,-1.4299,-1.4299,-1.4285,-1.4245,-1.4129,-1.4041,0.0,0.0,0.0,0.0,0.0,0.0,0.0,0.0,0.0,0.0,0.0,0.0,0.0,0.0,0.0,0.0,0.0,0.0,0.0,0.0,0.0,-1.1763,-1.5,-1.6725,-1.4854,-1.5337,-1.5542,-1.4984,-1.3193,-1.206,-1.206,-1.221,-1.2223,-1.2067,-1.405,-1.5168,-1.5252,-1.9052,-2.1038,-2.1413,-1.997,-1.8494,-1.6907,-1.3831,-1.2501,-1.2501,-1.2501,-1.2501,-1.2501,-1.2501,-1.2501,-1.2501,-1.2501,-1.2501,-1.2501,-1.2501,-1.2501,-1.2501,-1.2501,-1.2501,-1.2501,-1.2501,-1.2603,-1.2725,-1.2725,-1.2888,-1.3078,-1.3152,-1.3227,-1.3308,-1.3383,-1.3403,-1.3403,-1.3403,-1.3403,-1.3403,-1.3403,-1.3403,-1.3403,-1.3403,-1.3403,-1.3403,-1.3403,-1.3519,-1.3641,-1.3722,-1.3987,-1.4183,-1.4183,-1.4251,-1.4299,-1.4299,-1.4299,-1.4299,-1.4299,-1.4299,-1.4299,-1.4299,-1.4299,-1.4299,-1.4299,-1.4299,-1.4299,-1.4299,-1.4299,-1.4299,-1.4299,-1.4299,-1.4299,-1.4299,-1.4217,-1.4143,0.0,0.0,0.0,0.0,0.0,0.0,0.0,0.0,0.0,0.0,0.0,0.0,0.0,0.0,0.0,0.0,0.0,0.0,0.0,-1.1619,-1.1619,-1.1619,-1.3309,-1.429,-1.4014,-1.4148,-1.4374,-1.4276,-1.2823,-1.202,-1.202,-1.2142,-1.2142,-1.1993,-1.3613,-1.4572,-1.4711,-1.7898,-1.9659,-2.0106,-1.9904,-1.8173,-1.5261,-1.3283,-1.244,-1.2467,-1.2488,-1.2501,-1.2501,-1.2501,-1.2501,-1.2501,-1.2501,-1.2501,-1.2501,-1.2501,-1.2501,-1.2501,-1.2501,-1.2522,-1.2542,-1.2542,-1.2732,-1.2935,-1.2807,-1.2956,-1.3173,-1.3173,-1.3193,-1.3241,-1.337,-1.3403,-1.3403,-1.3403,-1.3403,-1.3403,-1.3403,-1.3403,-1.3403,-1.3403,-1.3424,-1.3437,-1.3437,-1.3682,-1.3878,-1.3878,-1.4122,-1.4299,-1.4299,-1.4299,-1.4299,-1.4299,-1.4299,-1.4299,-1.4299,-1.4299,-1.4299,-1.4299,-1.4299,-1.4299,-1.4299,-1.4299,-1.4299,-1.4299,-1.4299,-1.4299,-1.4299,-1.4299,-1.4299,-1.4299,-1.4299,-1.4231,0.0,0.0,0.0,0.0,0.0,0.0,0.0,0.0,0.0,0.0,0.0,0.0,0.0,0.0,0.0,0.0,0.0,0.0,-1.1619,-1.1619,-1.1619,-1.1619,-1.3309,-1.3729,-1.2187,-1.3452,-1.3802,-1.2255,-1.1997,-1.1864,-1.1864,-1.1877,-1.1823,-1.1681,-1.2088,-1.2304,-1.2325,-1.4455,-1.5686,-1.591,-1.5883,-1.5676,-1.5252,-1.3057,-1.2196,-1.2325,-1.2447,-1.2501,-1.2501,-1.2501,-1.2501,-1.2501,-1.2501,-1.2501,-1.2501,-1.2501,-1.2501,-1.2501,-1.2501,-1.2589,-1.2698,-1.2698,-1.282,-1.2956,-1.2935,-1.3044,-1.3173,-1.3173,-1.3268,-1.3376,-1.3397,-1.3403,-1.3403,-1.3403,-1.3403,-1.3403,-1.3403,-1.3403,-1.3403,-1.3403,-1.3505,-1.36,-1.36,-1.3844,-1.4041,-1.4041,-1.419,-1.4299,-1.4299,-1.4299,-1.4299,-1.4299,-1.4299,-1.4299,-1.4299,-1.4299,-1.4299,-1.4299,-1.4299,-1.4299,-1.4299,-1.4299,-1.4299,-1.4299,-1.4299,-1.4299,-1.4299,-1.4299,-1.4299,-1.4299,-1.4299,-1.4292,0.0,0.0,0.0,0.0,0.0,0.0,0.0,0.0,0.0,0.0,0.0,0.0,0.0,0.0,0.0,0.0,0.0,-1.1619,-1.1619,-1.1619,-1.1619,-1.1619,-1.2323,-1.2466,-1.1619,-1.2323,-1.2488,-1.1708,-1.1789,-1.1796,-1.1714,-1.1789,-1.1769,-1.1626,-1.1681,-1.1748,-1.183,-1.3609,-1.5219,-1.6575,-1.5413,-1.488,-1.4948,-1.3081,-1.2101,-1.2169,-1.223,-1.2305,-1.2386,-1.2386,-1.2427,-1.2501,-1.2501,-1.2501,-1.2501,-1.2501,-1.2501,-1.2501,-1.2501,-1.2603,-1.2732,-1.2732,-1.2888,-1.3078,-1.3078,-1.3186,-1.3302,-1.3302,-1.3349,-1.3403,-1.3403,-1.3403,-1.3403,-1.3403,-1.3403,-1.3403,-1.3403,-1.3403,-1.3424,-1.3512,-1.3587,-1.3654,-1.3736,-1.3926,-1.4075,-1.4075,-1.4204,-1.4299,-1.4299,-1.4299,-1.4299,-1.4299,-1.4299,-1.4299,-1.4299,-1.4299,-1.4299,-1.4299,-1.4299,-1.4299,-1.4299,-1.4299,-1.4299,-1.4299,-1.4299,-1.4299,-1.4299,-1.4299,-1.4299,-1.4299,-1.4299,-1.4299,0.0,0.0,0.0,0.0,0.0,0.0,0.0,0.0,0.0,0.0,0.0,0.0,0.0,0.0,0.0,-1.1619,-1.1586,-1.1572,-1.1613,-1.1586,-1.1558,-1.1558,-1.1558,-1.1558,-1.1558,-1.1558,-1.1592,-1.1667,-1.1735,-1.1748,-1.1681,-1.1742,-1.1728,-1.1619,-1.1619,-1.1674,-1.1775,-1.3085,-1.4811,-1.7008,-1.4957,-1.4244,-1.4856,-1.2934,-1.1952,-1.1952,-1.2033,-1.2128,-1.2237,-1.2277,-1.2352,-1.2454,-1.2488,-1.2501,-1.2501,-1.2501,-1.2501,-1.2501,-1.2501,-1.2603,-1.2739,-1.2779,-1.2963,-1.318,-1.322,-1.3308,-1.3403,-1.3403,-1.3403,-1.3403,-1.3403,-1.3403,-1.3403,-1.3403,-1.3403,-1.3403,-1.3403,-1.3403,-1.3444,-1.36,-1.3661,-1.3729,-1.3871,-1.4027,-1.4129,-1.4129,-1.4224,-1.4299,-1.4299,-1.4299,-1.4299,-1.4299,-1.4299,-1.4299,-1.4299,-1.4299,-1.4299,-1.4299,-1.4299,-1.4299,-1.4299,-1.4299,-1.4299,-1.4299,-1.4299,-1.4299,-1.4299,-1.4299,-1.4299,-1.4299,-1.4299,-1.4299,0.0,0.0,0.0,0.0,0.0,0.0,0.0,0.0,0.0,0.0,0.0,0.0,0.0,0.0,-1.1619,-1.1619,-1.1497,-1.1457,-1.1599,-1.1497,-1.1402,-1.1402,-1.1402,-1.1402,-1.1402,-1.1402,-1.1518,-1.1796,-1.1701,-1.1687,-1.1816,-1.1701,-1.1626,-1.1619,-1.1619,-1.1619,-1.1633,-1.1763,-1.2827,-1.4992,-1.2835,-1.2842,-1.4847,-1.2698,-1.164,-1.166,-1.1938,-1.2067,-1.2088,-1.223,-1.2291,-1.2318,-1.2447,-1.2501,-1.2501,-1.2501,-1.2501,-1.2501,-1.2501,-1.2603,-1.2752,-1.2901,-1.3051,-1.32,-1.3342,-1.3397,-1.3403,-1.3403,-1.3403,-1.3403,-1.3403,-1.3403,-1.3403,-1.3403,-1.3403,-1.3403,-1.3403,-1.3403,-1.3444,-1.36,-1.3736,-1.3878,-1.4034,-1.419,-1.4285,-1.4285,-1.4292,-1.4299,-1.4299,-1.4299,-1.4299,-1.4299,-1.4299,-1.4299,-1.4299,-1.4299,-1.4299,-1.4299,-1.4299,-1.4299,-1.4299,-1.4299,-1.4299,-1.4299,-1.4299,-1.4299,-1.4299,-1.4299,-1.4299,-1.4299,-1.4299,-1.4299,0.0,0.0,0.0,0.0,0.0,0.0,0.0,0.0,0.0,0.0,0.0,0.0,-1.1328,-1.1491,-1.1619,-1.1619,-1.1491,-1.1409,-1.1463,-1.1341,-1.1246,-1.1246,-1.1246,-1.1287,-1.1382,-1.1389,-1.1477,-1.1681,-1.1647,-1.164,-1.1694,-1.1647,-1.1572,-1.1477,-1.1565,-1.1619,-1.1619,-1.1619,-1.1928,-1.2835,-1.1928,-1.2072,-1.2691,-1.1928,-1.1619,-1.1626,-1.1728,-1.1884,-1.2067,-1.2121,-1.2257,-1.2433,-1.2481,-1.2501,-1.2501,-1.2501,-1.2501,-1.2501,-1.2501,-1.2664,-1.2888,-1.2942,-1.3125,-1.3329,-1.3383,-1.3403,-1.3403,-1.3403,-1.3403,-1.3424,-1.3519,-1.3471,-1.3403,-1.3403,-1.3546,-1.3654,-1.3566,-1.3546,-1.362,-1.3865,-1.3953,-1.4034,-1.419,-1.4265,-1.4299,-1.4299,-1.4299,-1.4299,-1.4299,-1.4299,-1.4299,-1.4299,-1.4299,-1.4299,-1.4299,-1.4299,-1.4299,-1.4299,-1.4299,-1.4299,-1.4299,-1.4299,-1.4299,-1.4299,-1.4299,-1.4299,-1.4299,-1.4299,-1.4299,-1.4299,-1.4299,-1.4299,0.0,0.0,0.0,0.0,0.0,-0.9917,0.0,0.0,-1.0812,-1.086,-1.1029,-1.1165,-1.1165,-1.1328,-1.1463,-1.1463,-1.1341,-1.126,-1.1307,-1.1185,-1.109,-1.109,-1.109,-1.1131,-1.1233,-1.124,-1.1328,-1.1531,-1.1497,0.0,-1.1613,-1.1572,-1.1497,-1.1396,-1.1491,-1.1545,-1.1545,-1.1545,-1.1565,-1.1619,-1.1619,-1.1619,-1.1619,-1.1619,-1.1619,-1.1619,-1.1674,-1.1803,-1.1986,-1.204,-1.221,-1.2433,-1.2481,-1.2501,-1.2501,-1.2501,-1.2501,-1.2501,-1.2501,-1.2671,-1.2895,-1.2942,-1.3125,-1.3336,-1.3383,-1.3403,-1.3403,-1.3403,-1.3437,-1.3492,-1.3539,-1.3512,-1.3492,-1.3539,-1.3695,-1.3831,-1.3783,-1.3736,-1.3777,-1.4021,-1.4075,-1.4122,-1.4272,-1.4299,-1.4299,-1.4299,-1.4299,-1.4299,-1.4299,-1.4299,-1.4299,-1.4299,-1.4299,-1.4299,-1.4299,-1.4299,-1.4299,-1.4299,-1.4299,-1.4299,-1.4299,-1.4299,-1.4299,-1.4299,-1.4299,-1.4299,-1.4299,-1.4299,-1.4299,-1.4299,-1.4299,-1.4299,0.0,0.0,0.0,0.0,0.0,0.0,-1.0283,0.0,-1.0514,-1.0677,-1.0934,-1.1138,-1.1151,-1.1151,-1.1151,-1.1151,-1.1036,-1.0995,-1.1138,-1.1029,-1.0941,-1.0941,-1.0941,-1.0941,-1.0948,-1.0955,-1.1077,-1.1369,-1.126,-1.1307,-1.1606,-1.147,-1.1382,-1.1382,-1.1382,-1.1382,-1.1382,-1.1389,-1.1463,-1.1613,-1.1619,-1.1619,-1.1619,-1.1619,-1.1619,-1.1626,-1.1769,-1.183,-1.185,-1.2006,-1.2155,-1.2305,-1.2447,-1.2501,-1.2501,-1.2501,-1.2508,-1.2508,-1.2508,-1.261,-1.2766,-1.2915,-1.3064,-1.3207,-1.3356,-1.3403,-1.3403,-1.3403,-1.3512,-1.3593,-1.3451,-1.3532,-1.3682,-1.381,-1.3844,-1.3892,-1.4041,-1.396,-1.3899,-1.4048,-1.4082,-1.4129,-1.4272,-1.4299,-1.4299,-1.4299,-1.4299,-1.4299,-1.4299,-1.4299,-1.4299,-1.4299,-1.4299,-1.4299,-1.4299,-1.4299,-1.4299,-1.4299,-1.4299,-1.4299,-1.4299,-1.4299,-1.4299,-1.4299,-1.4299,-1.4299,-1.4299,-1.4299,-1.4299,-1.4299,-1.4299,-1.4299,-0.8092,0.0,0.0,0.0,0.0,0.0,-0.9429,-0.9693,-0.9958,-1.0324,-1.0466,-1.0588,-1.0806,-1.0839,-1.0839,-1.0839,-1.09,-1.0962,-1.1002,-1.088,-1.0785,-1.0785,-1.0785,-1.0826,-1.0941,-1.1043,-1.1185,0.0,-1.1457,-1.1531,-1.1613,-1.1369,-1.1226,-1.1226,-1.1124,-1.1118,-1.1226,-1.1335,-1.1409,-1.1457,-1.1565,-1.1619,-1.1619,-1.1619,-1.1619,-1.1619,-1.166,-1.1803,-1.2013,-1.2162,-1.225,-1.2305,-1.2447,-1.2501,-1.2501,-1.2501,-1.2569,-1.2664,-1.2664,-1.2834,-1.3057,-1.3098,-1.3214,-1.3349,-1.339,-1.3403,-1.3403,-1.3403,-1.3512,-1.3641,-1.3702,-1.3912,-1.4068,-1.3885,-1.4007,-1.4156,-1.4089,-1.4122,-1.4183,-1.4231,-1.4238,-1.4251,-1.4292,-1.4299,-1.4299,-1.4299,-1.4299,-1.4299,-1.4299,-1.4299,-1.4299,-1.4299,-1.4299,-1.4299,-1.4299,-1.4299,-1.4299,-1.4299,-1.4299,-1.4299,-1.4299,-1.4299,-1.4299,-1.4299,-1.4299,-1.4299,-1.4299,-1.4299,-1.4299,-1.4299,-1.4299,-1.4299,0.0,0.0,0.0,0.0,0.0,0.0,-0.9137,-0.934,-0.9544,0.0,-1.0141,-1.0256,-1.0493,-1.0582,-1.0622,-1.0622,-1.0806,-1.0928,-1.086,-1.088,-1.088,-1.0819,-1.0812,-1.0873,-1.1023,-1.1056,-1.1138,-1.128,-1.1321,-1.1341,-1.1341,-1.1287,-1.1199,-1.1077,-1.0989,-1.0989,-1.107,-1.1158,-1.124,-1.1301,-1.145,-1.1525,-1.1525,-1.1592,-1.1619,-1.1626,-1.1748,-1.1864,-1.1986,-1.2264,-1.2379,-1.2386,-1.2467,-1.2501,-1.2508,-1.2576,-1.2651,-1.2739,-1.2807,-1.2976,-1.3173,-1.3173,-1.3275,-1.3403,-1.3403,-1.3403,-1.3403,-1.3403,-1.3512,-1.3688,-1.396,-1.4116,-1.4177,-1.4061,-1.417,-1.4278,-1.4183,-1.4238,-1.4299,-1.4299,-1.4299,-1.4299,-1.4299,-1.4299,-1.4299,-1.4299,-1.4299,-1.4299,-1.4299,-1.4299,-1.4299,-1.4299,-1.4299,-1.4299,-1.4299,-1.4299,-1.4299,-1.4299,-1.4299,-1.4299,-1.4299,-1.4299,-1.4299,-1.4299,-1.4299,-1.4299,-1.4299,-1.4299,-1.4299,-1.4299,-1.4299,-1.4299,0.0,0.0,0.0,0.0,0.0,0.0,-0.911,-0.9164,-0.9205,-0.9652,-0.9856,-1.0005,-1.0195,-1.0344,-1.0439,-1.0439,-1.0724,-1.09,-1.0765,-1.0989,-1.1118,-1.0989,-1.0955,-1.1002,-1.1151,-1.1029,-1.1009,-1.1151,-1.1063,-1.0982,-1.0948,-1.1212,-1.1233,-1.0934,-1.0921,-1.0921,-1.0921,-1.0941,-1.1023,-1.1165,-1.1314,-1.1402,-1.1423,-1.1558,-1.1619,-1.1633,-1.1918,-1.1965,-1.1891,-1.2305,-1.2481,-1.2481,-1.2494,-1.2501,-1.2515,-1.2657,-1.2725,-1.2779,-1.2915,-1.3064,-1.32,-1.32,-1.3288,-1.3403,-1.3403,-1.3403,-1.341,-1.3444,-1.3546,-1.3749,-1.419,-1.4197,-1.4129,-1.4272,-1.4299,-1.4299,-1.4299,-1.4299,-1.4299,-1.4299,-1.4299,-1.4299,-1.4299,-1.4299,-1.4299,-1.4299,-1.4299,-1.4299,-1.4299,-1.4299,-1.4299,-1.4299,-1.4299,-1.4299,-1.4299,-1.4299,-1.4299,-1.4299,-1.4299,-1.4299,-1.4299,-1.4299,-1.4299,-1.4299,-1.4299,-1.4299,-1.4299,-1.4299,-1.4299,-1.4299,-1.4299,-1.4299,0.0,0.0,0.0,0.0,0.0,0.0,-0.8479,-0.8554,-0.8737,0.0,-0.9306,-0.9449,-0.9836,-1.0032,-1.0134,-1.0134,-1.0595,-1.0941,-1.0907,-1.1056,-1.1151,-1.1124,-1.1016,-1.1002,-1.1151,-1.1029,-1.1009,-1.1151,-1.1253,-1.1199,-1.0962,-1.1111,-1.107,-1.0772,-1.0765,-1.0765,-1.0765,-1.0887,-1.1023,-1.1165,-1.1314,-1.1457,-1.1572,-1.1606,-1.1619,-1.1626,-1.1803,-1.1932,-1.2033,-1.2244,-1.2332,-1.2345,-1.2461,-1.2501,-1.2508,-1.2535,-1.2705,-1.2922,-1.2949,-1.3132,-1.3356,-1.3356,-1.3376,-1.3403,-1.3403,-1.3403,-1.3451,-1.3688,-1.3777,-1.3878,-1.4211,-1.4278,-1.4265,-1.4292,-1.4299,-1.4299,-1.4299,-1.4299,-1.4299,-1.4299,-1.4299,-1.4299,-1.4299,-1.4299,-1.4299,-1.4299,-1.4299,-1.4299,-1.4299,-1.4299,-1.4299,-1.4299,-1.4299,-1.4299,-1.4299,-1.4299,-1.4299,-1.4299,-1.4299,-1.4299,-1.4299,-1.4299,-1.4299,-1.4299,-1.4299,-1.4299,-1.4299,-1.4299,-1.4299,-1.4299,-1.4299,-1.4299,0.0,0.0,0.0,-0.8153,0.0,0.0,0.0,-0.8377,-0.8506,-0.8954,-0.8988,-0.9049,-0.9422,-0.9612,-0.9768,-0.991,-1.0378,-1.0772,-1.0928,-1.1206,-1.1335,-1.1179,-1.1097,-1.1084,-1.1158,-1.1029,-1.0982,-1.105,-1.1124,-1.107,-1.0846,-1.0975,-1.0955,-1.0724,-1.0717,-1.0717,-1.0717,-1.0799,-1.0907,-1.1056,-1.1206,-1.1355,-1.1511,-1.1586,-1.1619,-1.1633,-1.185,-1.1993,-1.2081,-1.2305,-1.2393,-1.2406,-1.2474,-1.2501,-1.2522,-1.2678,-1.2827,-1.2983,-1.3132,-1.3275,-1.3403,-1.3403,-1.3403,-1.3403,-1.3403,-1.3403,-1.3464,-1.3756,-1.3838,-1.3912,-1.4217,-1.4299,-1.4299,-1.4299,-1.4299,-1.4299,-1.4299,-1.4299,-1.4299,-1.4299,-1.4299,-1.4299,-1.4299,-1.4299,-1.4299,-1.4299,-1.4299,-1.4299,-1.4299,-1.4299,-1.4299,-1.4299,-1.4299,-1.4299,-1.4299,-1.4299,-1.4299,-1.4299,-1.4299,-1.4299,-1.4299,-1.4299,-1.4333,-1.4407,-1.4333,-1.4333,-1.4407,-1.4333,-1.4299,-1.4299,-1.4299,-1.4299,0.0,0.0,0.0,0.0,0.0,-0.8241,0.0,0.0,0.0,-0.8737,-0.873,0.0,0.0,0.0,0.0,0.0,0.0,0.0,0.0,-1.1165,0.0,-1.1185,-1.1138,-1.1131,-1.1158,-1.1009,-1.0907,-1.0907,-1.0907,-1.0853,-1.0724,-1.0867,-1.088,-1.0724,-1.0717,-1.0717,-1.0717,-1.0717,-1.0812,-1.0989,-1.1104,-1.126,-1.1436,-1.1565,-1.1633,-1.1674,-1.1945,-1.2081,-1.2128,-1.2393,-1.2501,-1.2501,-1.2501,-1.2501,-1.2535,-1.2813,-1.2935,-1.2996,-1.3268,-1.3376,-1.3403,-1.3403,-1.3403,-1.3403,-1.3403,-1.3424,-1.3498,-1.377,-1.3865,-1.3946,-1.4224,-1.4299,-1.4299,-1.4299,-1.4299,-1.4299,-1.4299,-1.4299,-1.4299,-1.4299,-1.4299,-1.4299,-1.4299,-1.4299,-1.4299,-1.4299,-1.4299,-1.4299,-1.4299,-1.4299,-1.4299,-1.4299,-1.4299,-1.4299,-1.4299,-1.4299,-1.4299,-1.4299,-1.4299,-1.4299,-1.4299,-1.4326,-1.4394,-1.4509,-1.4428,-1.4441,-1.4557,-1.4441,-1.4353,-1.4299,-1.4299,-1.4299,0.0,0.0,0.0,0.0,-0.8554,0.0,0.0,0.0,-0.8282,-0.8336,0.0,0.0,0.0,0.0,0.0,0.0,0.0,0.0,-1.0127,-1.0541,-1.0907,-1.1138,-1.105,-1.1023,-1.1151,-1.0907,-1.0744,-1.0744,-1.0744,-1.0738,-1.0724,-1.0867,-1.088,-1.0724,-1.0717,-1.0717,-1.0717,-1.0717,-1.086,-1.1138,-1.1158,-1.1314,-1.1592,-1.1613,-1.1687,-1.1816,-1.1986,-1.2142,-1.2277,-1.2433,-1.2501,-1.2501,-1.2501,-1.2501,-1.2522,-1.2691,-1.284,-1.2983,-1.3146,-1.3288,-1.3403,-1.3403,-1.3403,-1.3403,-1.3403,-1.3498,-1.3634,-1.3797,-1.3939,-1.4089,-1.4258,-1.4299,-1.4299,-1.4299,-1.4299,-1.4299,-1.4299,-1.4299,-1.4299,-1.4299,-1.4299,-1.4299,-1.4299,-1.4299,-1.4299,-1.4299,-1.4299,-1.4299,-1.4299,-1.4299,-1.4299,-1.4299,-1.4299,-1.4299,-1.4299,-1.4299,-1.4299,-1.4299,-1.4299,-1.4299,-1.4299,-1.4421,-1.4496,-1.4509,-1.4631,-1.4699,-1.4713,-1.4699,-1.4557,-1.4299,-1.4299,-1.4299,0.0,0.0,0.0,0.0,0.0,0.0,-0.8228,0.0,-0.816,0.0,0.0,0.0,0.0,0.0,0.0,0.0,-0.9388,0.0,0.0,0.0,-1.0344,0.0,0.0,0.0,-1.0765,-1.0663,-1.0588,-1.0588,-1.0588,-1.0588,-1.0588,-1.0731,-1.0785,-1.0724,-1.0717,-1.0717,-1.0717,-1.0717,-1.0867,-1.1165,-1.1165,-1.1321,-1.1619,-1.1619,-1.1694,-1.1837,-1.1993,-1.2149,-1.2298,-1.244,-1.2501,-1.2508,-1.2603,-1.263,-1.2651,-1.2807,-1.2956,-1.3105,-1.3254,-1.3349,-1.3403,-1.3403,-1.3403,-1.3403,-1.3403,-1.3505,-1.3661,-1.3797,-1.3953,-1.4109,-1.4258,-1.4299,-1.4299,-1.4299,-1.4299,-1.4299,-1.4299,-1.4299,-1.4299,-1.4299,-1.4299,-1.4299,-1.4299,-1.4299,-1.4299,-1.4299,-1.4299,-1.4299,-1.4299,-1.4299,-1.4299,-1.4299,-1.4299,-1.4299,-1.4299,-1.4299,-1.4299,-1.4299,-1.4299,-1.4299,-1.4299,-1.4434,-1.4557,-1.4638,-1.4706,-1.4787,-1.4875,-1.4787,-1.4679,-1.4557,-1.4557,-1.4509,-0.852,0.0,0.0,0.0,0.0,0.0,0.0,0.0,0.0,0.0,0.0,0.0,0.0,0.0,0.0,0.0,0.0,-0.9395,0.0,-0.9673,0.0,0.0,0.0,0.0,0.0,-1.048,-1.0453,-1.0487,-1.0412,-1.0405,-1.0487,-1.0595,-1.0677,-1.0717,-1.0717,-1.0717,-1.0717,-1.0765,-1.0914,-1.1165,-1.1206,-1.1362,-1.1619,-1.166,-1.1755,-1.1904,-1.206,-1.221,-1.2352,-1.2461,-1.2501,-1.2515,-1.2623,-1.2718,-1.2813,-1.2963,-1.3085,-1.3193,-1.3349,-1.3403,-1.3403,-1.3403,-1.3403,-1.3403,-1.3403,-1.3532,-1.3709,-1.381,-1.398,-1.4156,-1.4272,-1.4299,-1.4299,-1.4299,-1.4299,-1.4299,-1.4299,-1.4299,-1.4299,-1.4299,-1.4299,-1.4299,-1.4299,-1.4299,-1.4299,-1.4299,-1.4299,-1.4299,-1.4299,-1.4299,-1.4299,-1.4299,-1.4299,-1.4299,-1.4299,-1.4299,-1.4299,-1.4299,-1.4299,-1.4299,-1.4299,-1.4475,-1.4624,-1.474,-1.4821,-1.4916,-1.5031,-1.4916,-1.4841,-1.4801,-1.4719,-1.4618,0.0,0.0,0.0,-0.8554,0.0,0.0,0.0,0.0,-0.8431,0.0,0.0,0.0,0.0,0.0,0.0,0.0,0.0,0.0,0.0,0.0,0.0,0.0,0.0,0.0,0.0,-1.0453,-1.0344,-1.048,-1.0229,-1.0188,-1.0473,-1.0493,-1.0568,-1.0717,-1.0717,-1.0717,-1.0717,-1.0867,-1.1016,-1.1165,-1.1314,-1.1463,-1.1626,-1.1762,-1.1911,-1.206,-1.2216,-1.2366,-1.2494,-1.2501,-1.2501,-1.2501,-1.2508,-1.2691,-1.2969,-1.3112,-1.3166,-1.3193,-1.3349,-1.3403,-1.3403,-1.3403,-1.3403,-1.3403,-1.3403,-1.36,-1.3838,-1.3838,-1.4061,-1.4292,-1.4299,-1.4299,-1.4299,-1.4299,-1.4299,-1.4299,-1.4299,-1.4299,-1.4299,-1.4299,-1.4299,-1.4299,-1.4299,-1.4299,-1.4299,-1.4299,-1.4299,-1.4299,-1.4299,-1.4299,-1.4299,-1.4299,-1.4299,-1.4299,-1.4299,-1.4299,-1.4299,-1.4299,-1.4299,-1.4299,-1.4299,-1.4577,-1.4733,-1.474,-1.5025,-1.5167,-1.5174,-1.5167,-1.5099,-1.4957,-1.4658,-1.4516,0.0,0.0,-0.8615,-0.8506,0.0,0.0,0.0,0.0,0.0,0.0,0.0,0.0,0.0,0.0,0.0,0.0,0.0,0.0,0.0,0.0,0.0,0.0,0.0,0.0,0.0,0.0,-1.0148,-1.0195,-1.0012,-0.9985,-1.0188,-1.0385,-1.0514,-1.0568,-1.067,-1.0717,-1.0717,-1.0873,-1.1023,-1.1165,-1.1314,-1.147,-1.1626,-1.1769,-1.1918,-1.2074,-1.2223,-1.2372,-1.2501,-1.2501,-1.2501,-1.2522,-1.2725,-1.2868,-1.2969,-1.3017,-1.3159,-1.3329,-1.3383,-1.3403,-1.3403,-1.3403,-1.3403,-1.3403,-1.3403,-1.3607,-1.3838,-1.3838,-1.4061,-1.4299,-1.4299,-1.4299,-1.4299,-1.4299,-1.4299,-1.4299,-1.4299,-1.4299,-1.4299,-1.4299,-1.4299,-1.4299,-1.4299,-1.4299,-1.4299,-1.4299,-1.4299,-1.4299,-1.4299,-1.4299,-1.4299,-1.4299,-1.4299,-1.4299,-1.4299,-1.4299,-1.4299,-1.4299,-1.4299,-1.434,-1.4434,-1.4631,-1.4787,-1.4889,-1.5086,-1.5181,-1.5181,-1.5181,-1.5113,-1.497,-1.4862,-1.476,-0.8391,-0.8404,0.0,-0.8404,-0.8377,0.0,-0.8397,0.0,0.0,0.0,0.0,0.0,0.0,0.0,0.0,0.0,0.0,0.0,0.0,-0.9022,0.0,0.0,0.0,0.0,0.0,-1.0032,-0.9971,-0.9971,-0.9829,-0.9808,-0.9958,-1.0256,-1.0439,-1.0487,-1.0643,-1.0717,-1.0717,-1.0921,-1.107,-1.1165,-1.1375,-1.1552,-1.1701,-1.1843,-1.1999,-1.2149,-1.2298,-1.242,-1.2501,-1.2501,-1.2501,-1.2528,-1.2779,-1.2915,-1.2976,-1.3078,-1.3234,-1.3403,-1.3403,-1.3403,-1.3403,-1.3403,-1.3403,-1.341,-1.3464,-1.3648,-1.3851,-1.3905,-1.4102,-1.4299,-1.4299,-1.4299,-1.4299,-1.4299,-1.4299,-1.4299,-1.4299,-1.4299,-1.4299,-1.4299,-1.4299,-1.4299,-1.4299,-1.4299,-1.4299,-1.4299,-1.4299,-1.4299,-1.4299,-1.4299,-1.4299,-1.4299,-1.4299,-1.4299,-1.4299,-1.4299,-1.4299,-1.4299,-1.4299,-1.4367,-1.4509,-1.4658,-1.4862,-1.512,-1.516,-1.5235,-1.5343,-1.5235,-1.5113,-1.497,-1.5025,-1.4909]}]]